[[{"header":{"parameterUnit":"m.s-1","parameterCategory":1,"la1":30.6,"la2":29.2853,"lo1":-89.7004,"lo2":-87.6739,"dy":0.0162,"dx":0.0183,"nx":112,"ny":82,"refTime":"2023-08-15T18:00:00:Z","depth":0,"parameterNumber":2,"parameterNumberName":"U-component_of_WINDS"},"data":[0.0,0.0,0.0,0.0,0.0,0.0,0.0,0.0,0.0,0.0,0.0,0.0,0.0,0.0,0.0,0.0,0.0,0.0,0.0,0.0,0.0,0.0,0.0,0.0,0.0,0.0,0.0,0.0,0.0,0.0,0.0,0.0,0.0,0.0,0.0,0.0,0.0,0.0,0.0,0.0,0.0,0.0,0.0,0.0,0.0,0.0,0.0,0.0,0.0,0.0,0.0,0.0,0.0,0.0,0.0,0.0,0.0,0.0,0.0,0.0,0.0,0.0,0.0,0.0,0.0,0.0,0.0,0.0,0.0,0.0,0.0,0.0,0.0,0.0,0.0,0.0,0.0,0.0,0.0,0.0,0.0,0.0,0.0,0.0,0.0,0.0,0.0,0.0,0.0,0.0,-2.0858,-2.1678,-2.3172,-2.3886,-2.3269,-2.2681,-2.0971,-1.7669,0.0,0.0,0.0,0.0,0.0,0.0,0.0,0.0,0.0,0.0,0.0,0.0,0.0,0.0,0.0,0.0,0.0,0.0,0.0,0.0,0.0,0.0,0.0,0.0,0.0,0.0,0.0,0.0,0.0,0.0,0.0,0.0,0.0,0.0,0.0,0.0,0.0,0.0,0.0,0.0,0.0,0.0,0.0,0.0,0.0,0.0,0.0,0.0,0.0,0.0,0.0,0.0,0.0,0.0,0.0,0.0,0.0,0.0,0.0,0.0,0.0,0.0,0.0,0.0,0.0,0.0,0.0,0.0,0.0,0.0,0.0,0.0,0.0,0.0,0.0,0.0,0.0,0.0,0.0,0.0,0.0,0.0,0.0,0.0,0.0,0.0,0.0,0.0,0.0,0.0,0.0,0.0,0.0,0.0,0.0,0.0,0.0,0.0,0.0,0.0,0.0,0.0,0.0,0.0,-2.0145,-2.2229,-2.3802,-2.3947,-2.2144,-2.1235,-1.9614,-1.7008,0.0,0.0,0.0,0.0,0.0,0.0,0.0,0.0,0.0,0.0,0.0,0.0,0.0,0.0,0.0,0.0,0.0,0.0,0.0,0.0,0.0,0.0,0.0,0.0,0.0,0.0,0.0,0.0,0.0,0.0,0.0,0.0,0.0,0.0,0.0,0.0,0.0,0.0,0.0,0.0,0.0,0.0,0.0,0.0,0.0,0.0,0.0,0.0,0.0,0.0,0.0,0.0,0.0,0.0,0.0,0.0,0.0,0.0,0.0,0.0,0.0,0.0,0.0,0.0,0.0,0.0,0.0,0.0,0.0,0.0,0.0,0.0,0.0,0.0,0.0,0.0,0.0,0.0,0.0,0.0,0.0,0.0,0.0,0.0,0.0,0.0,0.0,0.0,0.0,0.0,0.0,0.0,0.0,0.0,0.0,0.0,0.0,0.0,0.0,0.0,0.0,0.0,0.0,-1.9845,-2.1013,-2.334,-2.3745,-2.3371,-2.2149,-2.1043,-1.9367,-1.6873,-1.704,0.0,0.0,0.0,0.0,0.0,0.0,0.0,0.0,0.0,0.0,0.0,0.0,0.0,0.0,0.0,0.0,0.0,0.0,0.0,0.0,0.0,0.0,0.0,0.0,0.0,0.0,0.0,0.0,0.0,0.0,0.0,0.0,0.0,0.0,0.0,0.0,0.0,0.0,0.0,0.0,0.0,0.0,0.0,0.0,0.0,0.0,0.0,0.0,0.0,0.0,0.0,0.0,0.0,0.0,0.0,0.0,0.0,0.0,0.0,0.0,0.0,0.0,0.0,0.0,0.0,0.0,0.0,0.0,0.0,0.0,0.0,0.0,0.0,0.0,0.0,0.0,0.0,0.0,0.0,0.0,0.0,0.0,0.0,0.0,0.0,0.0,0.0,0.0,0.0,0.0,0.0,0.0,0.0,0.0,0.0,0.0,0.0,0.0,0.0,0.0,0.0,0.0,-2.088,-2.159,-2.3316,-2.3128,-2.2586,-2.1921,-2.0572,-1.8885,-1.6817,-1.6071,0.0,0.0,0.0,0.0,0.0,0.0,0.0,0.0,0.0,0.0,0.0,0.0,0.0,0.0,0.0,0.0,0.0,0.0,0.0,0.0,0.0,0.0,0.0,0.0,0.0,0.0,0.0,0.0,0.0,0.0,0.0,0.0,0.0,0.0,0.0,0.0,0.0,0.0,0.0,0.0,0.0,0.0,0.0,0.0,0.0,0.0,0.0,0.0,0.0,0.0,0.0,0.0,0.0,0.0,0.0,0.0,0.0,0.0,0.0,0.0,0.0,0.0,0.0,0.0,0.0,0.0,0.0,0.0,0.0,0.0,0.0,0.0,0.0,0.0,0.0,0.0,0.0,0.0,0.0,0.0,0.0,0.0,0.0,0.0,0.0,0.0,0.0,0.0,0.0,0.0,0.0,0.0,0.0,0.0,0.0,0.0,0.0,0.0,0.0,0.0,0.0,0.0,-1.9813,-2.0707,-2.0963,-2.1627,-2.1639,-2.0622,-1.875,-1.7335,-1.6662,-1.5709,0.0,0.0,0.0,0.0,0.0,0.0,0.0,0.0,0.0,0.0,0.0,0.0,0.0,0.0,0.0,0.0,0.0,0.0,0.0,0.0,0.0,0.0,0.0,0.0,0.0,0.0,0.0,0.0,0.0,0.0,0.0,0.0,0.0,0.0,0.0,0.0,0.0,0.0,0.0,0.0,0.0,0.0,0.0,0.0,0.0,0.0,0.0,0.0,0.0,0.0,0.0,0.0,0.0,0.0,0.0,0.0,0.0,0.0,0.0,0.0,0.0,0.0,0.0,0.0,0.0,0.0,0.0,0.0,0.0,0.0,0.0,0.0,0.0,0.0,0.0,0.0,0.0,0.0,0.0,0.0,0.0,0.0,0.0,0.0,0.0,0.0,0.0,0.0,0.0,0.0,0.0,0.0,0.0,0.0,0.0,0.0,0.0,0.0,0.0,0.0,0.0,0.0,-1.9316,-2.0161,0.0,-2.124,-2.102,-1.9809,-1.872,-1.7432,-1.582,0.0,0.0,0.0,0.0,0.0,0.0,0.0,0.0,0.0,0.0,0.0,0.0,0.0,0.0,0.0,0.0,0.0,0.0,0.0,0.0,0.0,0.0,0.0,0.0,0.0,0.0,0.0,0.0,0.0,0.0,0.0,0.0,0.0,0.0,0.0,0.0,0.0,0.0,0.0,0.0,0.0,0.0,0.0,0.0,0.0,0.0,0.0,0.0,0.0,0.0,0.0,0.0,0.0,0.0,0.0,0.0,0.0,0.0,0.0,0.0,0.0,0.0,0.0,0.0,0.0,0.0,0.0,0.0,0.0,0.0,0.0,0.0,0.0,0.0,0.0,0.0,0.0,0.0,0.0,0.0,0.0,0.0,0.0,0.0,0.0,0.0,0.0,0.0,0.0,0.0,0.0,0.0,0.0,0.0,0.0,0.0,0.0,0.0,0.0,0.0,0.0,0.0,-1.7973,-1.8711,-1.9465,0.0,-2.0677,-2.0362,-1.9112,-1.8076,-1.6838,-1.5305,0.0,0.0,0.0,0.0,0.0,0.0,0.0,0.0,0.0,0.0,0.0,0.0,0.0,0.0,0.0,0.0,0.0,0.0,0.0,0.0,0.0,0.0,0.0,0.0,0.0,0.0,0.0,0.0,0.0,0.0,0.0,0.0,0.0,0.0,0.0,0.0,0.0,0.0,0.0,0.0,0.0,0.0,0.0,0.0,0.0,0.0,0.0,0.0,0.0,0.0,0.0,0.0,0.0,0.0,0.0,0.0,0.0,0.0,0.0,0.0,0.0,0.0,0.0,0.0,0.0,0.0,0.0,0.0,0.0,0.0,0.0,0.0,0.0,0.0,0.0,0.0,0.0,0.0,0.0,0.0,0.0,0.0,0.0,0.0,0.0,0.0,0.0,0.0,0.0,0.0,0.0,0.0,0.0,0.0,0.0,0.0,0.0,0.0,0.0,0.0,0.0,0.0,-1.7092,-1.787,-1.8512,-1.9029,-1.9696,-1.9604,-1.8402,-1.6512,-1.5358,0.0,0.0,0.0,0.0,0.0,0.0,0.0,0.0,0.0,0.0,0.0,0.0,0.0,0.0,0.0,0.0,0.0,0.0,0.0,0.0,0.0,0.0,0.0,0.0,0.0,0.0,0.0,0.0,0.0,0.0,0.0,0.0,0.0,0.0,0.0,0.0,0.0,0.0,0.0,0.0,0.0,0.0,0.0,0.0,0.0,0.0,0.0,0.0,0.0,0.0,0.0,0.0,0.0,0.0,0.0,0.0,0.0,0.0,0.0,0.0,0.0,0.0,0.0,0.0,0.0,0.0,0.0,0.0,0.0,0.0,0.0,0.0,0.0,0.0,0.0,0.0,0.0,0.0,0.0,0.0,0.0,0.0,0.0,0.0,0.0,0.0,0.0,0.0,0.0,0.0,0.0,0.0,0.0,0.0,0.0,0.0,0.0,0.0,0.0,0.0,0.0,0.0,0.0,-1.6559,-1.7627,-1.8352,-1.8448,-1.9449,-1.9391,-1.767,-1.643,-1.5511,-1.4956,0.0,0.0,0.0,0.0,0.0,0.0,0.0,0.0,0.0,0.0,0.0,0.0,0.0,0.0,0.0,0.0,0.0,0.0,0.0,0.0,0.0,0.0,0.0,0.0,0.0,0.0,0.0,0.0,0.0,0.0,0.0,0.0,0.0,0.0,0.0,0.0,0.0,0.0,0.0,0.0,0.0,0.0,0.0,0.0,0.0,0.0,0.0,0.0,0.0,0.0,0.0,0.0,0.0,0.0,0.0,0.0,0.0,0.0,0.0,0.0,0.0,0.0,0.0,0.0,0.0,0.0,0.0,0.0,0.0,0.0,0.0,0.0,0.0,0.0,0.0,0.0,0.0,0.0,0.0,0.0,0.0,0.0,0.0,0.0,0.0,0.0,0.0,0.0,0.0,0.0,0.0,0.0,0.0,0.0,0.0,0.0,0.0,0.0,0.0,0.0,0.0,0.0,-1.6169,-1.6776,-1.7312,-1.7681,-1.8214,-1.8044,-1.6824,-1.5834,-1.4872,-1.4032,0.0,0.0,0.0,0.0,0.0,0.0,0.0,0.0,0.0,0.0,0.0,0.0,0.0,0.0,0.0,0.0,0.0,0.0,0.0,0.0,0.0,0.0,0.0,0.0,0.0,0.0,0.0,0.0,0.0,0.0,0.0,0.0,0.0,0.0,0.0,0.0,0.0,0.0,0.0,0.0,0.0,0.0,0.0,0.0,0.0,0.0,0.0,0.0,0.0,0.0,0.0,0.0,0.0,0.0,0.0,0.0,0.0,0.0,0.0,0.0,0.0,0.0,0.0,0.0,0.0,0.0,0.0,0.0,0.0,0.0,0.0,0.0,0.0,0.0,0.0,0.0,0.0,0.0,0.0,0.0,0.0,0.0,0.0,0.0,0.0,0.0,0.0,0.0,0.0,0.0,0.0,0.0,0.0,0.0,0.0,0.0,0.0,0.0,0.0,0.0,0.0,0.0,-1.588,-1.5721,-1.5868,-1.6736,-1.6459,-1.6131,-1.5942,-1.4891,-1.3845,-1.2923,0.0,0.0,0.0,0.0,0.0,0.0,0.0,0.0,0.0,0.0,0.0,0.0,0.0,0.0,0.0,0.0,0.0,0.0,0.0,0.0,0.0,0.0,0.0,0.0,0.0,0.0,0.0,0.0,0.0,0.0,0.0,0.0,0.0,0.0,0.0,0.0,0.0,0.0,0.0,0.0,0.0,0.0,0.0,0.0,0.0,0.0,0.0,0.0,0.0,0.0,0.0,0.0,0.0,0.0,0.0,0.0,0.0,0.0,0.0,0.0,-2.2945,0.0,0.0,0.0,0.0,0.0,0.0,0.0,0.0,0.0,0.0,0.0,0.0,0.0,0.0,0.0,0.0,0.0,0.0,0.0,0.0,0.0,0.0,0.0,0.0,0.0,0.0,0.0,0.0,0.0,0.0,0.0,0.0,0.0,0.0,0.0,0.0,0.0,0.0,0.0,0.0,0.0,-1.5571,-1.5755,-1.5853,-1.573,-1.6003,-1.5968,-1.5428,-1.45,-1.4013,-1.4046,-1.2856,0.0,0.0,0.0,0.0,0.0,0.0,0.0,0.0,0.0,0.0,0.0,0.0,0.0,0.0,0.0,0.0,0.0,0.0,0.0,0.0,0.0,0.0,0.0,0.0,0.0,0.0,0.0,0.0,0.0,0.0,0.0,0.0,0.0,0.0,0.0,0.0,0.0,0.0,0.0,0.0,0.0,0.0,0.0,0.0,0.0,0.0,0.0,0.0,0.0,0.0,0.0,0.0,0.0,0.0,0.0,0.0,0.0,0.0,0.0,0.0,-2.534,0.0,0.0,0.0,0.0,0.0,0.0,0.0,0.0,0.0,0.0,0.0,0.0,0.0,0.0,0.0,0.0,0.0,0.0,0.0,0.0,0.0,0.0,0.0,0.0,0.0,0.0,0.0,0.0,0.0,0.0,0.0,0.0,0.0,0.0,0.0,0.0,0.0,0.0,0.0,0.0,-1.5284,-1.5178,-1.501,-1.4817,-1.4835,-1.48,-1.4669,-1.4007,-1.3493,-1.3395,-1.2901,0.0,0.0,0.0,0.0,0.0,0.0,0.0,0.0,0.0,0.0,0.0,0.0,0.0,0.0,0.0,0.0,0.0,0.0,0.0,0.0,0.0,0.0,0.0,0.0,0.0,0.0,0.0,0.0,0.0,0.0,0.0,0.0,0.0,0.0,0.0,0.0,0.0,0.0,0.0,0.0,0.0,0.0,0.0,0.0,0.0,0.0,0.0,0.0,0.0,0.0,0.0,0.0,0.0,-3.081,-3.1156,-3.1065,-3.1008,-3.0625,-2.994,-2.9336,-2.8139,-2.651,0.0,0.0,0.0,0.0,0.0,0.0,0.0,0.0,0.0,0.0,0.0,0.0,0.0,0.0,0.0,0.0,0.0,0.0,0.0,0.0,0.0,0.0,0.0,0.0,0.0,-1.8347,-1.822,0.0,0.0,0.0,0.0,0.0,0.0,0.0,0.0,0.0,0.0,0.0,0.0,-1.499,-1.4446,-1.412,-1.4098,-1.3705,-1.3582,-1.3968,-1.3518,-1.3044,-1.2559,-1.2826,-1.2867,0.0,0.0,0.0,0.0,0.0,0.0,0.0,0.0,0.0,0.0,0.0,0.0,0.0,0.0,0.0,0.0,0.0,0.0,0.0,0.0,0.0,0.0,0.0,0.0,0.0,0.0,0.0,0.0,0.0,0.0,0.0,0.0,-2.3684,-2.3398,0.0,0.0,0.0,0.0,0.0,0.0,0.0,0.0,0.0,0.0,0.0,0.0,0.0,0.0,-3.0908,-3.3296,-3.3777,-3.2352,-3.3779,-3.3483,-3.1709,-3.1979,-3.1867,-3.1518,-3.1459,0.0,-2.7732,-2.6194,0.0,0.0,0.0,0.0,0.0,0.0,0.0,0.0,0.0,0.0,0.0,0.0,0.0,0.0,0.0,0.0,0.0,0.0,0.0,0.0,0.0,0.0,-1.9497,-1.8918,-1.8861,-1.8709,0.0,-1.7563,-1.7522,-1.748,0.0,0.0,0.0,0.0,0.0,0.0,0.0,0.0,-1.4691,-1.4326,-1.3993,-1.3718,-1.3565,-1.3518,-1.3561,-1.3497,-1.3421,-1.3357,-1.2928,-1.3073,-1.3963,-1.3116,0.0,0.0,0.0,0.0,0.0,0.0,0.0,0.0,0.0,0.0,0.0,0.0,0.0,0.0,0.0,0.0,0.0,0.0,0.0,0.0,0.0,0.0,0.0,0.0,0.0,0.0,0.0,0.0,0.0,-2.5156,-2.5781,-2.4056,-2.5421,-2.6082,0.0,0.0,0.0,0.0,0.0,0.0,0.0,0.0,0.0,-3.1881,-3.3413,-3.4483,-3.5026,-3.691,-3.7271,-3.6192,-3.6605,-3.5802,-3.4039,-3.3947,-3.3518,-3.2867,-3.2608,-3.1607,-3.0067,-2.8259,-2.6514,-2.4843,0.0,0.0,0.0,0.0,0.0,-2.3028,-2.3292,-2.2329,0.0,0.0,0.0,0.0,0.0,0.0,0.0,0.0,0.0,0.0,0.0,0.0,0.0,-1.9682,-1.9531,-1.9474,-1.9152,-1.9008,-1.8835,0.0,-1.8985,-1.9376,-1.8966,0.0,0.0,0.0,0.0,0.0,-1.462,-1.4373,-1.4046,-1.3648,-1.3581,-1.3547,-1.348,-1.348,-1.348,-1.348,-1.3249,-1.3198,-1.3377,-1.3573,-1.377,0.0,0.0,0.0,0.0,0.0,0.0,0.0,0.0,0.0,0.0,0.0,0.0,0.0,0.0,0.0,0.0,0.0,0.0,0.0,0.0,0.0,0.0,0.0,0.0,0.0,0.0,0.0,0.0,-2.6346,-2.74,-2.4919,-2.68,-2.7568,0.0,0.0,0.0,0.0,0.0,0.0,-3.2998,-3.355,-3.4286,-3.5334,-3.6853,-3.79,-3.8474,-3.9535,-3.9746,-3.9059,-3.8509,-3.7394,-3.579,-3.5248,-3.4542,-3.3732,-3.3157,-3.2609,-3.2048,-3.0008,-2.7844,-2.5757,-2.5179,-2.4521,-2.3882,-2.3888,-2.3967,-2.4067,-2.446,-2.3388,-2.1874,-2.1819,0.0,-1.9774,-1.8697,0.0,0.0,0.0,0.0,-2.008,-1.9929,-2.0491,-2.0898,-2.0228,-2.0076,-2.0076,-2.0025,-2.0061,-1.9889,0.0,-2.0031,-2.0546,-1.9959,0.0,0.0,0.0,0.0,-1.5087,-1.4646,-1.4352,-1.4026,-1.3695,-1.3648,-1.3628,-1.3594,-1.3594,-1.3594,-1.3615,-1.3615,-1.3434,-1.307,-1.3821,-1.3927,-1.3261,0.0,0.0,0.0,0.0,0.0,0.0,0.0,0.0,0.0,0.0,0.0,0.0,0.0,0.0,0.0,0.0,0.0,0.0,0.0,0.0,0.0,0.0,0.0,0.0,0.0,0.0,0.0,0.0,0.0,-2.6234,-2.8627,0.0,0.0,0.0,0.0,-3.0757,-3.216,-3.3684,-3.5341,-3.681,-3.7686,-3.7736,-3.9157,-3.9935,-3.9999,-4.0083,-4.0021,-3.9824,-3.8962,-3.7617,-3.5802,-3.5068,-3.4429,-3.3855,-3.2998,-3.2827,-3.3014,-3.0308,-2.8734,-2.7896,-2.6642,-2.6517,-2.6965,-2.5947,-2.5488,-2.5228,-2.4135,-2.2674,-2.1335,-2.1812,-2.1926,-2.1637,-2.037,-2.0396,0.0,0.0,-2.0574,-2.091,-2.0314,-2.0722,-2.1116,-2.0424,-2.027,-2.0235,-2.0115,-2.02,-2.0235,0.0,-2.0005,-2.0036,-2.0005,0.0,-1.8527,-1.7789,-1.6528,-1.5412,-1.4699,-1.4162,-1.3821,-1.3788,-1.3788,-1.3821,-1.3874,-1.3808,-1.3841,-1.3967,-1.3927,-1.3881,-1.3914,-1.3507,-1.3556,-1.4117,-1.3672,0.0,0.0,0.0,0.0,0.0,0.0,0.0,0.0,0.0,0.0,0.0,0.0,0.0,0.0,0.0,0.0,0.0,0.0,0.0,0.0,0.0,0.0,0.0,0.0,0.0,0.0,0.0,0.0,-2.9066,-3.0709,0.0,-3.1215,-3.1133,-3.1717,-3.3136,-3.4665,-3.6371,-3.8379,-3.9478,-4.029,-4.0849,-4.1869,-4.2433,-4.2535,-4.2915,-4.2571,-4.1439,-4.086,-3.9193,-3.6619,-3.5883,-3.4803,-3.3529,-3.3092,-3.2889,-3.2749,-3.1912,-3.0532,-2.8919,-2.8311,-2.7617,-2.6957,-2.6888,-2.6388,-2.5711,-2.5257,-2.3826,-2.2118,-2.1444,-2.1084,-2.0829,-2.0373,-2.0369,-2.0599,-2.085,-2.1049,-2.1188,-2.1013,-2.1157,-2.1084,-1.9986,-2.0064,-2.023,-1.9716,-1.9962,-2.027,-2.02,-2.02,-2.0096,-1.9762,-1.8907,-1.807,-1.7525,-1.6481,-1.5681,-1.5419,-1.4889,-1.4496,-1.4496,-1.4152,-1.3947,-1.3947,-1.3947,-1.3947,-1.4,-1.3621,-1.339,-1.344,-1.2937,-1.2609,-1.2478,-1.2388,-1.2518,0.0,0.0,0.0,0.0,0.0,0.0,0.0,0.0,0.0,0.0,0.0,0.0,0.0,0.0,0.0,0.0,0.0,0.0,0.0,0.0,0.0,0.0,0.0,0.0,0.0,0.0,-3.1412,-3.1264,-3.2531,-3.335,-3.3061,-3.3272,-3.4114,-3.5802,-3.7368,-3.9123,-4.1222,-4.2036,-4.2598,-4.2977,-4.3511,-4.3803,-4.3924,-4.3797,-4.3282,-4.2381,-4.1614,-3.9884,-3.7312,-3.6439,-3.5202,-3.364,-3.3215,-3.2935,-3.2763,-3.2942,-3.1899,-3.0208,-2.9959,-2.9057,-2.7926,-2.7997,-2.7312,-2.6188,-2.5607,-2.4335,-2.2885,-2.2012,-2.1572,-2.1399,-2.1202,-2.1089,-2.1244,-2.1926,-2.1941,-2.1755,-2.1776,-2.1812,-2.147,-2.01,-2.0082,-2.0265,-1.9767,-1.998,-2.0304,-2.0304,-2.0304,-2.015,-1.9639,-1.8907,-1.8215,-1.7706,-1.678,-1.6115,-1.6128,-1.5571,-1.5132,-1.4932,-1.4719,-1.4473,-1.4105,-1.458,-1.4673,-1.4151,-1.4092,-1.3918,-1.3503,-1.3391,-1.3044,-1.2381,-1.1924,-1.1926,-1.2341,0.0,0.0,0.0,0.0,0.0,0.0,0.0,0.0,0.0,0.0,0.0,0.0,0.0,0.0,0.0,0.0,0.0,0.0,0.0,0.0,0.0,0.0,0.0,-2.7584,-2.9985,-3.2114,-3.2774,-3.4071,-3.4996,-3.5188,-3.5869,-3.6984,-3.8689,-4.0238,-4.1827,-4.3603,-4.4368,-4.4528,-4.3902,-4.3868,-4.385,-4.3903,-4.2415,-4.1904,-4.2441,-4.1019,-3.9433,-3.7746,-3.667,-3.5454,-3.4185,-3.333,-3.3005,-3.3112,-3.3256,-3.2735,-3.1766,-3.1437,-3.08,-3.0006,-2.9327,-2.825,-2.6814,-2.4916,-2.3952,-2.3506,-2.3491,-2.3569,-2.3522,-2.3017,-2.2776,-2.2827,-2.3591,-2.3239,-2.2618,-2.2586,-2.2608,-2.2212,-2.0824,-2.0426,-2.0388,-2.0357,-2.0323,-2.0304,-2.0304,-2.0304,-2.0166,-1.9762,-1.9362,-1.8898,-1.8383,-1.7456,0.0,-1.6756,-1.6222,-1.5621,-1.5025,-1.5501,-1.5417,-1.4351,-1.5774,-1.6016,-1.4436,-1.5343,-1.5451,-1.4327,-1.4802,-1.4782,-1.4038,-1.2396,-1.1485,-1.1363,0.0,0.0,0.0,0.0,0.0,0.0,0.0,0.0,0.0,0.0,0.0,0.0,0.0,0.0,0.0,0.0,0.0,0.0,0.0,0.0,0.0,0.0,-3.17,-3.1768,-3.293,-3.4292,-3.5726,-3.5858,-3.6304,-3.7535,-3.7902,-3.8554,-3.9648,-4.1101,-4.2475,-4.3637,-4.3841,-4.3966,-4.4043,-4.3477,-4.3237,-4.3373,-4.2825,-4.2176,-4.1403,-4.0764,-3.9406,-3.7463,-3.6423,-3.5399,-3.448,-3.3984,-3.3555,-3.3272,-3.3683,-3.314,-3.1883,-3.1566,-3.0676,-2.9543,-2.9227,-2.8007,-2.6233,-2.4348,-2.3955,-2.4141,-2.3693,-2.3904,-2.4318,-2.4131,-2.4068,-2.4115,-2.4302,-2.3865,-2.321,-2.277,-2.2321,-2.1616,-2.0236,-2.0202,-2.0335,-1.9787,-1.9999,-2.0304,-2.0304,-2.0304,-2.0166,-1.9762,-1.9362,-1.8936,-1.85,-1.7958,0.0,-1.7558,-1.7031,-1.6599,-1.6437,-1.6572,-1.6356,-1.5635,-1.6383,-1.6366,-1.5033,-1.4856,-1.4417,-1.369,-1.3405,-1.2941,-1.2291,-1.2165,-1.22,0.0,0.0,0.0,0.0,0.0,0.0,0.0,0.0,0.0,0.0,0.0,0.0,0.0,0.0,0.0,0.0,0.0,0.0,0.0,0.0,0.0,0.0,-3.3505,-3.5314,-3.6617,-3.6114,-3.6141,-3.7586,-3.7686,-3.8154,-3.9496,-3.9933,-4.0712,-4.1968,-4.2579,-4.3467,-4.4702,-4.4429,-4.4365,-4.4664,-4.4216,-4.3838,-4.368,-4.3252,-4.2483,-4.1427,-4.0568,-3.9375,-3.7851,-3.6519,-3.5431,0.0,-3.4034,-3.3607,-3.3309,-3.3636,-3.3077,0.0,0.0,0.0,0.0,0.0,-2.7359,-2.622,-2.4539,-2.4238,-2.4558,-2.4233,-2.4397,-2.4766,-2.4766,-2.4547,-2.4327,-2.4327,-2.3826,-2.3174,-2.2519,-2.2098,-2.1497,-2.038,-2.0313,-2.0385,-1.9911,-2.0061,-2.0304,-2.0304,0.0,0.0,-1.9762,-1.9362,-1.895,-1.8553,-1.8135,-1.7882,-1.7882,-1.7583,-1.7271,-1.7027,-1.7217,-1.7027,-1.6186,-1.7122,0.0,0.0,0.0,-1.5535,-1.4938,-1.4506,0.0,0.0,0.0,-1.3402,-1.3022,0.0,0.0,0.0,-1.3867,-1.4217,0.0,0.0,0.0,0.0,0.0,0.0,0.0,0.0,0.0,0.0,0.0,0.0,0.0,0.0,0.0,0.0,-3.6916,-3.9044,-4.1349,-3.9512,-3.822,-3.8992,-3.9563,-4.0184,-4.1081,-4.1755,-4.2892,-4.4674,-4.4235,-4.4565,-4.6206,0.0,0.0,0.0,0.0,-4.4803,-4.4027,-4.3421,-4.263,-4.1739,-4.0191,-3.9124,-3.8362,-3.6664,-3.5497,-3.469,-3.3861,-3.3425,-3.3293,-3.3361,-3.2792,-3.1858,-3.1581,-3.0624,-2.9144,-2.7242,-2.653,0.0,0.0,0.0,0.0,-2.4822,-2.4902,-2.5005,-2.5005,-2.4523,-2.4033,-2.4033,-2.3544,-2.2848,-2.2185,-2.1948,-2.1711,-2.0899,-2.061,-2.0494,-2.0407,-2.0339,-2.0304,-2.0304,-2.0036,-1.9765,-1.969,-1.9325,-1.8898,-1.8553,-1.8135,-1.7882,-1.7882,-1.7882,-1.7678,-1.7149,0.0,0.0,-1.6403,-1.7828,-1.8086,-1.6322,-1.7136,-1.7448,-1.6919,-1.6802,-1.6467,-1.591,-1.5517,-1.4681,-1.3386,-1.4124,-1.3944,-1.2899,-1.4409,-1.4574,0.0,0.0,0.0,0.0,0.0,0.0,0.0,0.0,0.0,0.0,0.0,0.0,0.0,0.0,0.0,-3.8815,-4.0239,-4.1483,-4.2935,-4.3244,-4.2961,-4.2005,-4.1324,-4.1202,-4.1946,-4.2394,-4.3284,-4.4875,-4.4858,-4.5203,-4.6241,-4.5589,0.0,-4.4527,-4.3923,-4.3233,-4.244,-4.2285,-4.1606,-4.0357,0.0,0.0,-3.7269,-3.5891,-3.4885,-3.4267,-3.4616,-3.4206,-3.3346,-3.3745,-3.2926,-3.127,-3.0497,-2.9326,-2.7966,-2.7003,-2.6333,-2.5784,-2.5023,-2.4782,-2.4822,-2.4942,-2.4966,-2.5005,-2.5005,-2.491,0.0,-2.4799,-2.427,-2.3559,-2.2864,-2.2295,-2.1711,-2.0968,-2.0628,-2.0494,-2.0494,-2.0407,-2.0304,-2.0304,-2.0364,-2.0266,-1.9765,-1.9124,-1.8592,-1.85,-1.8135,-1.7882,-1.7882,-1.7882,-1.7841,-1.7719,-1.8289,-1.8344,-1.7597,-1.833,-1.8262,-1.6905,-1.6593,-1.6403,-1.6295,-1.6244,-1.5874,-1.5127,-1.4804,-1.4595,-1.4487,-1.444,-1.4691,-1.515,-1.5492,-1.5115,0.0,0.0,0.0,0.0,0.0,0.0,0.0,0.0,0.0,0.0,0.0,-3.2885,0.0,0.0,-3.8531,-4.1087,-4.2357,-4.3557,-4.4997,-4.5335,-4.4759,-4.3069,-4.3093,-4.3296,-4.3443,-4.4303,-4.5078,-4.5637,-4.5634,-4.586,-4.6419,-4.5352,-4.4613,-4.4285,-4.3611,-4.2785,-4.1992,-4.1992,-4.1309,-3.9949,-3.8649,-3.7665,-3.6911,-3.5465,-3.4525,-3.4117,-3.415,-3.4048,-3.3751,-3.3367,-3.2408,-3.1097,-2.9896,-2.9012,-2.8273,-2.7202,-2.6623,-2.6267,-2.5264,-2.4902,-2.4886,-2.4966,-2.5005,-2.5005,-2.5005,-2.5005,-2.4926,-2.4539,-2.3939,-2.3243,-2.2564,-2.1869,-2.1252,-2.0872,-2.0628,-2.0494,-2.0475,-2.0636,-2.0742,-2.0512,-2.0631,-2.0543,-1.9682,-1.9287,-1.8961,-1.8559,-1.8135,-1.7882,-1.7882,-1.7882,-1.7882,-1.7882,-1.8194,-1.8249,-1.7909,-1.8194,-1.8113,-1.7475,-1.7163,-1.7,-1.7,-1.7,-1.6723,-1.6148,-1.602,-1.5801,-1.5558,-1.5406,-1.5532,-1.5792,-1.5792,-1.5416,0.0,0.0,0.0,0.0,0.0,0.0,0.0,0.0,-3.0677,-3.2928,-3.4347,-3.5695,-3.7356,-3.8995,-4.0722,-4.2783,-4.3955,-4.5074,-4.6444,-4.6382,-4.5492,-4.3567,-4.4503,-4.5211,-4.4876,-4.5732,-4.6378,-4.6574,-4.645,-4.6505,-4.682,-4.5492,-4.4596,-4.4285,-4.3611,-4.2785,-4.1827,-4.169,-4.0982,-3.9715,-3.8359,-3.7343,-3.67,-3.5168,-3.4264,-3.3915,-3.3646,-3.3799,-3.4194,-3.2977,-3.1966,-3.1081,-2.9832,-2.9248,-2.8963,-2.7612,-2.7137,-2.6925,-2.5629,-2.5171,-2.5195,-2.5053,-2.5005,-2.5005,-2.5005,-2.5005,-2.4894,-2.4286,-2.3623,-2.2927,-2.2264,-2.1553,-2.0968,-2.0791,-2.061,-2.054,-2.0627,-2.0972,-2.1207,-2.0865,-2.0984,-2.0808,-1.9753,-1.9704,-1.9574,-1.8681,-1.8384,-1.8235,-1.8235,-1.8126,-1.8086,-1.8086,-1.8086,-1.8086,-1.8086,-1.795,-1.7882,-1.7882,-1.7842,-1.7788,-1.7788,-1.7747,-1.7584,-1.7323,-1.7227,-1.6879,-1.6312,-1.6238,-1.6076,-1.5792,-1.5792,-1.5564,-2.4241,-2.4133,-2.4552,-2.721,-2.7457,-2.8163,0.0,0.0,-3.3952,-3.6414,-3.7484,-3.8472,-4.0142,-4.1154,-4.2503,-4.4853,-4.5364,-4.5568,-4.5863,-4.6464,-4.63,-4.4693,-4.509,-4.5552,-4.5758,-4.4778,-4.5102,-4.7372,-4.6921,-4.6889,-4.7562,-4.6803,-4.5717,-4.432,-4.3611,-4.2568,-4.1325,-4.0646,-3.9948,-3.9163,-3.6704,-3.5778,-3.615,-3.4904,-3.3953,-3.343,-3.3979,-3.4225,-3.4225,-3.3498,-3.2408,-3.1144,-3.037,-2.969,-2.9027,-2.8237,-2.7589,-2.6988,-2.6167,-2.5882,-2.5787,-2.5211,-2.5005,-2.5005,-2.5005,-2.5005,-2.4989,-2.491,-2.4349,-2.3638,-2.2943,-2.228,-2.16,-2.0952,-2.0628,-2.0665,-2.1319,-2.1399,-2.1345,-2.1449,-2.1645,-2.147,-2.0387,-2.0309,-2.0039,-1.893,-1.9173,-1.9497,-1.9497,-1.9008,-1.8711,-1.8711,-1.8711,-1.8711,-1.8711,-1.8221,-1.7882,-1.7882,-1.7611,-1.7447,-1.7447,-1.7157,-1.7002,-1.696,-1.6595,-1.6398,-1.6312,-1.5988,-1.5836,-1.5792,-1.5792,-1.5768,-2.3819,-2.5111,0.0,0.0,-2.9438,-3.1229,-3.4093,-3.5018,-3.5866,-3.8016,-3.9252,-4.0349,-4.1595,-4.2395,-4.3486,0.0,-4.5754,-4.5956,-4.6488,-4.6854,-4.6451,-4.4911,-4.449,-4.4543,-4.5042,-4.4572,-4.4443,-4.5027,-4.5596,-4.5855,-4.5717,-4.501,-4.432,-4.3698,-4.2888,-4.1848,-4.0493,-4.1257,-4.0679,-3.8788,-3.7703,-3.6936,-3.6472,-3.5315,-3.4707,-3.451,-3.4352,-3.4525,-3.4841,-3.3751,-3.2724,-3.1713,-3.0607,-2.9753,-2.8996,-2.8347,-2.7921,-2.7525,-2.6388,-2.6009,-2.5882,-2.5227,-2.5005,-2.4926,-2.4476,-2.465,-2.4847,-2.4024,-2.3828,-2.3765,-2.3054,-2.2675,-2.239,-2.209,-2.1871,-2.1806,-2.2118,-2.214,-2.2009,-2.1816,-2.1932,-2.173,-2.0619,-2.0743,-2.088,-2.0378,-1.9958,-1.97,-1.97,-1.9469,-1.9307,-1.9307,-1.8852,-1.8636,-1.8806,-1.8505,-1.8207,-1.7909,-1.7904,-1.7776,-1.7406,-1.7073,-1.6778,-1.6552,-1.6411,-1.6194,-1.5988,-1.5869,-1.5792,-1.5792,-1.5792,-1.5792,-2.4871,0.0,0.0,-2.9575,-3.1556,-3.377,-3.568,-3.6715,-3.7724,-3.9415,-4.0465,-4.1336,-4.2109,-4.2741,-4.3699,-4.5224,-4.5737,-4.6104,-4.6709,-4.6599,-4.5847,-4.4232,-4.313,-4.274,-4.3319,-4.3292,-4.3342,-4.3669,-4.4129,-4.4406,-4.4285,-4.3629,-4.3128,-4.2854,-4.2285,-4.1388,-4.0051,-4.1256,-4.0763,-3.8569,-3.8065,-3.7411,-3.6645,-3.5635,-3.5384,-3.5647,-3.511,-3.5078,-3.5284,-3.3878,-3.2787,-3.1839,-3.0433,-2.958,-2.9012,-2.8553,-2.8379,-2.8189,-2.6799,-2.6309,-2.6167,-2.529,-2.5005,-2.491,-2.4365,-2.4571,-2.4799,-2.3787,-2.367,-2.3765,-2.3054,-2.288,-2.2833,-2.2607,-2.2593,-2.2633,-2.2783,-2.2681,-2.25,-2.2207,-2.2181,-2.189,-2.09,-2.109,-2.1477,-2.164,-2.0813,-2.0229,-2.0392,-2.0102,-1.9899,-1.9899,-1.9168,-1.8785,-1.9152,-1.893,-1.8618,-1.8189,-1.8249,-1.7991,-1.7349,-1.7007,-1.6585,-1.6151,-1.6151,-1.6032,-1.5792,-1.5792,-1.5792,-1.5792,-1.5792,-1.5792,-2.8275,-2.8579,-2.9214,-3.2667,-3.3859,-3.4921,-3.7845,-3.906,-3.9939,-4.1156,-4.1209,-4.1139,-4.154,-4.2011,-4.2855,-4.4488,-4.5388,-4.5902,-4.592,-4.5259,-4.4195,-4.2561,-4.0965,-4.0123,0.0,-4.0233,-4.1387,-4.4611,-4.3166,-4.2733,-4.4199,-4.3629,-4.2819,-4.2043,-4.1992,-4.1426,-4.0199,-3.9907,-3.9329,-3.8374,-3.6667,-3.6045,-3.6279,-3.5664,-3.5742,-3.639,-3.6374,-3.5995,-3.5284,-3.3878,-3.2487,-3.1112,-2.9706,-2.9107,-2.9075,-2.9059,-2.9059,-2.89,-2.7541,-2.7083,-2.6846,-2.5464,-2.5005,-2.5005,-2.4974,-2.4989,-2.5005,-2.4958,-2.4428,-2.3765,-2.3054,-2.288,-2.2706,-2.1902,-2.2191,-2.272,-2.3258,-2.296,-2.2634,-2.2833,-2.2526,-2.203,-2.1492,-2.141,-2.1613,-2.2183,-2.1762,-2.1572,-2.2156,-2.1151,-2.0382,-2.0382,-1.9739,-1.9501,-2.0121,-1.9594,-1.9125,-1.8767,-1.849,-1.7911,-1.7119,-1.6812,-1.6365,-1.5848,-1.5836,-1.5792,-1.5792,-1.5792,-1.5792,-1.5792,-1.5792,-1.5792,-2.9113,-3.078,-3.2822,-3.542,-3.7291,-3.9032,-4.1289,-4.1168,-4.0896,-4.1707,-4.0557,-3.9564,-4.0058,-4.0233,-4.0742,-4.2101,-4.3231,-4.4107,-4.4634,-4.4693,-4.4103,-4.2488,-4.1827,0.0,0.0,0.0,0.0,-4.17,-4.1968,-4.244,-4.3525,-4.3768,-4.3785,-4.3509,-4.3026,-4.2193,-4.0945,-4.1059,-4.0326,-3.8734,-3.7671,-3.6982,-3.6589,-3.6229,-3.6552,-3.7297,-3.5896,-3.5705,-3.627,-3.4335,-3.2895,-3.1823,-3.0875,-2.9896,-2.9075,-2.9075,-2.8837,-2.8316,-2.7415,-2.6783,-2.6214,-2.5322,-2.5005,-2.4926,-2.4413,-2.4602,-2.472,-2.3322,-2.3749,-2.4255,-2.2643,-2.328,-2.4097,-2.329,-2.3537,-2.3966,-2.4079,-2.345,-2.2805,-2.2891,-2.2249,-2.1616,-2.1423,-2.1423,-2.1613,-2.221,-2.238,-2.2261,-2.1655,-2.1389,-2.1143,-2.0855,-2.0091,-1.9779,-2.0154,-1.9947,-1.9482,-1.8845,-1.8874,-1.8374,-1.7169,-1.6791,-1.6332,-1.5804,-1.5792,-1.5792,-1.5792,-1.5792,-1.5792,-1.5792,-1.5792,-1.5792,-3.1332,-3.3527,-3.5883,-3.8014,-3.9688,-4.1131,-4.2164,-4.1401,-4.0342,-3.9923,-3.8496,-3.7399,-3.7582,-3.7627,-3.814,-3.9805,-4.0599,-4.1578,-4.3065,-4.3251,-4.3008,-4.2378,-4.2047,-4.1992,0.0,0.0,0.0,-4.0853,-4.1609,-4.2216,-4.2716,-4.3475,-4.3889,-4.3889,-4.3715,-4.2977,-4.1707,-4.181,-4.0734,-3.8558,-3.7993,-3.7504,-3.7017,-3.6859,-3.7155,-3.769,-3.615,-3.5776,-3.6254,-3.4425,-3.2981,-3.1823,-3.1112,-3.0148,-2.9075,-2.9075,-2.8695,-2.8,-2.7336,-2.6625,-2.5882,-2.5227,-2.5005,-2.4926,-2.4428,-2.4602,-2.4736,-2.337,-2.3628,-2.4008,-2.2896,-2.3401,-2.4083,-2.3795,-2.4146,-2.4523,-2.4441,-2.3595,-2.2889,-2.2889,-2.2109,-2.1423,-2.1423,-2.1599,-2.174,-2.1866,-2.2506,-2.2656,-2.1931,-2.1954,-2.1798,-2.1319,-2.0723,-2.0434,-2.0478,-2.0356,-1.9991,-1.93,-1.9415,-1.8906,-1.7577,-1.7279,-1.6811,-1.6092,-1.608,-1.5984,-1.5792,-1.5792,-1.5792,-1.5792,-1.5792,-1.5792,-3.4992,-3.6673,-3.827,-4.0366,-4.1098,-4.1189,-4.0705,-3.9816,-3.842,-3.6138,-3.5224,-3.4704,0.0,0.0,-3.5307,-3.7667,-3.7915,-3.8708,-4.1415,-4.1197,-4.1121,0.0,0.0,0.0,0.0,0.0,0.0,-4.2198,0.0,-4.2026,-4.2095,-4.2854,-4.3285,-4.3285,-4.3889,-4.3605,-4.2452,-4.1972,-4.043,-3.7886,-3.7642,-3.7539,-3.7539,-3.7539,-3.7508,-3.7445,-3.6947,-3.6246,-3.5276,-3.4165,-3.2727,-3.116,-3.0496,-2.9785,-2.9075,-2.9075,-2.8695,-2.8,-2.7336,-2.6625,-2.5882,-2.5227,-2.5005,-2.5005,-2.5005,-2.5005,-2.5005,-2.4958,-2.4024,-2.3117,-2.3702,-2.3343,-2.2932,-2.346,-2.4067,-2.4457,-2.4317,-2.3551,-2.2889,-2.2844,-2.2063,-2.1423,-2.1423,-2.1884,-2.2024,-2.1323,-2.2083,-2.2764,-2.2897,-2.2738,-2.2379,-2.1732,-2.1537,-2.1289,-2.0891,-2.0838,-2.0562,-2.0003,-1.994,-1.9445,-1.8268,-1.8205,-1.7712,-1.6596,-1.6584,-1.632,-1.5792,-1.5792,-1.5792,-1.5792,-1.5792,-1.5792,-3.8094,-3.9645,-4.0704,-4.1687,-4.1893,-4.166,-4.0677,-3.822,-3.6059,-3.5706,-3.3371,-3.1544,0.0,0.0,0.0,-3.5814,-3.7694,0.0,-4.1805,-4.2224,0.0,-4.3114,0.0,-4.3864,-4.4085,-4.3595,0.0,0.0,-4.2719,-4.2492,-4.363,-4.4423,-4.4854,-4.4854,-4.3527,-4.2686,-4.2493,-4.0388,-3.8782,-3.7583,-3.7743,-3.7786,-3.7786,-3.7786,-3.7614,-3.7295,-3.6641,-3.5841,-3.492,-3.4269,-3.2876,-3.1165,-3.1016,-3.0212,-2.9075,-2.9075,-2.8695,-2.8,-2.7336,-2.6625,-2.5882,-2.5227,-2.5005,-2.5005,-2.5005,-2.5005,-2.491,-2.4334,-2.4318,-2.4239,-2.328,-2.3629,-2.4116,-2.36,-2.3971,-2.4374,-2.3867,-2.3334,-2.2799,-2.2449,-2.1841,-2.1423,-2.1423,-2.1448,-2.1403,-2.1256,-2.1672,-2.185,-2.1478,-2.2036,-2.2074,-2.1077,-2.0939,-2.069,-2.0118,-1.9914,-1.9656,-1.9291,-1.946,-1.9162,-1.8229,-1.8205,-1.7712,-1.6596,-1.6584,-1.632,-1.5792,-1.5792,-1.5792,-1.5792,-1.5792,-1.5792,-4.0629,-4.1795,-4.2443,-4.2808,-4.2323,-4.1439,-3.9986,-3.7155,-3.45,-3.3365,-3.128,0.0,-3.0089,-3.0951,0.0,0.0,0.0,0.0,-4.0104,-4.1124,-4.1993,0.0,-4.3777,0.0,-4.4672,-4.417,-4.3996,0.0,-4.3558,-4.3233,-4.3819,-4.4509,-4.4768,-4.444,-4.3335,-4.2378,-4.1608,-3.9562,-3.816,-3.748,-3.7626,-3.7727,-3.7727,-3.7524,-3.727,-3.7061,0.0,-3.5542,-3.4913,-3.4341,-3.301,-3.1383,-3.1255,-3.037,-2.9121,-2.9335,-2.917,-2.8734,-2.7895,-2.7365,-2.6792,-2.5605,-2.5208,-2.5208,-2.5208,-2.5107,-2.4926,-2.4492,-2.4444,-2.4319,-2.3755,-2.3951,-2.4217,-2.3989,-2.4244,-2.4359,-2.3824,-2.3467,-2.308,-2.2387,-2.1794,-2.1423,-2.1423,-2.1277,-2.118,-2.1131,-2.1226,-2.1231,-2.0864,-2.151,-2.1645,-2.0811,-2.0623,-2.0353,-1.977,-1.975,-1.9629,-1.9263,-1.9408,-1.9221,-1.8554,-1.8326,-1.782,-1.6991,-1.6691,-1.632,-1.5792,-1.5792,-1.5792,-1.5792,-1.5881,-1.5869,-4.2619,-4.33,-4.3578,-4.332,-4.2154,-4.0491,-3.8438,-3.5778,-3.2961,-3.0247,0.0,-2.8623,-2.8344,-2.8802,-2.996,-3.2309,0.0,-3.4673,-3.8113,-3.9437,-4.0712,-4.2663,-4.3287,-4.3885,-4.4635,-4.3651,-4.339,-4.4436,-4.417,-4.3733,-4.3249,-4.3836,-4.3734,-4.2808,-4.2887,-4.2016,-4.0113,-3.8953,-3.8081,-3.748,-3.7599,-3.7551,-3.744,-3.7093,-3.6822,-3.6565,0.0,0.0,-3.4907,-3.4246,-3.3047,-3.1549,-3.1227,-3.0307,-2.9227,-2.9661,-2.9772,-2.9599,-2.8613,-2.8345,-2.8075,-2.6297,-2.5605,-2.5519,-2.5616,-2.5349,-2.5021,-2.5132,-2.4579,-2.4123,-2.4775,-2.4366,-2.3897,-2.4449,-2.4523,-2.4317,-2.3782,-2.3583,-2.3231,-2.2333,-2.1776,-2.1423,-2.1423,-2.1277,-2.1131,-2.1033,-2.0861,-2.0725,-2.0599,-2.1036,-2.1184,-2.0655,-2.0465,-2.0089,-1.9482,-1.9867,-1.9875,-1.9485,-1.9512,-1.9356,-1.8987,-1.8554,-1.8025,-1.7424,-1.6967,-1.6392,-1.5792,-1.5836,-1.5836,-1.5792,-1.5957,-1.6044,-4.4285,-4.4389,-4.3464,-4.2014,-4.0342,-3.8219,-3.5004,-3.1931,0.0,0.0,-2.7486,-2.6887,-2.7654,-2.889,-3.0515,-3.2809,-3.4347,-3.6396,-3.9735,-4.0365,-4.106,0.0,-4.3556,-4.4161,-4.4655,0.0,0.0,0.0,0.0,0.0,-4.3197,-4.3335,-4.2621,-4.0863,-4.08,-3.991,-3.8066,-3.7777,-3.7607,-3.7539,-3.8008,-3.7801,-3.6997,-3.7394,-3.6804,-3.5489,0.0,0.0,-3.423,-3.3746,-3.2773,-3.1539,-3.0863,-3.0218,-2.9708,-2.9761,-2.9619,-2.9296,-2.8549,-2.8515,-2.8605,-2.73,-2.6274,-2.5616,-2.6308,-2.5789,-2.5132,-2.5661,-2.5329,-2.491,-2.5538,-2.5168,-2.4585,-2.4599,-2.4369,-2.3979,-2.3304,-2.2445,-2.1753,-2.1572,-2.1491,-2.1423,-2.1423,-2.118,-2.1033,-2.0997,-2.0422,-1.9965,-1.9965,-2.0494,-2.063,-2.0012,-1.9752,-1.9373,-1.8744,-1.8845,-1.8869,-1.8774,-1.8987,-1.9093,-1.8987,-1.8903,-1.8398,-1.7436,-1.7327,-1.6798,-1.5792,-1.5913,-1.5913,-1.5792,-1.6057,-1.61,-4.434,-4.431,-4.3363,-4.1871,-3.9517,-3.6901,-3.4399,0.0,0.0,0.0,-2.7471,-2.7013,-2.7601,-2.8618,0.0,-3.1916,-3.2755,-3.4449,-3.8029,-3.8626,0.0,-4.1372,-4.2508,-4.3192,0.0,0.0,0.0,0.0,0.0,0.0,-4.2558,-4.2181,-4.1561,-4.0517,-4.0134,-3.9446,-3.852,-3.7977,-3.7801,-3.7934,-3.7566,-3.7214,-3.6918,-3.6529,-3.5906,-3.5121,-3.4775,0.0,-3.373,-3.309,-3.2141,-3.1054,-3.0671,-3.0046,-2.9416,-2.9512,-2.9445,-2.9224,-2.8558,-2.8472,-2.8561,-2.8014,-2.731,-2.6783,-2.7356,-2.6747,-2.5927,-2.6414,-2.6015,-2.5485,-2.5821,-2.534,-2.4782,-2.4726,-2.4147,-2.3628,-2.3717,-2.251,-2.1505,-2.1817,-2.1627,-2.1423,-2.1423,-2.118,-2.0997,-2.0997,-2.0321,-1.9798,-1.9798,-1.9499,-1.9239,-1.8922,-1.8885,-1.8723,-1.8325,-1.8698,-1.8908,-1.8786,-1.8934,-1.8987,-1.8987,-1.8458,-1.7941,-1.7424,-1.6871,-1.6474,-1.6324,-1.609,-1.6146,-1.6426,-1.6323,-1.6262,-4.3826,-4.3829,-4.3138,-4.1787,-3.8825,-3.5825,-3.4121,-3.0701,0.0,-2.7792,-2.7345,-2.7043,-2.7438,-2.8012,-2.8965,0.0,-3.0956,-3.2212,-3.5826,-3.6811,-3.793,0.0,0.0,0.0,0.0,0.0,0.0,0.0,0.0,0.0,-4.1764,-4.1246,-4.0791,-4.0498,-3.9964,-3.9454,-3.9053,-3.8348,-3.8075,-3.8221,-3.71,-3.6572,-3.6566,-3.5647,-3.4991,-3.4635,-3.405,0.0,0.0,-3.2492,-3.158,-3.0712,-3.0505,-3.0012,-2.9361,-2.9551,-2.9563,-2.9365,-2.8836,-2.8644,-2.861,-2.8454,-2.8066,-2.7748,-2.8151,-2.7562,-2.6784,-2.72,-2.6587,-2.5932,-2.6262,-2.5727,-2.5073,-2.5066,-2.4319,-2.3727,-2.4197,-2.2908,-2.1749,-2.221,-2.1817,-2.1423,-2.1423,-2.118,-2.1033,-2.1033,-2.0258,-1.9643,-1.9643,-1.8685,-1.7995,-1.7995,-1.8193,-1.8272,-1.8228,-1.8826,-1.9112,-1.8855,-1.8927,-1.8891,-1.8662,-1.7965,-1.7533,-1.7291,-1.6471,-1.6239,-1.6666,-1.6296,-1.6352,-1.6815,-1.656,-1.6392,-4.339,-4.3559,-4.2608,-4.0902,-3.7752,-3.4556,-3.2337,0.0,-2.6279,-2.6454,-2.5708,-2.5426,-2.6662,-2.6856,-2.7561,-2.9843,0.0,-3.2126,-3.5166,-3.6724,-3.8268,0.0,0.0,0.0,0.0,0.0,0.0,0.0,0.0,0.0,0.0,-4.1145,-4.0697,-3.9901,-3.9817,-3.9242,-3.804,-3.8237,-3.8107,-3.7583,-3.7351,-3.6621,-3.5514,-3.5525,-3.4708,-3.321,0.0,0.0,0.0,-3.1973,-3.1512,-3.1176,-3.0506,-3.0168,-3.013,-3.0517,-3.0348,-2.9867,-2.9505,-2.9403,-2.9299,-2.8627,-2.7894,-2.7379,-2.8092,-2.7737,-2.7189,-2.781,-2.7036,-2.6293,-2.7573,-2.6909,-2.5905,-2.5877,-2.5422,-2.4761,-2.4184,-2.3091,-2.2237,-2.2291,-2.1817,-2.1423,-2.1423,-2.1277,-2.118,-2.118,-2.0105,-1.9291,-1.9291,-1.8398,-1.7755,-1.7755,-1.7965,-1.8239,-1.8506,-1.8875,-1.8778,-1.8313,-1.8722,-1.8554,-1.7592,-1.8041,-1.7836,-1.6888,-1.6883,-1.6671,-1.6274,-1.6343,-1.6343,-1.6274,-1.6417,-1.6479,-4.0883,-4.1853,-4.1876,-4.0516,-3.7176,-3.3859,-3.2452,0.0,-2.6506,-2.6926,-2.644,-2.6128,-2.6692,-2.6753,-2.7098,-2.8272,0.0,0.0,-3.2098,0.0,0.0,0.0,0.0,0.0,0.0,0.0,0.0,0.0,0.0,0.0,0.0,-4.0787,-4.0648,-4.0104,-3.985,-3.9312,-3.8455,-3.7978,-3.7616,-3.7359,-3.611,-3.5243,-3.4738,-3.4691,-3.3971,-3.2755,0.0,0.0,0.0,-3.117,-3.0728,-3.0391,-3.026,-3.0087,-2.9935,-2.979,-2.943,-2.9042,-2.8556,-2.8237,-2.7945,-2.752,-2.7226,-2.7175,-2.8053,-2.7874,-2.7422,-2.7486,-2.7099,-2.6799,-2.7352,-2.6751,-2.6057,-2.6269,-2.5093,-2.3917,-2.3817,-2.302,-2.2196,-2.1844,-2.1871,-2.1844,-2.1477,-2.1277,-2.118,-2.118,-2.022,-1.9448,-1.9448,-1.856,-1.7915,-1.7767,-1.7838,-1.7996,-1.8101,-1.835,-1.8289,-1.776,-1.8292,-1.8307,-1.7557,-1.752,-1.7347,-1.6907,-1.6634,-1.6613,-1.6801,-1.6511,-1.6579,-1.6903,-1.6641,-1.6479,-3.8464,-3.9933,-4.0546,-3.9622,-3.6257,-3.2911,0.0,0.0,-2.6126,-2.6842,-2.644,-2.6127,-2.6738,-2.6735,-2.6784,-2.7313,0.0,-2.7609,-2.9691,-2.9964,0.0,0.0,0.0,0.0,0.0,0.0,0.0,0.0,0.0,0.0,0.0,-4.006,-3.9915,-3.9559,-3.9261,-3.8681,-3.7932,-3.7335,-3.6912,-3.6731,-3.5077,-3.4162,-3.3887,-3.3559,-3.2912,-3.1982,0.0,0.0,0.0,-3.0658,-3.03,-3.0027,-3.0215,-2.9956,-2.9513,-2.9475,-2.8959,-2.8246,-2.7972,-2.7533,-2.6996,-2.6657,-2.6504,-2.6608,-2.7268,-2.7452,-2.74,-2.7169,-2.7099,-2.7099,-2.7099,-2.672,-2.6372,-2.6667,-2.5319,-2.3984,-2.3908,-2.3175,-2.2437,-2.2007,-2.2142,-2.2169,-2.1749,-2.1583,-2.148,-2.1304,-2.0472,-1.9811,-1.9656,-1.8922,-1.8254,-1.7843,-1.7706,-1.7662,-1.7662,-1.7864,-1.7736,-1.7255,-1.7787,-1.7885,-1.7192,-1.7088,-1.6983,-1.6811,-1.6473,-1.6504,-1.701,-1.6623,-1.6691,-1.7112,-1.671,-1.6522,-3.6566,-3.7919,-3.8504,-3.7956,-3.4769,-3.1541,0.0,-2.7394,-2.462,-2.5605,-2.4969,-2.4778,-2.665,-2.656,-2.6472,-2.7282,-2.7738,0.0,-2.8752,0.0,0.0,0.0,0.0,0.0,0.0,0.0,0.0,0.0,0.0,0.0,0.0,-3.8877,-3.8368,-3.7851,-3.7708,-3.7053,-3.5844,-3.6147,-3.6001,-3.5394,-3.4675,-3.3801,-3.2888,-3.217,-3.1344,0.0,0.0,0.0,0.0,-3.0526,-3.0526,-3.0468,-3.0485,-2.9789,-2.8971,-3.0079,-2.9321,-2.7778,-2.8174,-2.7831,-2.7068,-2.6319,-2.5835,-2.5519,-2.5519,-2.6254,-2.7099,-2.7099,-2.7099,-2.7099,-2.7099,-2.7099,-2.7127,-2.7273,-2.6565,-2.5601,-2.4609,-2.373,-2.3133,-2.3144,-2.2726,-2.2305,-2.2291,-2.2291,-2.2101,-2.1505,-2.0822,-2.0271,-1.985,-1.9436,-1.8823,-1.7894,-1.7587,-1.7424,-1.7424,-1.7424,-1.7243,-1.6827,-1.7326,-1.7203,-1.6262,-1.6831,-1.6945,-1.6417,-1.6479,-1.6479,-1.6522,-1.6522,-1.6522,-1.6522,-1.6522,-1.6522,-3.2682,-3.4293,-3.5539,-3.5522,-3.3016,-3.042,-3.0266,-2.7824,-2.5625,-2.5765,-2.5378,-2.5117,-2.5392,-2.5146,-2.5028,-2.5433,-2.589,0.0,0.0,0.0,0.0,0.0,0.0,0.0,0.0,0.0,0.0,0.0,0.0,0.0,0.0,-3.8078,-3.782,-3.7818,-3.7384,-3.6732,-3.5828,-3.492,-3.459,-3.462,-3.3133,-3.2262,-3.1851,-3.1722,0.0,0.0,0.0,0.0,0.0,-3.0027,-2.9903,-2.9764,-2.9764,-2.9254,-2.854,-2.8737,-2.8289,-2.7561,-2.754,-2.7081,-2.6402,-2.6043,-2.5647,-2.5339,-2.5208,-2.5719,-2.6356,-2.6356,-2.6356,-2.6356,-2.6356,-2.6356,-2.6362,-2.6397,-2.5469,-2.4341,-2.3714,-2.3345,-2.2881,-2.2133,-2.2156,-2.2169,-2.1776,-2.1596,-2.1493,-2.1402,-2.0921,-2.0409,-2.0118,-1.9708,-1.9096,-1.8151,-1.7998,-1.7713,-1.7013,-1.6999,-1.6827,-1.6438,-1.6974,-1.7214,-1.6888,-1.7197,-1.7255,-1.7067,-1.7099,-1.6911,-1.6522,-1.6522,-1.6522,-1.6522,-1.6522,-1.6522,-2.9775,-3.1341,-3.2687,-3.2911,-3.1087,0.0,-2.9101,-2.7373,-2.5754,-2.5656,-2.5448,-2.5193,-2.504,-2.4725,-2.4517,-2.4526,-2.4908,-2.5245,0.0,0.0,0.0,0.0,0.0,0.0,0.0,0.0,0.0,0.0,0.0,0.0,0.0,0.0,-3.601,-3.5896,-3.5756,-3.5134,-3.4085,-3.3208,-3.2898,-3.3119,-3.1773,-3.0986,-3.0664,-3.0538,0.0,0.0,0.0,0.0,0.0,-2.9302,-2.9153,-2.8787,-2.8963,-2.8549,-2.7877,-2.7968,-2.7487,-2.6792,-2.6923,-2.6529,-2.5868,-2.5701,-2.5416,-2.5162,-2.5045,-2.5306,-2.5614,-2.5614,-2.5532,-2.5513,-2.5764,-2.5456,-2.5149,-2.5385,-2.445,-2.3435,-2.292,-2.2794,-2.263,-2.2188,-2.24,-2.2566,-2.2366,-2.2099,-2.1965,-2.2015,-2.1362,-2.0801,-2.0566,-2.0104,-1.9405,-1.8304,-1.8244,-1.7921,-1.6947,-1.702,-1.7054,-1.6905,-1.7074,-1.7327,-1.7572,-1.7443,-1.7488,-1.7689,-1.7689,-1.7413,-1.6848,-1.6622,-1.6522,-1.6522,-1.6522,-1.6522,0.0,-2.8997,-2.9976,-3.0152,0.0,-2.7937,-2.7482,-2.6188,0.0,-2.5277,-2.5116,-2.5032,-2.5348,-2.5035,-2.4653,-2.4444,-2.458,0.0,0.0,0.0,0.0,0.0,0.0,0.0,0.0,0.0,0.0,0.0,0.0,0.0,0.0,0.0,-3.3296,-3.2573,-3.2978,-3.2546,-3.1223,-3.116,-3.116,-3.1158,-3.0581,-2.9971,-2.9366,-2.8783,0.0,0.0,0.0,0.0,0.0,-2.8388,-2.8181,-2.7672,-2.8118,-2.7729,-2.7016,-2.7617,-2.6934,-2.574,-2.6328,-2.6118,-2.553,-2.5317,-2.5123,-2.4966,-2.4926,-2.4966,-2.4966,-2.4966,-2.4773,-2.4673,-2.5261,-2.46,-2.3835,-2.4343,-2.3776,-2.2976,-2.2381,-2.2283,-2.2518,-2.3076,-2.3148,-2.331,-2.3743,-2.346,-2.3068,-2.2963,-2.2109,-2.1372,-2.1095,-2.0553,-1.9724,-1.8467,-1.8406,-1.8093,-1.7257,-1.7457,-1.7701,-1.7865,-1.7513,-1.756,-1.8179,-1.7752,-1.7739,-1.8254,-1.8191,-1.7877,-1.7313,-1.6773,-1.6522,-1.6522,-1.6522,-1.6522,-2.5876,0.0,-2.7656,-2.7827,-2.712,-2.634,0.0,-2.5597,-2.4864,-2.4616,-2.4413,-2.4342,-2.4481,-2.3657,-2.3289,-2.418,-2.41,-2.4127,0.0,0.0,0.0,0.0,0.0,0.0,0.0,0.0,0.0,0.0,0.0,0.0,0.0,0.0,-3.2168,-3.0162,-3.088,-3.1246,-3.1207,-3.0686,-3.0588,-3.0892,-2.9893,-2.929,-2.9068,-2.8079,0.0,0.0,0.0,0.0,-2.6789,-2.6907,-2.6915,-2.687,-2.6964,-2.6749,-2.6412,-2.6578,-2.6376,-2.6023,-2.5842,-2.5551,-2.5192,-2.4695,-2.4589,-2.463,-2.4369,-2.4467,-2.462,-2.462,-2.4687,-2.4815,-2.476,-2.4882,-2.4848,-2.4323,-2.43,-2.4119,-2.3183,-2.3238,-2.3423,-2.3226,-2.2848,-2.2661,-2.3283,-2.2825,-2.2369,-2.2331,-2.2076,-2.1629,-2.0807,-2.0398,-1.9978,-1.9339,-1.9004,-1.8855,-1.8829,-1.824,-1.7616,-1.6917,-1.7555,-1.8019,-1.8191,-1.848,-1.8694,-1.8832,-1.8003,-1.73,-1.6722,-1.6584,-1.6522,-1.6522,-1.6522,-1.6522,-2.5357,-2.6029,-2.6783,-2.6858,-2.6515,-2.6179,-2.6167,-2.5568,-2.4874,-2.4458,-2.43,-2.4097,-2.3647,-2.3024,-2.2826,-2.3553,-2.3687,0.0,0.0,0.0,0.0,0.0,0.0,0.0,0.0,0.0,0.0,0.0,0.0,0.0,0.0,0.0,-2.9972,-2.8624,-2.8931,-2.9348,-2.9769,-2.9863,-2.9864,-2.984,-2.8889,-2.8342,-2.8069,-2.7005,0.0,0.0,0.0,0.0,-2.5605,-2.5828,-2.5869,-2.5853,-2.6008,-2.6118,-2.622,-2.622,-2.6079,-2.5848,-2.5594,-2.5198,-2.4768,-2.4461,-2.4328,-2.4322,-2.4444,-2.4253,-2.4036,-2.4234,-2.4197,-2.4119,-2.4236,-2.4002,-2.3774,-2.3826,-2.3552,-2.316,-2.2825,-2.2768,-2.2757,-2.2804,-2.2536,-2.2444,-2.3028,-2.2609,-2.2248,-2.2479,-2.2113,-2.1636,-2.118,-2.059,-2.0029,-1.9656,-1.9135,-1.8788,-1.8657,-1.8288,-1.7947,-1.7643,-1.7765,-1.8053,-1.8555,-1.8631,-1.8769,-1.902,-1.794,-1.7225,-1.6911,-1.6647,-1.6522,-1.6522,-1.6522,-1.6522,-2.5476,-2.6177,-2.6812,-2.6477,-2.6487,-2.6516,-2.6328,-2.5671,-2.4961,-2.457,-2.4388,-2.4042,-2.3119,-2.2833,0.0,0.0,0.0,0.0,0.0,0.0,0.0,0.0,0.0,0.0,0.0,0.0,0.0,0.0,0.0,0.0,0.0,0.0,0.0,-2.7348,-2.7403,-2.7546,-2.7806,-2.877,-2.8926,-2.8358,-2.7796,-2.7242,-2.6758,-2.5858,-2.5465,0.0,0.0,0.0,-2.4462,-2.4904,-2.4963,-2.4942,-2.5275,-2.5738,-2.622,-2.622,-2.5954,-2.5594,-2.5427,-2.4831,-2.4128,-2.421,-2.4105,-2.4031,-2.4475,-2.4044,-2.345,-2.3754,-2.3525,-2.3285,-2.3833,-2.3107,-2.2484,-2.343,-2.2797,-2.2047,-2.2373,-2.2129,-2.1952,-2.2373,-2.2322,-2.2355,-2.2857,-2.2506,-2.2342,-2.2697,-2.2072,-2.156,-2.1623,-2.0784,-2.0131,-1.9862,-1.9156,-1.856,-1.8239,-1.8196,-1.8344,-1.8869,-1.8028,-1.7965,-1.8933,-1.8471,-1.8409,-1.8845,-1.7797,-1.728,-1.725,-1.676,-1.6522,-1.6522,-1.6522,-1.6522,-2.5511,-2.6575,-2.7363,-2.5861,-2.5966,-2.6224,-2.5494,-2.5114,-2.4828,-2.4491,-2.4137,0.0,0.0,-2.2993,-2.2439,0.0,0.0,0.0,0.0,0.0,0.0,0.0,0.0,0.0,0.0,0.0,0.0,0.0,0.0,0.0,0.0,0.0,0.0,-2.5725,-2.6766,-2.7125,-2.6589,-2.7499,-2.7609,-2.6894,-2.6845,-2.6441,-2.5781,-2.5076,-2.4731,0.0,0.0,-2.3849,-2.3759,-2.3846,-2.4265,-2.4902,-2.4981,-2.5476,-2.622,-2.622,-2.6168,-2.5954,-2.5121,-2.3952,-2.2892,-2.3301,-2.3566,-2.3625,-2.3452,-2.3393,-2.3363,-2.3142,-2.3264,-2.3545,-2.3893,-2.4068,-2.413,-2.4055,-2.4218,-2.4204,-2.3243,-2.3365,-2.358,-2.3121,-2.2362,-2.1995,-2.2578,-2.2194,-2.1784,-2.1746,-2.1974,-2.197,-2.1368,-2.0638,-2.0372,-2.0894,-1.9838,-1.9364,-1.9964,-1.8803,-1.8122,-1.8329,-1.8179,-1.8355,-1.8945,-1.8523,-1.8314,-1.8342,-1.7294,-1.6683,-1.6647,-1.6559,-1.6522,-1.6522,-1.6522,-1.6522,-2.551,-2.6337,-2.6872,-2.5582,-2.6102,-2.6696,-2.5796,-2.5091,-2.4551,-2.4247,0.0,0.0,0.0,0.0,-2.3296,-2.406,0.0,0.0,0.0,0.0,0.0,0.0,0.0,0.0,0.0,0.0,0.0,0.0,0.0,0.0,0.0,0.0,0.0,0.0,-2.4842,-2.5132,-2.492,-2.5243,-2.5799,-2.6582,-2.6137,-2.5632,-2.5046,-2.4029,-2.3759,-2.4029,0.0,-2.3295,-2.3595,-2.3595,-2.4131,-2.4902,-2.4902,-2.5438,-2.6168,-2.5917,-2.5663,-2.54,-2.4664,-2.3739,-2.2919,-2.2745,-2.2951,-2.3187,-2.3023,-2.3068,-2.3156,-2.3201,-2.3026,-2.2904,-2.3407,-2.3206,-2.2975,-2.3485,-2.335,-2.3011,-2.278,-2.2698,-2.2474,-2.1987,-2.1555,-2.1259,-2.1264,-2.1043,-2.0875,-2.081,-2.1205,-2.1362,-2.1046,-2.0858,-2.0845,-2.1175,-1.9853,-1.9128,-1.9503,-1.8101,-1.7242,-1.7287,-1.7865,-1.8317,-1.8581,-1.8374,-1.8105,-1.781,-1.6962,-1.641,-1.613,-1.6386,-1.6635,-1.6919,-1.6666,-1.6685,-2.5495,-2.6004,-2.6311,-2.5403,-2.6135,-2.6863,-2.6076,-2.5232,-2.4561,-2.4413,0.0,0.0,0.0,-2.3157,0.0,0.0,0.0,0.0,0.0,0.0,0.0,0.0,0.0,0.0,0.0,0.0,0.0,0.0,0.0,0.0,0.0,0.0,0.0,0.0,-2.3345,-2.3551,-2.3702,-2.3448,-2.4212,-2.5951,-2.5242,-2.4704,-2.4358,-2.3206,-2.3011,-2.3565,-2.2936,-2.3026,-2.3595,-2.3595,-2.4048,-2.4759,-2.4863,-2.5346,-2.599,-2.5631,-2.5102,-2.4469,-2.3999,-2.3408,-2.2759,-2.2131,-2.228,-2.2671,-2.2671,-2.2786,-2.2944,-2.3281,-2.2786,-2.2325,-2.2874,-2.2324,-2.1898,-2.2931,-2.2471,-2.1925,-2.2237,-2.1952,-2.1426,-2.0822,-2.0646,-2.0459,-2.0016,-1.9978,-1.9965,-2.008,-2.0459,-2.0795,-2.0795,-2.0922,-2.1035,-2.1179,-1.9721,-1.8662,-1.85,-1.739,-1.666,-1.6522,-1.7451,-1.8016,-1.8016,-1.8034,-1.7858,-1.7448,-1.6825,-1.6308,-1.5944,-1.6188,-1.6584,-1.7123,-1.6606,-1.666,-2.5495,-2.5909,-2.6135,-2.5306,-2.5608,-2.6016,-2.5703,-2.543,-2.5275,-2.5439,0.0,0.0,0.0,-2.3026,0.0,0.0,0.0,0.0,0.0,0.0,0.0,0.0,0.0,0.0,0.0,0.0,0.0,0.0,0.0,0.0,0.0,0.0,0.0,0.0,0.0,-2.3702,-2.3702,-2.3154,-2.3243,-2.4004,-2.3623,-2.3529,-2.3655,-2.2981,-2.3011,-2.3565,-2.2936,-2.3026,-2.3595,-2.3595,-2.3909,-2.4385,-2.4759,-2.5176,-2.5556,-2.5503,-2.463,-2.3396,-2.3172,-2.2389,-2.148,-2.1172,-2.1525,-2.2062,-2.2062,-2.2483,-2.2902,-2.2946,-2.2598,-2.2278,-2.2651,-2.2478,-2.2414,-2.3026,-2.3121,-2.2904,-2.2414,-2.2278,-2.1861,-2.0688,-2.0144,-1.9747,-1.9331,-1.9279,-1.9344,-1.9617,-2.0308,-2.0795,-2.0795,-2.054,-2.0595,-2.1147,-1.9653,-1.8311,-1.7566,-1.7408,-1.7087,-1.6559,-1.7099,-1.7438,-1.7438,-1.754,-1.7497,-1.7327,-1.6854,-1.6523,-1.6359,-1.6015,-1.6092,-1.6537,-1.6053,-1.6132,-2.551,-2.5524,-2.549,-2.5176,-2.5456,-2.5772,-2.5579,-2.5287,-2.5014,-2.4882,-2.4796,0.0,0.0,0.0,0.0,0.0,0.0,0.0,0.0,0.0,0.0,0.0,0.0,0.0,0.0,0.0,0.0,0.0,0.0,0.0,0.0,0.0,0.0,0.0,0.0,-2.2439,-2.2516,-2.1889,-2.1866,-2.2492,-2.2363,-2.2335,-2.2398,-2.1754,-2.2039,-2.2981,-2.2353,-2.2652,-2.3595,-2.3595,-2.4006,-2.4719,-2.5137,-2.5148,-2.4908,-2.4596,-2.3698,-2.2601,-2.2446,-2.1884,-2.1164,-2.0607,-2.1148,-2.1917,-2.1496,-2.2106,-2.2843,-2.2752,-2.2463,-2.224,-2.237,-2.209,-2.1817,-2.2047,-2.2051,-2.2047,-2.1803,-2.165,-2.1286,-2.0233,-1.985,-1.95,-1.8922,-1.8815,-1.8922,-1.9198,-1.9708,-2.0105,-2.0156,-2.0722,-2.1076,-2.0955,-1.9632,-1.8201,-1.693,-1.6848,-1.6911,-1.7049,-1.7589,-1.789,-1.789,-1.8225,-1.8253,-1.7943,-1.7347,-1.6838,-1.648,-1.6282,-1.6612,-1.7466,-1.6646,-1.6886,-2.5439,-2.51,-2.4755,-2.4989,-2.5181,-2.5374,-2.5605,-2.5619,-2.5446,-2.5015,-2.4787,-2.4496,-2.3827,0.0,0.0,0.0,0.0,0.0,0.0,0.0,0.0,0.0,0.0,0.0,0.0,0.0,0.0,0.0,0.0,0.0,0.0,0.0,0.0,0.0,0.0,-2.1664,-2.1631,-2.1071,-2.0866,-2.1047,-2.0926,-2.1173,-2.168,-2.1021,-2.1321,-2.2338,-2.1889,-2.2308,-2.3325,-2.3691,-2.4271,-2.491,-2.4958,-2.4665,-2.4154,-2.3784,-2.2941,-2.1979,-2.1792,-2.1396,-2.083,-2.0491,-2.0843,-2.1351,-2.1075,-2.1686,-2.2449,-2.2314,-2.2168,-2.2091,-2.2091,-2.1746,-2.1423,-2.1423,-2.1423,-2.1375,-2.1375,-2.1277,-2.0871,-1.9798,-1.9552,-1.9239,-1.856,-1.8452,-1.8513,-1.8718,-1.9098,-1.9407,-1.9547,-2.0276,-2.0656,-2.0178,-1.9198,-1.8057,-1.6816,-1.6607,-1.6773,-1.735,-1.7903,-1.8204,-1.8251,-1.878,-1.8859,-1.8371,-1.8077,-1.7541,-1.6786,-1.6554,-1.6733,-1.7334,-1.6802,-1.7147,-2.5272,-2.4667,-2.3984,-2.4715,-2.4712,-2.4764,-2.5769,-2.6487,-2.6783,-2.6147,-2.492,-2.3654,-2.2622,0.0,0.0,0.0,0.0,0.0,0.0,0.0,0.0,0.0,0.0,0.0,0.0,0.0,0.0,0.0,0.0,0.0,0.0,0.0,0.0,0.0,0.0,0.0,-2.1309,-2.0942,-2.0379,-1.9579,-1.9258,-2.0,-2.165,-2.1006,-2.1066,-2.1695,-2.1695,-2.2069,-2.2768,-2.386,-2.4517,-2.4823,-2.409,-2.3576,-2.3264,-2.313,-2.2415,-2.1465,-2.1248,-2.0743,-2.0264,-2.0811,-2.0582,-2.0204,-2.0799,-2.1269,-2.1568,-2.1568,-2.1693,-2.1779,-2.1793,-2.1602,-2.1361,-2.1423,-2.1423,-2.1375,-2.1229,-2.118,-2.0772,-1.9436,-1.9186,-1.8975,-1.8247,-1.8084,-1.8128,-1.8187,-1.8559,-1.8846,-1.8982,-1.9063,-1.899,-1.8749,-1.8253,-1.777,-1.7251,-1.6778,-1.6773,-1.735,-1.7903,-1.8251,-1.8393,-1.8913,-1.8995,-1.8485,-1.8946,-1.8578,-1.7379,-1.6808,-1.6232,-1.5712,-1.63,-1.6606,-2.5389,-2.5108,-2.4782,-2.4769,-2.5064,0.0,0.0,-2.5231,0.0,0.0,-2.4406,-2.3289,-2.3473,0.0,0.0,0.0,0.0,0.0,0.0,0.0,0.0,0.0,0.0,0.0,0.0,0.0,0.0,0.0,0.0,0.0,0.0,0.0,0.0,0.0,0.0,0.0,-2.1309,-2.0224,-1.9451,-1.8981,-1.8584,-1.8757,-1.9444,-1.9555,-1.9932,-2.0602,-2.1367,-2.2069,-2.2765,-2.3606,-2.406,-2.4097,-2.3401,-2.2577,-2.178,-2.1409,-2.0712,-1.9912,-1.9497,-1.9382,-1.942,-1.9269,-1.9606,-2.0132,-2.0306,-2.0649,-2.0984,-2.0984,-2.0751,-2.0633,-2.1061,-2.0785,-2.05,-2.1218,-2.1166,-2.1006,-2.118,-2.0623,-1.9914,-1.9291,-1.891,-1.859,-1.8193,-1.8302,-1.8513,-1.873,-1.8927,-1.9278,-1.9913,-1.9322,-1.8878,-1.8932,-1.8017,-1.7255,-1.6748,-1.6565,-1.6936,-1.7903,-1.8116,-1.838,-1.8818,-1.9459,-1.9483,-1.8839,-1.8655,-1.8124,-1.7257,-1.6714,-1.652,-1.6776,-1.6565,-1.6868,-2.4394,-2.4188,-2.4119,-2.4515,-2.4845,-2.4891,-2.4266,0.0,0.0,0.0,0.0,-2.2992,0.0,0.0,0.0,0.0,0.0,0.0,0.0,0.0,0.0,0.0,0.0,0.0,0.0,0.0,0.0,0.0,0.0,0.0,0.0,0.0,0.0,0.0,0.0,0.0,-2.0284,-1.9437,-1.8616,-1.7851,-1.7841,-1.7782,-1.7699,-1.8669,-1.9319,-1.9788,-2.0976,-2.2064,-2.2987,-2.2964,-2.3159,-2.3386,-2.2473,-2.163,-2.0887,-2.0495,-1.9792,-1.9017,-1.8953,-1.875,-1.8662,-1.9091,-1.935,-1.9545,-1.9976,-2.0163,-2.0202,-2.0202,-2.0047,-1.9918,-2.0125,-2.0047,-2.0083,-2.097,-2.0759,-2.0459,-2.0523,-1.9952,-1.9344,-1.9016,-1.8845,-1.8697,-1.8344,-1.8655,-1.8903,-1.8803,-1.8763,-1.8882,-1.9406,-1.8917,-1.8557,-1.8597,-1.7826,-1.7149,-1.6791,-1.6809,-1.725,-1.8141,-1.8405,-1.8781,-1.9309,-1.9762,-1.972,-1.9186,-1.8845,-1.819,-1.7257,-1.6899,-1.6701,-1.6609,-1.6678,-1.7015,-2.2924,-2.2628,-2.2647,-2.4036,-2.4266,0.0,-2.3277,-2.3846,-2.4431,-2.4156,0.0,0.0,0.0,0.0,0.0,0.0,0.0,0.0,0.0,0.0,0.0,0.0,0.0,0.0,0.0,0.0,0.0,0.0,0.0,0.0,0.0,0.0,0.0,0.0,0.0,0.0,-1.8708,-1.8586,-1.7866,0.0,-1.7118,-1.703,-1.6441,-1.8218,-1.913,-1.9367,-2.06,-2.1987,-2.3243,-2.2109,-2.2047,-2.2551,-2.1445,-2.0744,-2.033,-2.0114,-1.9401,-1.8584,-1.9027,-1.8617,-1.8058,-1.9628,-1.9402,-1.8705,-1.9695,-1.9724,-1.9346,-1.9305,-1.9432,-1.9435,-1.9091,-1.939,-1.986,-2.0486,-2.0219,-1.9722,-1.9531,-1.9322,-1.9004,-1.8573,-1.8821,-1.9028,-1.8762,-1.9121,-1.9263,-1.8682,-1.8387,-1.8221,-1.8174,-1.8244,-1.8194,-1.8028,-1.767,-1.7327,-1.7167,-1.7313,-1.7614,-1.8179,-1.8719,-1.9258,-1.9786,-1.9875,-1.9708,-1.9267,-1.9121,-1.8471,-1.7335,-1.7213,-1.6674,-1.5763,-1.6695,-1.6873,-2.3705,-2.3452,-2.3248,-2.3386,-2.3958,-2.43,-2.3583,-2.3676,-2.3801,-2.3399,-2.3114,0.0,0.0,0.0,0.0,0.0,0.0,0.0,0.0,0.0,0.0,0.0,0.0,0.0,0.0,0.0,0.0,0.0,0.0,0.0,0.0,0.0,0.0,0.0,0.0,-1.8826,-1.8708,-1.7654,-1.6749,0.0,-1.6467,-1.6509,-1.6234,-1.7894,-1.9409,-2.0755,-2.0805,-2.1603,-2.2841,-2.1698,-2.1389,-2.1523,-2.0528,-1.973,-1.9137,-1.8984,-1.8534,-1.7922,-1.7732,-1.7746,-1.7882,-1.8222,-1.8408,-1.8606,-1.9161,-1.9114,-1.8882,-1.8739,-1.8438,-1.8177,-1.8402,-1.8402,-1.848,-1.9082,-1.9446,-1.947,-1.8791,-1.868,-1.8643,-1.8343,-1.8541,-1.8869,-1.9319,-1.9683,-1.9902,-1.9952,-1.9938,-1.9761,-1.9447,-1.9046,-1.8631,-1.8219,-1.7685,-1.7194,-1.6701,-1.7093,-1.7614,-1.8179,-1.8719,-1.9258,-1.9786,-1.95,-1.9069,-1.8417,-1.7984,-1.739,-1.6591,-1.6591,-1.6482,-1.6229,-1.6492,-1.6539,-2.2987,-2.3092,-2.3516,-2.3564,0.0,-2.4078,-2.3616,-2.339,-2.3175,-2.2841,0.0,0.0,0.0,0.0,0.0,0.0,0.0,0.0,0.0,0.0,0.0,0.0,0.0,0.0,0.0,0.0,0.0,0.0,0.0,0.0,0.0,0.0,0.0,0.0,-1.8162,-1.7809,-1.7713,-1.6855,-1.6069,-1.5332,-1.5789,-1.627,-1.6821,-1.8153,-1.9471,-2.0676,-2.0512,-2.0911,-2.1616,-2.0901,-2.0605,-2.0543,-1.9641,-1.9058,-1.8669,-1.8344,-1.7908,-1.7475,-1.7282,-1.7186,-1.7256,-1.7666,-1.7948,-1.8266,-1.8898,-1.895,-1.876,-1.8542,-1.8228,-1.7882,-1.7663,-1.7677,-1.7747,-1.7761,-1.8432,-1.8915,-1.8289,-1.8243,-1.83,-1.816,-1.8574,-1.9174,-1.9773,-2.0283,-2.0633,-2.0845,-2.0424,-2.0057,-1.986,-1.9105,-1.8421,-1.7823,-1.754,-1.7198,-1.6904,-1.7394,-1.798,-1.8532,-1.917,-1.9585,-1.9798,-1.9384,-1.8857,-1.8093,-1.7875,-1.7279,-1.6384,-1.6384,-1.6384,-1.6384,-1.6384,-1.6384,-2.2256,-2.2631,-2.3532,-2.3805,-2.3866,0.0,-2.3598,-2.3177,-2.2746,0.0,0.0,0.0,0.0,0.0,0.0,0.0,0.0,0.0,0.0,0.0,0.0,0.0,0.0,0.0,0.0,0.0,0.0,0.0,0.0,0.0,0.0,0.0,-1.8128,-1.7704,-1.7199,-1.6815,-1.6596,-1.6285,-1.5667,-1.4777,-1.5221,-1.6028,-1.726,-1.8364,-1.9339,-2.01,-2.0085,-2.0174,-2.0364,-2.0085,-1.9909,-1.9737,-1.8907,-1.8553,-1.8422,-1.7868,-1.7434,-1.7073,-1.7073,-1.6808,-1.6637,-1.7421,-1.776,-1.7908,-1.8669,-1.8822,-1.8669,-1.8372,-1.8175,-1.7855,-1.6989,-1.7142,-1.737,-1.6757,-1.7502,-1.8277,-1.7851,-1.7961,-1.813,-1.7938,-1.8717,-1.9611,-2.0244,-2.0899,-2.1356,-2.1403,-2.0628,-2.0,-1.9807,-1.8938,-1.8092,-1.7471,-1.7361,-1.7276,-1.7132,-1.7757,-1.8333,-1.8859,-1.9585,-1.9978,-1.9862,-1.954,-1.9117,-1.8491,-1.8219,-1.759,-1.6591,-1.6514,-1.6456,-1.6384,-1.6384,-1.6384,-2.3659,0.0,-2.3254,0.0,-2.3526,-2.3996,0.0,0.0,-2.2873,0.0,0.0,0.0,0.0,0.0,0.0,0.0,0.0,0.0,0.0,0.0,0.0,0.0,0.0,0.0,0.0,0.0,0.0,0.0,0.0,0.0,0.0,-1.7776,-1.7652,-1.7687,-1.7027,-1.6649,-1.6596,-1.608,-1.5448,-1.4641,-1.4923,-1.541,-1.6086,-1.7424,-1.8823,-2.008,-1.969,-1.9696,-1.9934,-1.9566,-1.9435,-1.9398,-1.8784,-1.8344,-1.8028,-1.7475,-1.6976,-1.6607,-1.6607,-1.6565,-1.6607,-1.7115,-1.7516,-1.7828,-1.7948,-1.8226,-1.8383,-1.7639,-1.7449,-1.7271,-1.657,-1.6766,-1.7086,-1.6711,-1.7087,-1.7555,-1.7483,-1.7929,-1.8246,-1.7738,-1.8614,-1.9748,-2.0855,-2.1523,-2.1778,-2.1445,-2.1301,-2.086,-1.994,-1.9275,-1.8642,-1.8058,-1.7604,-1.7111,-1.655,-1.7494,-1.8157,-1.8359,-1.9408,-2.0029,-2.0118,-2.008,-2.0024,-1.9897,-1.8623,-1.7685,-1.7279,-1.7038,-1.6757,-1.6384,-1.6384,-1.6384,-2.4082,-2.3308,-2.2724,0.0,-2.3162,-2.3393,-2.3498,0.0,0.0,0.0,0.0,0.0,0.0,0.0,0.0,0.0,0.0,0.0,0.0,0.0,0.0,0.0,0.0,0.0,0.0,0.0,0.0,0.0,0.0,0.0,-1.8517,-1.7939,-1.7698,-1.7856,-1.7043,-1.6596,-1.6596,-1.5996,-1.5285,-1.4483,-1.4599,-1.499,-1.5597,-1.652,-1.7641,-1.8788,-1.8868,-1.9095,-1.9398,-1.8928,-1.8819,-1.8822,-1.8305,-1.7868,-1.7475,-1.6976,-1.6693,-1.6522,-1.6522,-1.6522,-1.6595,-1.731,-1.7516,-1.7557,-1.8028,-1.8147,-1.7988,-1.7435,-1.7312,-1.7146,-1.6471,-1.6486,-1.6626,-1.6592,-1.6338,-1.6338,-1.7255,-1.7975,-1.8458,-1.8695,-1.94,-2.0226,-2.1172,-2.1696,-2.1973,-2.1885,-2.1575,-2.1126,-2.0359,-1.95,-1.8785,-1.8154,-1.7599,-1.7122,-1.6846,-1.7421,-1.809,-1.8758,-1.9428,-2.0065,-2.0681,-2.0772,-2.0976,-2.131,-1.9554,-1.8532,-1.8311,-1.7786,-1.7251,-1.6757,-1.6757,-1.6612,-2.4215,0.0,-2.2876,-2.2831,-2.3014,-2.3157,0.0,0.0,0.0,0.0,0.0,0.0,0.0,0.0,0.0,0.0,0.0,0.0,0.0,0.0,0.0,0.0,0.0,0.0,0.0,0.0,0.0,0.0,0.0,0.0,-1.8853,-1.8076,-1.7766,-1.7983,-1.7093,-1.6596,-1.6596,-1.5754,-1.4968,-1.4278,-1.4158,-1.4415,-1.4999,-1.5667,-1.6423,-1.7299,-1.7923,-1.8329,-1.8593,-1.836,-1.8251,-1.8212,-1.7933,-1.7557,-1.7157,-1.668,-1.6522,-1.6522,-1.6522,-1.6565,-1.6778,-1.7434,-1.7598,-1.7598,-1.8028,-1.7988,-1.7707,-1.716,-1.7076,-1.6993,-1.6355,-1.6238,-1.6337,-1.6375,-1.5762,-1.5545,-1.6915,-1.7642,-1.8298,-1.9069,-1.9495,-2.0007,-2.0785,-2.1403,-2.1729,-2.1741,-2.1527,-2.1121,-2.0315,-1.9349,-1.8543,-1.7974,-1.7357,-1.6989,-1.7045,-1.7346,-1.7897,-1.8804,-1.9344,-2.001,-2.0947,-2.125,-2.1692,-2.246,-2.0641,-1.9587,-1.9349,-1.8735,-1.8025,-1.7272,-1.7098,-1.687,0.0,-2.4372,0.0,-2.251,-2.3135,0.0,0.0,0.0,0.0,0.0,0.0,0.0,0.0,0.0,0.0,0.0,0.0,0.0,0.0,0.0,0.0,0.0,0.0,0.0,0.0,0.0,0.0,0.0,0.0,0.0,-1.8085,-1.7702,-1.7662,-1.7983,-1.7093,-1.6596,-1.6596,-1.5241,-1.4342,-1.3934,-1.3484,-1.3442,-1.3801,-1.4809,-1.5468,-1.5872,-1.6833,-1.7272,-1.7359,-1.7954,-1.7949,-1.7586,-1.773,-1.7557,-1.7157,-1.668,-1.6522,-1.6522,-1.6522,-1.6778,-1.7157,-1.724,-1.7787,-1.8305,-1.7516,-1.7516,-1.7585,-1.6565,-1.6479,-1.6582,-1.6001,-1.6076,-1.6238,-1.5905,-1.5549,-1.5509,-1.6197,-1.6799,-1.7411,-1.8136,-1.81,-1.8302,-1.9497,-2.0458,-2.0912,-2.0538,-2.1016,-2.0842,-1.9269,-1.8558,-1.7963,-1.7386,-1.6807,-1.6477,-1.6627,-1.719,-1.7634,-1.7952,-1.8963,-1.9918,-2.0693,-2.1197,-2.2034,-2.3145,-2.1873,-2.0842,-2.0214,-1.9837,-1.904,-1.7924,-1.7303,-1.6966,0.0,0.0,0.0,-2.22,-2.1967,-2.1986,0.0,0.0,0.0,0.0,0.0,0.0,0.0,0.0,0.0,0.0,0.0,0.0,0.0,0.0,0.0,0.0,0.0,0.0,0.0,0.0,0.0,0.0,0.0,0.0,-1.8017,-1.7873,-1.7873,-1.8,-1.7093,-1.627,-1.5579,-1.4613,-1.4,-1.3769,-1.3391,-1.3493,-1.4092,-1.4471,-1.5008,-1.5648,-1.5879,-1.6445,-1.7151,-1.6761,-1.6578,-1.651,-1.6367,-1.6075,-1.5745,-1.5897,-1.5994,-1.6086,-1.6735,-1.7073,-1.7282,-1.7828,-1.8028,-1.7988,-1.7679,-1.7516,-1.7227,-1.6448,-1.6275,-1.6306,-1.5881,-1.5869,-1.5812,-1.5142,-1.5395,-1.573,-1.5441,-1.5798,-1.6597,-1.7939,-1.8283,-1.8655,-1.9469,-1.9795,-1.9964,-1.9925,-2.0154,-1.9791,-1.8252,-1.8059,-1.7736,-1.6877,-1.6343,-1.6114,-1.6161,-1.6218,-1.6606,-1.7379,-1.7907,-1.9095,-2.1129,-2.1386,-2.2197,-2.3772,-2.3321,-2.2427,-2.1113,-2.0139,-1.9169,-1.826,-1.7688,-1.7265,-2.4216,0.0,0.0,0.0,0.0,-2.0979,0.0,0.0,0.0,0.0,0.0,0.0,0.0,0.0,0.0,0.0,0.0,0.0,0.0,0.0,0.0,0.0,0.0,0.0,0.0,0.0,0.0,0.0,0.0,0.0,-1.8268,-1.7986,-1.7737,-1.7542,-1.6783,-1.5879,-1.4845,-1.4214,-1.3769,-1.3514,-1.3288,-1.3607,-1.43,-1.43,-1.4732,-1.5492,-1.5358,-1.5823,-1.6597,-1.5962,-1.5716,-1.5708,-1.5779,-1.5556,-1.5216,-1.5768,-1.5969,-1.6103,-1.6902,-1.7282,-1.7516,-1.8266,-1.8383,-1.8187,-1.7868,-1.7598,-1.7227,-1.6448,-1.62,-1.6156,-1.5881,-1.5836,-1.5691,-1.5006,-1.5395,-1.5822,-1.529,-1.5614,-1.6315,-1.7405,-1.7935,-1.8336,-1.8739,-1.9015,-1.921,-1.9346,-1.9456,-1.9046,-1.769,-1.7686,-1.7326,-1.6052,-1.5904,-1.5816,-1.57,-1.5642,-1.5979,-1.6933,-1.7246,-1.8562,-2.1113,-2.1387,-2.2324,-2.4099,-2.3865,-2.3173,-2.1916,-2.0794,-1.9738,-1.8664,-1.8009,-1.7409,0.0,0.0,0.0,0.0,0.0,0.0,0.0,0.0,0.0,0.0,0.0,0.0,0.0,0.0,0.0,0.0,0.0,0.0,0.0,0.0,0.0,0.0,0.0,0.0,0.0,0.0,0.0,0.0,0.0,-1.7926,-1.8757,-1.7993,-1.7257,-1.6623,-1.6184,-1.5506,-1.4501,-1.4084,-1.3648,-1.3198,-1.3198,-1.3594,-1.43,-1.4332,-1.4669,-1.5313,-1.5313,-1.5418,-1.5595,-1.5638,-1.5432,-1.5173,-1.6006,-1.6046,-1.5718,-1.6271,-1.6471,-1.6514,-1.7021,-1.7422,-1.7827,-1.8302,-1.8741,-1.8921,-1.804,-1.7774,-1.7585,-1.6522,-1.62,-1.6156,-1.5881,-1.5913,-1.5913,-1.5591,-1.5546,-1.568,-1.5788,-1.6152,-1.6505,-1.6492,-1.6863,-1.7199,-1.7199,-1.8066,-1.8758,-1.8767,-1.8872,-1.8596,-1.7569,-1.733,-1.6621,-1.5007,-1.5452,-1.57,-1.5225,-1.541,-1.5826,-1.6513,-1.7034,-1.8339,-2.0535,-2.1151,-2.2255,-2.4015,-2.3458,-2.2967,-2.2592,-2.1892,-2.0771,-1.933,-1.8217,-1.7253,-2.3299,0.0,0.0,0.0,0.0,0.0,0.0,0.0,0.0,0.0,0.0,0.0,0.0,0.0,0.0,0.0,0.0,0.0,0.0,0.0,0.0,0.0,0.0,0.0,0.0,0.0,0.0,0.0,-1.8209,-1.8767,-1.9001,-1.8691,-1.7897,-1.657,-1.5762,-1.5049,-1.4438,-1.3735,-1.3323,-1.3198,-1.3459,-1.3815,-1.4319,-1.469,-1.512,-1.5536,-1.5536,-1.5418,-1.521,-1.4854,-1.4629,-1.4546,-1.4663,-1.4663,-1.4614,-1.5128,-1.5329,-1.5436,-1.611,-1.6413,-1.6637,-1.732,-1.7949,-1.8339,-1.7777,-1.7646,-1.7585,-1.685,-1.6337,-1.6044,-1.5957,-1.5957,-1.5957,-1.5635,-1.5856,-1.612,-1.5832,-1.6186,-1.6511,-1.6504,-1.6863,-1.7199,-1.7199,-1.7455,-1.7655,-1.7643,-1.7422,-1.702,-1.6373,-1.6554,-1.6299,-1.5222,-1.5372,-1.542,-1.5079,-1.4911,-1.4902,-1.5235,-1.5816,-1.6859,-1.8414,-1.9956,-2.1371,-2.2673,-2.3456,-2.3173,-2.1865,-2.1215,-2.0526,-1.9824,-1.8396,-1.7358,0.0,0.0,0.0,0.0,0.0,0.0,-1.7587,-1.7866,0.0,0.0,0.0,0.0,0.0,0.0,0.0,0.0,0.0,0.0,0.0,0.0,0.0,0.0,0.0,0.0,0.0,0.0,0.0,0.0,-1.9123,-1.9464,-1.9464,-1.9613,-1.8847,-1.7011,-1.6185,-1.5338,-1.4406,-1.3735,-1.3425,-1.3425,-1.3615,-1.4032,-1.4627,-1.4667,-1.5023,-1.5595,-1.5284,-1.5096,-1.4937,-1.4497,-1.4189,-1.4047,-1.4085,-1.4085,-1.4148,-1.4702,-1.4916,-1.5018,-1.5731,-1.601,-1.6131,-1.6947,-1.7664,-1.8094,-1.7525,-1.76,-1.7733,-1.6934,-1.6337,-1.5988,-1.5988,-1.6088,-1.6132,-1.5988,-1.6163,-1.6392,-1.6151,-1.6293,-1.6522,-1.6522,-1.6735,-1.6905,-1.6905,-1.6905,-1.6927,-1.6941,-1.6556,-1.6172,-1.5864,-1.6023,-1.5764,-1.47,-1.4984,-1.4893,-1.4249,-1.413,-1.4189,-1.446,-1.5128,-1.6123,-1.752,-1.9218,-2.0568,-2.1448,-2.2647,-2.2491,-2.1037,-2.1037,-2.0426,-1.9329,-1.8249,-1.7481,0.0,0.0,0.0,0.0,0.0,0.0,-1.5285,-1.5666,-1.5643,0.0,0.0,0.0,0.0,0.0,0.0,0.0,0.0,0.0,0.0,0.0,0.0,0.0,0.0,0.0,0.0,0.0,-1.8713,-1.9934,-2.012,-2.0179,-2.017,-2.0585,-1.981,-1.7669,-1.6998,-1.5943,-1.442,-1.3967,-1.3735,-1.3715,-1.3769,-1.4264,-1.5047,-1.4515,-1.4732,-1.5521,-1.4931,-1.4689,-1.4714,-1.4319,-1.398,-1.3734,-1.4001,-1.4085,-1.4148,-1.4639,-1.4815,-1.4917,-1.5571,-1.582,-1.594,-1.6732,-1.7456,-1.7942,-1.7302,-1.7559,-1.7868,-1.6765,-1.6219,-1.5988,-1.6032,-1.6219,-1.6392,-1.6392,-1.6479,-1.6522,-1.6522,-1.6522,-1.6466,-1.6423,-1.6423,-1.6423,-1.6423,-1.638,-1.6367,-1.6426,-1.5999,-1.5718,-1.5835,-1.5712,-1.5205,-1.4044,-1.4492,-1.441,-1.3164,-1.3338,-1.3683,-1.4034,-1.4697,-1.5733,-1.7212,-1.8623,-1.9705,-2.0342,-2.1265,-2.1271,-2.018,-2.1014,-2.0407,-1.8371,-1.7988,-1.7686,0.0,0.0,0.0,0.0,0.0,0.0,-1.7181,-1.7389,-1.7197,0.0,0.0,0.0,0.0,0.0,0.0,0.0,0.0,0.0,0.0,0.0,0.0,0.0,0.0,0.0,0.0,-1.8626,-1.9232,-2.0018,-2.0881,-2.13,-2.1139,-2.0955,-1.9833,-1.7597,-1.6879,-1.5802,-1.4319,-1.4222,-1.4013,-1.3702,-1.4305,-1.4686,-1.4873,-1.5168,-1.5316,-1.5358,-1.511,-1.4762,-1.4365,-1.3702,-1.3535,-1.3734,-1.4001,-1.4085,-1.4097,-1.4211,-1.4249,-1.4295,-1.4519,-1.4626,-1.4771,-1.5444,-1.6362,-1.7078,-1.6675,-1.6948,-1.7199,-1.6337,-1.6032,-1.6032,-1.6262,-1.6349,-1.6392,-1.6479,-1.6479,-1.6522,-1.6522,-1.6522,-1.638,-1.602,-1.592,-1.592,-1.592,-1.5623,-1.5357,-1.5371,-1.4983,-1.4949,-1.5633,-1.5403,-1.5029,-1.4743,-1.4787,-1.4469,-1.3511,-1.345,-1.339,-1.3224,-1.3881,-1.4506,-1.5096,-1.699,-1.8469,-1.9445,-2.0007,-2.0059,-1.9599,-2.0145,-1.9716,-1.8382,-1.8437,-1.8291,0.0,0.0,0.0,-1.8553,0.0,0.0,0.0,-1.589,-1.5445,0.0,0.0,0.0,0.0,0.0,0.0,0.0,0.0,0.0,0.0,0.0,0.0,0.0,0.0,0.0,0.0,-1.928,-2.0213,-2.1361,-2.2044,-2.227,-2.196,-2.1295,-2.0146,-1.8543,-1.738,-1.6195,-1.5003,-1.4695,-1.4497,-1.441,-1.4769,-1.515,-1.5536,-1.5024,-1.5015,-1.5345,-1.4501,-1.3982,-1.3735,-1.3353,-1.3079,-1.2908,-1.3047,-1.3348,-1.3647,-1.3444,-1.3492,-1.3667,-1.392,-1.398,-1.4092,-1.4637,-1.5538,-1.6352,-1.6064,-1.6389,-1.6778,-1.6337,-1.6219,-1.6262,-1.6392,-1.6491,-1.6577,-1.6705,-1.6693,-1.6705,-1.662,-1.662,-1.6436,-1.5876,-1.5623,-1.5445,-1.5445,-1.5232,-1.5017,-1.4789,-1.4558,-1.454,-1.4956,-1.5007,-1.4817,-1.4391,-1.4585,-1.4231,-1.3155,-1.3033,-1.292,-1.2674,-1.3338,-1.402,-1.4693,-1.6524,-1.8002,-1.9112,-1.9066,-1.8892,-1.852,-1.8998,-1.8922,-1.8328,-1.8365,-1.8385,0.0,0.0,0.0,0.0,0.0,-1.6519,0.0,0.0,0.0,-1.2244,0.0,0.0,0.0,0.0,0.0,0.0,0.0,0.0,0.0,0.0,0.0,0.0,0.0,0.0,0.0,-1.9941,-2.1161,-2.2695,-2.2874,-2.2845,-2.2642,-2.1661,-2.0603,-1.9468,-1.8037,-1.6741,-1.558,-1.5208,-1.5043,-1.5107,-1.5211,-1.5608,-1.6145,-1.4897,-1.4707,-1.5316,-1.387,-1.3219,-1.3216,-1.2975,-1.2555,-1.2113,-1.2174,-1.2544,-1.3047,-1.2826,-1.2943,-1.3267,-1.3581,-1.3715,-1.3782,-1.4157,-1.4964,-1.5737,-1.5748,-1.6051,-1.6423,-1.6479,-1.6436,-1.6411,-1.6384,-1.6456,-1.6596,-1.6722,-1.6632,-1.6594,-1.6583,-1.6553,-1.6328,-1.5644,-1.5297,-1.5062,-1.4971,-1.488,-1.4686,-1.428,-1.4186,-1.4158,-1.4302,-1.4471,-1.436,-1.3866,-1.4041,-1.3793,-1.2674,-1.256,-1.2436,-1.2243,-1.2842,-1.3639,-1.4435,-1.6248,-1.776,-1.8989,-1.8416,-1.7955,-1.7606,-1.8081,-1.8257,-1.815,-1.827,-1.8511,0.0,0.0,0.0,0.0,-1.6698,0.0,0.0,0.0,-1.4419,-1.4111,0.0,0.0,0.0,0.0,0.0,0.0,0.0,0.0,0.0,0.0,0.0,0.0,0.0,0.0,0.0,0.0,-2.1532,-2.2709,-2.2479,-2.2521,-2.3003,-2.2283,-2.1076,-1.9281,-1.857,-1.7243,-1.5176,-1.5639,-1.5594,-1.5107,-1.5652,-1.5839,-1.5767,-1.5589,-1.5345,-1.5029,-1.4101,-1.3579,-1.3216,-1.2115,-1.1847,-1.215,-1.2425,-1.2603,-1.2708,-1.3012,-1.3163,-1.3267,-1.3581,-1.3715,-1.3782,-1.4157,-1.466,-1.5274,-1.6144,-1.625,-1.6132,-1.6349,-1.6436,-1.6409,-1.6002,-1.597,-1.6105,-1.6105,-1.5721,-1.553,-1.599,-1.6011,-1.5657,-1.472,-1.4842,-1.4971,-1.4558,-1.4093,-1.3752,-1.3716,-1.3314,-1.332,-1.4192,-1.3506,-1.3153,-1.3716,-1.3442,-1.3033,-1.2658,-1.2428,-1.2182,-1.1864,-1.2236,-1.2621,-1.3005,-1.5279,-1.7175,-1.8607,-1.8093,-1.7575,-1.7232,-1.7626,-1.7843,-1.8071,-1.8966,-1.9318,0.0,0.0,0.0,0.0,0.0,0.0,-1.4798,0.0,-1.4038,0.0,0.0,0.0,0.0,0.0,0.0,0.0,0.0,0.0,0.0,0.0,0.0,0.0,0.0,0.0,0.0,0.0,0.0,0.0,0.0,-2.1601,-2.1598,-2.0645,-1.9673,-1.8747,-1.7715,-1.68,-1.5991,-1.5977,-1.5981,-1.5907,-1.616,-1.6258,-1.6215,-1.5458,-1.4993,-1.4772,-1.3446,-1.2629,-1.214,-1.1457,-1.0943,-1.0723,-1.1345,-1.2018,-1.2603,-1.2579,-1.2838,-1.3232,-1.3357,-1.3425,-1.3527,-1.4297,-1.4675,-1.5026,-1.6026,-1.6083,-1.5865,-1.5961,-1.6099,-1.6084,-1.5605,-1.5826,-1.6033,-1.5789,-1.5517,-1.5414,-1.5582,-1.5799,-1.5815,-1.4965,-1.5049,-1.5051,-1.4512,-1.3952,-1.3621,-1.3621,-1.342,-1.3288,-1.342,-1.325,-1.3118,-1.2943,-1.298,-1.2865,-1.2589,-1.2498,-1.2243,-1.1747,-1.2414,-1.3127,-1.3846,-1.5733,-1.7153,-1.8041,-1.7666,-1.745,-1.7346,-1.7709,-1.8102,-1.8564,-1.9073,-1.9426,-1.8223,0.0,0.0,0.0,0.0,0.0,0.0,0.0,0.0,0.0,0.0,0.0,0.0,0.0,0.0,0.0,0.0,0.0,0.0,0.0,0.0,0.0,0.0,0.0,0.0,0.0,0.0,0.0,-2.0717,-2.0655,-2.0701,-1.9628,-1.8779,-1.8345,-1.7261,-1.6622,-1.6473,-1.6325,-1.634,-1.6554,-1.6581,-1.6512,-1.6336,-1.5379,-1.4747,-1.4247,-1.2811,-1.185,-1.1254,-1.0733,-1.0167,-0.9658,-1.0447,-1.1319,-1.2126,-1.221,-1.2579,-1.3047,-1.3163,-1.3298,-1.3599,-1.4597,-1.4958,-1.5107,-1.5733,-1.5825,-1.5732,-1.5461,-1.5621,-1.5716,-1.507,-1.5261,-1.5505,-1.5081,-1.4825,-1.4711,-1.4802,-1.5195,-1.5284,-1.4545,-1.4763,-1.4824,-1.4106,-1.3763,-1.3621,-1.3621,-1.3467,-1.3314,-1.3064,-1.2947,-1.2739,-1.2447,-1.2504,-1.2539,-1.2437,-1.2504,-1.2243,-1.1622,-1.2201,-1.3233,-1.4551,-1.5699,-1.6745,-1.7678,-1.7374,-1.7324,-1.7533,-1.7968,-1.8459,-1.8966,-1.9285,-1.9598,0.0,0.0,0.0,-1.4924,0.0,0.0,0.0,0.0,-1.2066,0.0,0.0,0.0,0.0,0.0,0.0,-0.9665,0.0,0.0,0.0,0.0,0.0,0.0,0.0,0.0,0.0,0.0,0.0,-1.9688,-1.9383,-1.9755,-2.1121,-2.0267,-1.9266,-1.8134,-1.7816,-1.7183,-1.6207,-1.6596,-1.6763,-1.6696,-1.6763,-1.6443,-1.5823,-1.5651,-1.4791,-1.3377,-1.2494,-1.1687,-1.0929,-1.0031,-0.9619,-0.9658,-1.0118,-1.0582,-1.1105,-1.2162,-1.2603,-1.2673,-1.3047,-1.3584,-1.4249,-1.5169,-1.5558,-1.5586,-1.5252,-1.5532,-1.5788,-1.49,-1.5079,-1.5253,-1.4225,-1.4074,-1.4049,-1.368,-1.3059,-1.2758,-1.341,-1.367,-1.3535,-1.2738,-1.3574,-1.4128,-1.3111,-1.332,-1.3621,-1.3621,-1.316,-1.3016,-1.3515,-1.2264,-1.1676,-1.2513,-1.1948,-1.1703,-1.2003,-1.2171,-1.212,-1.1622,-1.1247,-1.211,-1.448,-1.456,-1.553,-1.7678,-1.7133,-1.7133,-1.7688,-1.8354,-1.8839,-1.9219,-1.9695,-1.9987,0.0,0.0,-1.5208,-1.4569,0.0,0.0,0.0,0.0,0.0,0.0,0.0,0.0,0.0,0.0,-0.907,-0.8825,-0.8881,0.0,0.0,0.0,0.0,0.0,0.0,0.0,0.0,0.0,0.0,-1.8882,-1.9151,-1.9321,0.0,-1.8805,-1.8046,-1.7072,-1.7167,-1.694,-1.6258,-1.6712,-1.685,-1.6696,-1.6507,-1.6099,-1.5506,-1.4701,-1.3788,-1.283,-1.1768,-1.0853,-1.0041,-0.946,-0.9208,-0.9248,-0.9667,-1.0281,-1.1035,-1.1663,-1.2431,-1.3301,-1.4076,-1.4475,-1.4752,-1.552,-1.58,-1.5822,-1.5807,-1.5536,-1.5061,-1.4389,-1.4198,-1.3996,-1.3228,-1.3301,-1.3435,-1.295,-1.2591,-1.2519,-1.3038,-1.3529,-1.3726,-1.3351,-1.3925,-1.4233,-1.354,-1.3542,-1.3621,-1.3621,-1.3467,-1.3122,-1.2589,-1.2107,-1.171,-1.1578,-1.1307,-1.1296,-1.1638,-1.1338,-1.1135,-1.1226,-1.1281,-1.2166,-1.4038,-1.4515,-1.5565,-1.7342,-1.6926,-1.7217,-1.828,-1.8468,-1.8975,-1.9695,-1.9933,-2.0074,-1.6928,-1.6036,0.0,-1.4569,-1.4748,0.0,-1.3939,0.0,0.0,0.0,0.0,0.0,0.0,0.0,0.0,-0.8807,-0.9082,0.0,0.0,-1.2738,0.0,0.0,0.0,0.0,0.0,0.0,-1.8116,-1.8463,-1.8724,-1.8757,0.0,0.0,-1.7572,-1.7035,-1.6917,-1.6839,-1.6768,-1.676,-1.6644,-1.6454,-1.6013,-1.5388,-1.4539,-1.3638,-1.2677,-1.1712,-1.0816,-1.004,-0.9372,-0.8967,-0.8856,-0.9014,-0.9596,-1.0302,-1.101,-1.1566,-1.2586,-1.3893,-1.4912,-1.5257,-1.5345,-1.5831,-1.6007,-1.5978,-1.5586,-1.5199,-1.4759,-1.404,-1.3647,-1.3359,-1.2753,-1.2718,-1.2668,-1.2146,-1.1968,-1.2019,-1.2517,-1.2867,-1.3098,-1.3208,-1.3619,-1.3844,-1.3474,-1.3542,-1.3621,-1.3621,-1.3621,-1.3266,-1.2393,-1.2098,-1.1758,-1.1149,-1.0915,-1.0903,-1.118,-1.0642,-1.0526,-1.1142,-1.1399,-1.2296,-1.4031,-1.4678,-1.5723,-1.7301,-1.6869,-1.7381,-1.8839,-1.8569,-1.9076,-2.0129,-2.027,-2.0205]},{"header":{"parameterUnit":"m.s-1","parameterCategory":1,"la1":30.6,"la2":29.2853,"lo1":-89.7004,"lo2":-87.6739,"dy":0.0162,"dx":0.0183,"nx":112,"ny":82,"refTime":"2023-08-15T18:00:00:Z","depth":0,"parameterNumber":3,"parameterNumberName":"V-component_of_WINDS"},"data":[0.0,0.0,0.0,0.0,0.0,0.0,0.0,0.0,0.0,0.0,0.0,0.0,0.0,0.0,0.0,0.0,0.0,0.0,0.0,0.0,0.0,0.0,0.0,0.0,0.0,0.0,0.0,0.0,0.0,0.0,0.0,0.0,0.0,0.0,0.0,0.0,0.0,0.0,0.0,0.0,0.0,0.0,0.0,0.0,0.0,0.0,0.0,0.0,0.0,0.0,0.0,0.0,0.0,0.0,0.0,0.0,0.0,0.0,0.0,0.0,0.0,0.0,0.0,0.0,0.0,0.0,0.0,0.0,0.0,0.0,0.0,0.0,0.0,0.0,0.0,0.0,0.0,0.0,0.0,0.0,0.0,0.0,0.0,0.0,0.0,0.0,0.0,0.0,0.0,0.0,-1.5646,-1.7949,-2.1141,-2.2667,-2.1699,-2.1808,-2.0429,-1.6989,0.0,0.0,0.0,0.0,0.0,0.0,0.0,0.0,0.0,0.0,0.0,0.0,0.0,0.0,0.0,0.0,0.0,0.0,0.0,0.0,0.0,0.0,0.0,0.0,0.0,0.0,0.0,0.0,0.0,0.0,0.0,0.0,0.0,0.0,0.0,0.0,0.0,0.0,0.0,0.0,0.0,0.0,0.0,0.0,0.0,0.0,0.0,0.0,0.0,0.0,0.0,0.0,0.0,0.0,0.0,0.0,0.0,0.0,0.0,0.0,0.0,0.0,0.0,0.0,0.0,0.0,0.0,0.0,0.0,0.0,0.0,0.0,0.0,0.0,0.0,0.0,0.0,0.0,0.0,0.0,0.0,0.0,0.0,0.0,0.0,0.0,0.0,0.0,0.0,0.0,0.0,0.0,0.0,0.0,0.0,0.0,0.0,0.0,0.0,0.0,0.0,0.0,0.0,0.0,-1.4771,-1.8324,-2.0966,-2.1943,-2.047,-1.912,-1.7738,-1.6211,0.0,0.0,0.0,0.0,0.0,0.0,0.0,0.0,0.0,0.0,0.0,0.0,0.0,0.0,0.0,0.0,0.0,0.0,0.0,0.0,0.0,0.0,0.0,0.0,0.0,0.0,0.0,0.0,0.0,0.0,0.0,0.0,0.0,0.0,0.0,0.0,0.0,0.0,0.0,0.0,0.0,0.0,0.0,0.0,0.0,0.0,0.0,0.0,0.0,0.0,0.0,0.0,0.0,0.0,0.0,0.0,0.0,0.0,0.0,0.0,0.0,0.0,0.0,0.0,0.0,0.0,0.0,0.0,0.0,0.0,0.0,0.0,0.0,0.0,0.0,0.0,0.0,0.0,0.0,0.0,0.0,0.0,0.0,0.0,0.0,0.0,0.0,0.0,0.0,0.0,0.0,0.0,0.0,0.0,0.0,0.0,0.0,0.0,0.0,0.0,0.0,0.0,0.0,-1.4685,-1.6344,-1.9585,-2.0823,-2.0951,-1.9856,-1.8454,-1.7135,-1.6012,-1.66,0.0,0.0,0.0,0.0,0.0,0.0,0.0,0.0,0.0,0.0,0.0,0.0,0.0,0.0,0.0,0.0,0.0,0.0,0.0,0.0,0.0,0.0,0.0,0.0,0.0,0.0,0.0,0.0,0.0,0.0,0.0,0.0,0.0,0.0,0.0,0.0,0.0,0.0,0.0,0.0,0.0,0.0,0.0,0.0,0.0,0.0,0.0,0.0,0.0,0.0,0.0,0.0,0.0,0.0,0.0,0.0,0.0,0.0,0.0,0.0,0.0,0.0,0.0,0.0,0.0,0.0,0.0,0.0,0.0,0.0,0.0,0.0,0.0,0.0,0.0,0.0,0.0,0.0,0.0,0.0,0.0,0.0,0.0,0.0,0.0,0.0,0.0,0.0,0.0,0.0,0.0,0.0,0.0,0.0,0.0,0.0,0.0,0.0,0.0,0.0,0.0,0.0,-1.6387,-1.7718,-1.9826,-2.0194,-1.9982,-1.914,-1.7805,-1.6708,-1.5958,-1.5184,0.0,0.0,0.0,0.0,0.0,0.0,0.0,0.0,0.0,0.0,0.0,0.0,0.0,0.0,0.0,0.0,0.0,0.0,0.0,0.0,0.0,0.0,0.0,0.0,0.0,0.0,0.0,0.0,0.0,0.0,0.0,0.0,0.0,0.0,0.0,0.0,0.0,0.0,0.0,0.0,0.0,0.0,0.0,0.0,0.0,0.0,0.0,0.0,0.0,0.0,0.0,0.0,0.0,0.0,0.0,0.0,0.0,0.0,0.0,0.0,0.0,0.0,0.0,0.0,0.0,0.0,0.0,0.0,0.0,0.0,0.0,0.0,0.0,0.0,0.0,0.0,0.0,0.0,0.0,0.0,0.0,0.0,0.0,0.0,0.0,0.0,0.0,0.0,0.0,0.0,0.0,0.0,0.0,0.0,0.0,0.0,0.0,0.0,0.0,0.0,0.0,0.0,-1.5972,-1.7375,-1.7435,-1.8883,-1.9313,-1.7926,-1.6299,-1.554,-1.5951,-1.4713,0.0,0.0,0.0,0.0,0.0,0.0,0.0,0.0,0.0,0.0,0.0,0.0,0.0,0.0,0.0,0.0,0.0,0.0,0.0,0.0,0.0,0.0,0.0,0.0,0.0,0.0,0.0,0.0,0.0,0.0,0.0,0.0,0.0,0.0,0.0,0.0,0.0,0.0,0.0,0.0,0.0,0.0,0.0,0.0,0.0,0.0,0.0,0.0,0.0,0.0,0.0,0.0,0.0,0.0,0.0,0.0,0.0,0.0,0.0,0.0,0.0,0.0,0.0,0.0,0.0,0.0,0.0,0.0,0.0,0.0,0.0,0.0,0.0,0.0,0.0,0.0,0.0,0.0,0.0,0.0,0.0,0.0,0.0,0.0,0.0,0.0,0.0,0.0,0.0,0.0,0.0,0.0,0.0,0.0,0.0,0.0,0.0,0.0,0.0,0.0,0.0,0.0,-1.6208,-1.7295,0.0,-1.8791,-1.8597,-1.7372,-1.6273,-1.5696,-1.5751,0.0,0.0,0.0,0.0,0.0,0.0,0.0,0.0,0.0,0.0,0.0,0.0,0.0,0.0,0.0,0.0,0.0,0.0,0.0,0.0,0.0,0.0,0.0,0.0,0.0,0.0,0.0,0.0,0.0,0.0,0.0,0.0,0.0,0.0,0.0,0.0,0.0,0.0,0.0,0.0,0.0,0.0,0.0,0.0,0.0,0.0,0.0,0.0,0.0,0.0,0.0,0.0,0.0,0.0,0.0,0.0,0.0,0.0,0.0,0.0,0.0,0.0,0.0,0.0,0.0,0.0,0.0,0.0,0.0,0.0,0.0,0.0,0.0,0.0,0.0,0.0,0.0,0.0,0.0,0.0,0.0,0.0,0.0,0.0,0.0,0.0,0.0,0.0,0.0,0.0,0.0,0.0,0.0,0.0,0.0,0.0,0.0,0.0,0.0,0.0,0.0,0.0,-1.5555,-1.6194,-1.6995,0.0,-1.8455,-1.8015,-1.6834,-1.5853,-1.5362,-1.5574,0.0,0.0,0.0,0.0,0.0,0.0,0.0,0.0,0.0,0.0,0.0,0.0,0.0,0.0,0.0,0.0,0.0,0.0,0.0,0.0,0.0,0.0,0.0,0.0,0.0,0.0,0.0,0.0,0.0,0.0,0.0,0.0,0.0,0.0,0.0,0.0,0.0,0.0,0.0,0.0,0.0,0.0,0.0,0.0,0.0,0.0,0.0,0.0,0.0,0.0,0.0,0.0,0.0,0.0,0.0,0.0,0.0,0.0,0.0,0.0,0.0,0.0,0.0,0.0,0.0,0.0,0.0,0.0,0.0,0.0,0.0,0.0,0.0,0.0,0.0,0.0,0.0,0.0,0.0,0.0,0.0,0.0,0.0,0.0,0.0,0.0,0.0,0.0,0.0,0.0,0.0,0.0,0.0,0.0,0.0,0.0,0.0,0.0,0.0,0.0,0.0,0.0,-1.5255,-1.588,-1.6451,-1.7133,-1.7735,-1.7574,-1.6281,-1.4673,-1.4259,0.0,0.0,0.0,0.0,0.0,0.0,0.0,0.0,0.0,0.0,0.0,0.0,0.0,0.0,0.0,0.0,0.0,0.0,0.0,0.0,0.0,0.0,0.0,0.0,0.0,0.0,0.0,0.0,0.0,0.0,0.0,0.0,0.0,0.0,0.0,0.0,0.0,0.0,0.0,0.0,0.0,0.0,0.0,0.0,0.0,0.0,0.0,0.0,0.0,0.0,0.0,0.0,0.0,0.0,0.0,0.0,0.0,0.0,0.0,0.0,0.0,0.0,0.0,0.0,0.0,0.0,0.0,0.0,0.0,0.0,0.0,0.0,0.0,0.0,0.0,0.0,0.0,0.0,0.0,0.0,0.0,0.0,0.0,0.0,0.0,0.0,0.0,0.0,0.0,0.0,0.0,0.0,0.0,0.0,0.0,0.0,0.0,0.0,0.0,0.0,0.0,0.0,0.0,-1.465,-1.5595,-1.6308,-1.6611,-1.7512,-1.746,-1.584,-1.5056,-1.4979,-1.5829,0.0,0.0,0.0,0.0,0.0,0.0,0.0,0.0,0.0,0.0,0.0,0.0,0.0,0.0,0.0,0.0,0.0,0.0,0.0,0.0,0.0,0.0,0.0,0.0,0.0,0.0,0.0,0.0,0.0,0.0,0.0,0.0,0.0,0.0,0.0,0.0,0.0,0.0,0.0,0.0,0.0,0.0,0.0,0.0,0.0,0.0,0.0,0.0,0.0,0.0,0.0,0.0,0.0,0.0,0.0,0.0,0.0,0.0,0.0,0.0,0.0,0.0,0.0,0.0,0.0,0.0,0.0,0.0,0.0,0.0,0.0,0.0,0.0,0.0,0.0,0.0,0.0,0.0,0.0,0.0,0.0,0.0,0.0,0.0,0.0,0.0,0.0,0.0,0.0,0.0,0.0,0.0,0.0,0.0,0.0,0.0,0.0,0.0,0.0,0.0,0.0,0.0,-1.4559,-1.5372,-1.6144,-1.6779,-1.7209,-1.7048,-1.6036,-1.5291,-1.5068,-1.5381,0.0,0.0,0.0,0.0,0.0,0.0,0.0,0.0,0.0,0.0,0.0,0.0,0.0,0.0,0.0,0.0,0.0,0.0,0.0,0.0,0.0,0.0,0.0,0.0,0.0,0.0,0.0,0.0,0.0,0.0,0.0,0.0,0.0,0.0,0.0,0.0,0.0,0.0,0.0,0.0,0.0,0.0,0.0,0.0,0.0,0.0,0.0,0.0,0.0,0.0,0.0,0.0,0.0,0.0,0.0,0.0,0.0,0.0,0.0,0.0,0.0,0.0,0.0,0.0,0.0,0.0,0.0,0.0,0.0,0.0,0.0,0.0,0.0,0.0,0.0,0.0,0.0,0.0,0.0,0.0,0.0,0.0,0.0,0.0,0.0,0.0,0.0,0.0,0.0,0.0,0.0,0.0,0.0,0.0,0.0,0.0,0.0,0.0,0.0,0.0,0.0,0.0,-1.4873,-1.5182,-1.5868,-1.718,-1.6822,-1.6487,-1.6508,-1.5487,-1.4783,-1.4671,0.0,0.0,0.0,0.0,0.0,0.0,0.0,0.0,0.0,0.0,0.0,0.0,0.0,0.0,0.0,0.0,0.0,0.0,0.0,0.0,0.0,0.0,0.0,0.0,0.0,0.0,0.0,0.0,0.0,0.0,0.0,0.0,0.0,0.0,0.0,0.0,0.0,0.0,0.0,0.0,0.0,0.0,0.0,0.0,0.0,0.0,0.0,0.0,0.0,0.0,0.0,0.0,0.0,0.0,0.0,0.0,0.0,0.0,0.0,0.0,-1.6366,0.0,0.0,0.0,0.0,0.0,0.0,0.0,0.0,0.0,0.0,0.0,0.0,0.0,0.0,0.0,0.0,0.0,0.0,0.0,0.0,0.0,0.0,0.0,0.0,0.0,0.0,0.0,0.0,0.0,0.0,0.0,0.0,0.0,0.0,0.0,0.0,0.0,0.0,0.0,0.0,0.0,-1.5169,-1.5148,-1.5242,-1.5868,-1.6285,-1.632,-1.5837,-1.5347,-1.5293,-1.5946,-1.5321,0.0,0.0,0.0,0.0,0.0,0.0,0.0,0.0,0.0,0.0,0.0,0.0,0.0,0.0,0.0,0.0,0.0,0.0,0.0,0.0,0.0,0.0,0.0,0.0,0.0,0.0,0.0,0.0,0.0,0.0,0.0,0.0,0.0,0.0,0.0,0.0,0.0,0.0,0.0,0.0,0.0,0.0,0.0,0.0,0.0,0.0,0.0,0.0,0.0,0.0,0.0,0.0,0.0,0.0,0.0,0.0,0.0,0.0,0.0,0.0,-1.6456,0.0,0.0,0.0,0.0,0.0,0.0,0.0,0.0,0.0,0.0,0.0,0.0,0.0,0.0,0.0,0.0,0.0,0.0,0.0,0.0,0.0,0.0,0.0,0.0,0.0,0.0,0.0,0.0,0.0,0.0,0.0,0.0,0.0,0.0,0.0,0.0,0.0,0.0,0.0,0.0,-1.5485,-1.5178,-1.5207,-1.5959,-1.6049,-1.6081,-1.6149,-1.5693,-1.5522,-1.5683,-1.5512,0.0,0.0,0.0,0.0,0.0,0.0,0.0,0.0,0.0,0.0,0.0,0.0,0.0,0.0,0.0,0.0,0.0,0.0,0.0,0.0,0.0,0.0,0.0,0.0,0.0,0.0,0.0,0.0,0.0,0.0,0.0,0.0,0.0,0.0,0.0,0.0,0.0,0.0,0.0,0.0,0.0,0.0,0.0,0.0,0.0,0.0,0.0,0.0,0.0,0.0,0.0,0.0,0.0,-1.9723,-1.9468,-1.9318,-1.9188,-1.9323,-1.9629,-1.851,-1.8099,-1.822,0.0,0.0,0.0,0.0,0.0,0.0,0.0,0.0,0.0,0.0,0.0,0.0,0.0,0.0,0.0,0.0,0.0,0.0,0.0,0.0,0.0,0.0,0.0,0.0,0.0,-1.5327,-1.5356,0.0,0.0,0.0,0.0,0.0,0.0,0.0,0.0,0.0,0.0,0.0,0.0,-1.5797,-1.529,-1.5274,-1.6289,-1.5906,-1.5832,-1.6427,-1.6039,-1.5545,-1.5034,-1.5422,-1.554,0.0,0.0,0.0,0.0,0.0,0.0,0.0,0.0,0.0,0.0,0.0,0.0,0.0,0.0,0.0,0.0,0.0,0.0,0.0,0.0,0.0,0.0,0.0,0.0,0.0,0.0,0.0,0.0,0.0,0.0,0.0,0.0,-1.266,-1.7792,0.0,0.0,0.0,0.0,0.0,0.0,0.0,0.0,0.0,0.0,0.0,0.0,0.0,0.0,-1.8297,-1.9321,-1.9698,-1.9535,-2.0498,-2.072,-2.0201,-2.0177,-2.0893,-2.1967,-2.0625,0.0,-1.8009,-1.7256,0.0,0.0,0.0,0.0,0.0,0.0,0.0,0.0,0.0,0.0,0.0,0.0,0.0,0.0,0.0,0.0,0.0,0.0,0.0,0.0,0.0,0.0,-1.6143,-1.5525,-1.541,-1.5286,0.0,-1.4802,-1.5031,-1.493,0.0,0.0,0.0,0.0,0.0,0.0,0.0,0.0,-1.6102,-1.543,-1.5072,-1.5506,-1.5536,-1.5551,-1.5669,-1.5595,-1.5507,-1.5433,-1.5003,-1.5239,-1.6277,-1.5357,0.0,0.0,0.0,0.0,0.0,0.0,0.0,0.0,0.0,0.0,0.0,0.0,0.0,0.0,0.0,0.0,0.0,0.0,0.0,0.0,0.0,0.0,0.0,0.0,0.0,0.0,0.0,0.0,0.0,-1.1999,-1.3998,-1.6688,-1.604,-1.5059,0.0,0.0,0.0,0.0,0.0,0.0,0.0,0.0,0.0,-1.8686,-1.9,-1.941,-1.9918,-2.0989,-2.1302,-2.079,-2.0816,-2.0879,-2.0859,-2.1523,-2.2185,-2.2695,-2.1685,-2.1319,-2.1348,-1.9879,-1.9264,-1.9149,0.0,0.0,0.0,0.0,0.0,-1.5387,-1.5199,-1.5061,0.0,0.0,0.0,0.0,0.0,0.0,0.0,0.0,0.0,0.0,0.0,0.0,0.0,-1.6009,-1.5886,-1.577,-1.5578,-1.56,-1.5595,0.0,-1.572,-1.6044,-1.5774,0.0,0.0,0.0,0.0,0.0,-1.6166,-1.5413,-1.4996,-1.5359,-1.5418,-1.5448,-1.5507,-1.5507,-1.5507,-1.5507,-1.5242,-1.5183,-1.5389,-1.5477,-1.5564,0.0,0.0,0.0,0.0,0.0,0.0,0.0,0.0,0.0,0.0,0.0,0.0,0.0,0.0,0.0,0.0,0.0,0.0,0.0,0.0,0.0,0.0,0.0,0.0,0.0,0.0,0.0,0.0,-1.3642,-1.5188,-1.6028,-1.6746,-1.6728,0.0,0.0,0.0,0.0,0.0,0.0,-1.9827,-2.0159,-2.0297,-2.04,-2.0533,-2.09,-2.1436,-2.2141,-2.2602,-2.2893,-2.201,-2.1481,-2.1399,-2.311,-2.374,-2.3401,-2.2895,-2.3367,-2.426,-2.2716,-2.1559,-2.0673,-1.9672,-1.8478,-1.7271,-1.6961,-1.6472,-1.6081,-1.6267,-1.6074,-1.5747,-1.6219,0.0,-1.5519,-1.5208,0.0,0.0,0.0,0.0,-1.6479,-1.6355,-1.6593,-1.6773,-1.6235,-1.6113,-1.6113,-1.6144,-1.61,-1.6034,0.0,-1.6293,-1.6712,-1.638,0.0,0.0,0.0,0.0,-1.6108,-1.6195,-1.5458,-1.5041,-1.5344,-1.5359,-1.5403,-1.5433,-1.5433,-1.5433,-1.5389,-1.5389,-1.5184,-1.4644,-1.5283,-1.5266,-1.4472,0.0,0.0,0.0,0.0,0.0,0.0,0.0,0.0,0.0,0.0,0.0,0.0,0.0,0.0,0.0,0.0,0.0,0.0,0.0,0.0,0.0,0.0,0.0,0.0,0.0,0.0,0.0,0.0,0.0,-1.7862,-1.7802,0.0,0.0,0.0,0.0,-1.8208,-1.8943,-1.9742,-2.0507,-2.136,-2.1758,-2.1787,-2.2607,-2.329,-2.3797,-2.3847,-2.4405,-2.5493,-2.4702,-2.3392,-2.1832,-2.4898,-2.5709,-2.471,-2.4979,-2.5075,-2.4991,-2.5319,-2.4217,-2.2189,-2.1098,-1.9982,-1.8969,-1.9112,-1.8349,-1.7258,-1.7455,-1.7164,-1.6819,-1.7506,-1.7676,-1.7443,-1.6276,-1.6369,0.0,0.0,-1.6365,-1.6633,-1.6159,-1.6336,-1.6498,-1.5957,-1.5836,-1.5881,-1.6001,-1.5925,-1.5881,0.0,-1.62,-1.6225,-1.62,0.0,-1.7276,-1.6807,-1.6892,-1.6819,-1.6253,-1.5659,-1.5283,-1.5313,-1.5313,-1.5283,-1.5208,-1.5268,-1.5238,-1.5043,-1.5133,-1.5149,-1.4986,-1.4484,-1.4411,-1.4876,-1.422,0.0,0.0,0.0,0.0,0.0,0.0,0.0,0.0,0.0,0.0,0.0,0.0,0.0,0.0,0.0,0.0,0.0,0.0,0.0,0.0,0.0,0.0,0.0,0.0,0.0,0.0,0.0,0.0,-1.8607,-1.9189,0.0,-1.8849,-1.8985,-1.9152,-1.9324,-2.0115,-2.1105,-2.2158,-2.2793,-2.3145,-2.3229,-2.3328,-2.3521,-2.3699,-2.4652,-2.4702,-2.4045,-2.4068,-2.3433,-2.233,-2.3638,-2.4596,-2.5151,-2.505,-2.4897,-2.4791,-2.5045,-2.4177,-2.2594,-2.1431,-2.0435,-1.9585,-1.9179,-1.8736,-1.834,-1.8435,-1.7711,-1.6667,-1.6232,-1.6252,-1.642,-1.5989,-1.6058,-1.6239,-1.6363,-1.652,-1.6628,-1.6344,-1.6382,-1.6252,-1.5405,-1.5465,-1.5664,-1.5404,-1.5596,-1.5836,-1.5925,-1.5925,-1.6057,-1.6436,-1.6654,-1.685,-1.6998,-1.6992,-1.689,-1.668,-1.6106,-1.5751,-1.5751,-1.5377,-1.5088,-1.5088,-1.5088,-1.5088,-1.5013,-1.4671,-1.4486,-1.4413,-1.3813,-1.3345,-1.3092,-1.2717,-1.3483,0.0,0.0,0.0,0.0,0.0,0.0,0.0,0.0,0.0,0.0,0.0,0.0,0.0,0.0,0.0,0.0,0.0,0.0,0.0,0.0,0.0,0.0,0.0,0.0,0.0,0.0,-1.8596,-1.9442,-2.0327,-2.0637,-2.0062,-2.0091,-2.0396,-2.0879,-2.1683,-2.2588,-2.3561,-2.4026,-2.4224,-2.4068,-2.3871,-2.3783,-2.3725,-2.4402,-2.4363,-2.3492,-2.3424,-2.2911,-2.2088,-2.2991,-2.3744,-2.4441,-2.469,-2.4706,-2.4577,-2.4599,-2.4037,-2.297,-2.1766,-2.1014,-2.0476,-1.9878,-1.9392,-1.9114,-1.8948,-1.8172,-1.7012,-1.6288,-1.6256,-1.642,-1.6195,-1.6182,-1.6301,-1.6824,-1.6836,-1.6693,-1.6634,-1.6586,-1.6326,-1.5354,-1.5409,-1.562,-1.5305,-1.554,-1.5792,-1.5792,-1.5792,-1.5957,-1.6552,-1.6654,-1.6837,-1.7399,-1.7301,-1.7206,-1.722,-1.6698,-1.6227,-1.6013,-1.5784,-1.5453,-1.4994,-1.5567,-1.5666,-1.4978,-1.498,-1.4795,-1.4354,-1.4111,-1.3686,-1.3104,-1.2675,-1.3362,-1.5239,0.0,0.0,0.0,0.0,0.0,0.0,0.0,0.0,0.0,0.0,0.0,0.0,0.0,0.0,0.0,0.0,0.0,0.0,0.0,0.0,0.0,0.0,0.0,-1.4436,-1.7399,-1.9776,-2.038,-2.129,-2.1762,-2.1563,-2.1873,-2.2332,-2.279,-2.3584,-2.4271,-2.4669,-2.5102,-2.4937,-2.4335,-2.4316,-2.4307,-2.4211,-2.339,-2.3467,-2.438,-2.3207,-2.2083,-2.1139,-2.3137,-2.3578,-2.2734,-2.4105,-2.4646,-2.4502,-2.4273,-2.3893,-2.3398,-2.232,-2.1868,-2.1801,-2.1307,-2.043,-1.9482,-1.9119,-1.8546,-1.8037,-1.8025,-1.7922,-1.7725,-1.7031,-1.693,-1.7123,-1.7536,-1.7354,-1.7044,-1.702,-1.6959,-1.6738,-1.5692,-1.5603,-1.5715,-1.5691,-1.5736,-1.5792,-1.5792,-1.5792,-1.5969,-1.6436,-1.6905,-1.7393,-1.7908,-1.7841,0.0,-1.789,-1.732,-1.6678,-1.6113,-1.655,-1.6388,-1.5057,-1.6695,-1.6951,-1.4949,-1.6027,-1.614,-1.4836,-1.5328,-1.5374,-1.4923,-1.4197,-1.387,-1.397,0.0,0.0,0.0,0.0,0.0,0.0,0.0,0.0,0.0,0.0,0.0,0.0,0.0,0.0,0.0,0.0,0.0,0.0,0.0,0.0,0.0,0.0,-1.529,-1.7338,-1.8821,-2.0402,-2.2216,-2.2189,-2.2247,-2.2665,-2.2661,-2.271,-2.3006,-2.3849,-2.44,-2.4688,-2.4804,-2.4622,-2.4038,-2.3729,-2.3476,-2.3305,-2.3252,-2.3499,-2.4146,-2.3063,-2.2409,-2.2177,-2.276,-2.2769,-2.2285,-2.3139,-2.3824,-2.4284,-2.4249,-2.3967,-2.37,-2.3895,-2.2803,-2.1073,-2.0944,-2.063,-2.013,-1.8768,-1.8382,-1.8524,-1.8017,-1.8095,-1.8325,-1.8184,-1.8137,-1.8172,-1.8313,-1.7984,-1.749,-1.7003,-1.6592,-1.6068,-1.5043,-1.5154,-1.5463,-1.5183,-1.5485,-1.5792,-1.5792,-1.5792,-1.5969,-1.6436,-1.6905,-1.7352,-1.7787,-1.8115,0.0,-1.8341,-1.7791,-1.734,-1.717,-1.7311,-1.7086,-1.6261,-1.7114,-1.7022,-1.5567,-1.5384,-1.4994,-1.4176,-1.3881,-1.346,-1.2839,-1.3933,-1.4799,0.0,0.0,0.0,0.0,0.0,0.0,0.0,0.0,0.0,0.0,0.0,0.0,0.0,0.0,0.0,0.0,0.0,0.0,0.0,0.0,0.0,0.0,-1.483,-1.6374,-1.9163,-1.9813,-2.0761,-2.292,-2.2981,-2.3039,-2.3497,-2.364,-2.3742,-2.3987,-2.4336,-2.4592,-2.4906,-2.4754,-2.4466,-2.3999,-2.3758,-2.3555,-2.3103,-2.3119,-2.3186,-2.3319,-2.2372,-2.1826,-2.1744,-2.2269,-2.2355,0.0,-2.3065,-2.3751,-2.42,-2.4214,-2.3921,0.0,0.0,0.0,0.0,0.0,-2.0617,-2.0211,-1.8744,-1.8431,-1.859,-1.8178,-1.8218,-1.841,-1.841,-1.8247,-1.8084,-1.8084,-1.7711,-1.7148,-1.6587,-1.6203,-1.5834,-1.5012,-1.5168,-1.5431,-1.5278,-1.5533,-1.5792,-1.5792,0.0,0.0,-1.6436,-1.6905,-1.7365,-1.776,-1.8214,-1.8517,-1.8517,-1.8208,-1.7885,-1.7632,-1.7829,-1.7632,-1.6761,-1.7731,0.0,0.0,0.0,-1.6087,-1.5469,-1.5153,0.0,0.0,0.0,-1.5831,-1.5868,0.0,0.0,0.0,-1.7991,-1.8115,0.0,0.0,0.0,0.0,0.0,0.0,0.0,0.0,0.0,0.0,0.0,0.0,0.0,0.0,0.0,0.0,-1.6533,-1.718,-1.9833,-2.0241,-2.0968,-2.2968,-2.3537,-2.3907,-2.4078,-2.4473,-2.4888,-2.5275,-2.49,-2.483,-2.5088,0.0,0.0,0.0,0.0,-2.3822,-2.3409,-2.2966,-2.2667,-2.2427,-2.1595,-2.1022,-2.0829,-2.203,-2.2289,-2.1993,-2.349,-2.4173,-2.4189,-2.4127,-2.3715,-2.304,-2.1705,-2.1744,-2.2464,-2.1188,-2.0449,0.0,0.0,0.0,0.0,-1.8367,-1.8259,-1.8084,-1.8084,-1.7817,-1.7461,-1.7461,-1.7105,-1.66,-1.6118,-1.5946,-1.5774,-1.5394,-1.539,-1.5513,-1.5659,-1.5748,-1.5792,-1.5792,-1.6225,-1.6584,-1.6522,-1.6947,-1.7393,-1.776,-1.8214,-1.8517,-1.8517,-1.8517,-1.8307,-1.7759,0.0,0.0,-1.6986,-1.8461,-1.8647,-1.6902,-1.7745,-1.8068,-1.752,-1.7551,-1.7277,-1.662,-1.6934,-1.674,-1.6023,-1.7364,-1.7609,-1.6887,-1.8609,-1.8654,0.0,0.0,0.0,0.0,0.0,0.0,0.0,0.0,0.0,0.0,0.0,0.0,0.0,0.0,0.0,-1.6277,-1.6668,-1.7289,-1.9004,-1.9367,-2.0491,-2.3164,-2.3619,-2.3908,-2.434,-2.4108,-2.424,-2.4875,-2.4865,-2.4928,-2.5107,-2.4753,0.0,-2.3675,-2.3354,-2.2988,-2.2566,-2.2483,-2.259,-2.2949,0.0,0.0,-2.2615,-2.3197,-2.3199,-2.2788,-2.3459,-2.3951,-2.4116,-2.3519,-2.3055,-2.2719,-2.1754,-2.1209,-2.0883,-2.0441,-1.9934,-1.943,-1.8686,-1.8422,-1.8367,-1.8205,-1.8139,-1.8084,-1.8084,-1.8015,0.0,-1.7935,-1.7634,-1.7117,-1.6612,-1.6198,-1.5774,-1.5234,-1.5334,-1.5513,-1.5513,-1.5659,-1.5792,-1.5792,-1.6564,-1.7081,-1.6584,-1.7144,-1.772,-1.7787,-1.8214,-1.8517,-1.8517,-1.8517,-1.8475,-1.8349,-1.8857,-1.8913,-1.8222,-1.8899,-1.8829,-1.7506,-1.7183,-1.6986,-1.6874,-1.6895,-1.6655,-1.6151,-1.6369,-1.6789,-1.7419,-1.7912,-1.8636,-1.9566,-1.9919,-1.9346,0.0,0.0,0.0,0.0,0.0,0.0,0.0,0.0,0.0,0.0,0.0,-1.4299,0.0,0.0,-1.5372,-1.7019,-1.7113,-1.7268,-1.8294,-1.9011,-2.0045,-2.1473,-2.2075,-2.2659,-2.3465,-2.368,-2.4095,-2.4908,-2.5036,-2.503,-2.4942,-2.4369,-2.3846,-2.3547,-2.3067,-2.2749,-2.2327,-2.2327,-2.2196,-2.1917,-2.1644,-2.1637,-2.196,-2.2703,-2.3069,-2.3012,-2.369,-2.4175,-2.4522,-2.3582,-2.301,-2.2593,-2.172,-2.1175,-2.073,-1.9945,-1.9611,-1.9436,-1.8525,-1.8259,-1.8247,-1.8139,-1.8084,-1.8084,-1.8084,-1.8084,-1.8027,-1.7829,-1.7392,-1.6887,-1.6394,-1.5889,-1.5441,-1.5234,-1.5334,-1.5513,-1.557,-1.5906,-1.6279,-1.6536,-1.7465,-1.8016,-1.7721,-1.8463,-1.8797,-1.7923,-1.8214,-1.8517,-1.8517,-1.8517,-1.8517,-1.8517,-1.8759,-1.8815,-1.8545,-1.8759,-1.8675,-1.8096,-1.7773,-1.7604,-1.7604,-1.7604,-1.7545,-1.7469,-1.756,-1.8018,-1.8789,-1.894,-1.944,-2.0304,-2.0304,-1.9731,0.0,0.0,0.0,0.0,0.0,0.0,0.0,0.0,-1.4714,-1.553,-1.5292,-1.5428,-1.7123,-1.6252,-1.5938,-1.7721,-1.7536,-1.7302,-1.7712,-1.8622,-1.9193,-1.917,-2.0281,-2.1444,-2.2619,-2.3176,-2.3886,-2.5025,-2.5089,-2.4988,-2.4895,-2.4189,-2.3712,-2.3547,-2.3067,-2.2749,-2.2592,-2.2518,-2.202,-2.1117,-2.1482,-2.1452,-2.1082,-2.2297,-2.3003,-2.3309,-2.3999,-2.4556,-2.4843,-2.3959,-2.3224,-2.2581,-2.1675,-2.125,-2.1043,-1.9878,-1.9536,-1.9562,-1.8621,-1.8288,-1.8221,-1.8118,-1.8084,-1.8084,-1.8084,-1.8084,-1.8004,-1.7645,-1.7163,-1.6658,-1.6176,-1.5659,-1.5234,-1.5245,-1.539,-1.5549,-1.5757,-1.6238,-1.6793,-1.743,-1.8402,-1.9067,-1.8992,-1.9877,-2.0005,-1.8358,-1.8545,-1.8883,-1.8883,-1.877,-1.8647,-1.8647,-1.8647,-1.8647,-1.8647,-1.8588,-1.8517,-1.8517,-1.8556,-1.8581,-1.8581,-1.862,-1.8774,-1.8988,-1.9049,-1.9332,-1.9788,-1.9874,-2.003,-2.0304,-2.0304,-2.0011,-1.3715,-1.3103,-1.2645,-1.4392,-1.4676,-1.5053,0.0,0.0,-1.7768,-1.6787,-1.6984,-1.6928,-1.5812,-1.5798,-1.6316,-1.7442,-1.7527,-1.7378,-1.7262,-1.7604,-1.7542,-1.6821,-1.914,-2.1362,-2.2689,-2.2203,-2.2733,-2.5188,-2.508,-2.4931,-2.5289,-2.4886,-2.4308,-2.3565,-2.3067,-2.3112,-2.35,-2.3113,-2.2601,-2.2045,-2.2936,-2.2793,-2.1936,-2.3765,-2.4443,-2.4066,-2.4574,-2.4866,-2.4866,-2.4338,-2.3546,-2.2627,-2.2065,-2.1571,-2.1089,-2.0515,-2.0044,-1.9608,-1.9011,-1.8804,-1.8736,-1.8233,-1.8084,-1.8084,-1.8084,-1.8084,-1.8073,-1.8015,-1.7691,-1.7174,-1.6669,-1.6187,-1.5693,-1.5223,-1.5334,-1.5643,-1.6138,-1.642,-1.6902,-1.7919,-1.8982,-1.9674,-1.9601,-2.0487,-2.0751,-1.9432,-1.9768,-2.0189,-2.0189,-1.9683,-1.9291,-1.9291,-1.9291,-1.9291,-1.9291,-1.8787,-1.8517,-1.8517,-1.8721,-1.8874,-1.8874,-1.9139,-1.9302,-1.9339,-1.9603,-1.9717,-1.9788,-2.01,-2.027,-2.0304,-2.0304,-2.0273,-1.3821,-1.3919,0.0,0.0,-1.5735,-1.6692,-1.8128,-1.8718,-1.887,-1.8337,-1.8096,-1.7754,-1.7017,-1.638,-1.6259,0.0,-1.7107,-1.7068,-1.715,-1.7286,-1.7137,-1.6346,-1.719,-1.8678,-2.0884,-2.0784,-2.1556,-2.3815,-2.4244,-2.4381,-2.4308,-2.3932,-2.3565,-2.3112,-2.2804,-2.284,-2.3379,-2.3342,-2.3133,-2.2621,-2.3104,-2.3192,-2.2901,-2.382,-2.4529,-2.5073,-2.4958,-2.5084,-2.5314,-2.4522,-2.3775,-2.3041,-2.2237,-2.1617,-2.1164,-2.0595,-2.0285,-1.9998,-1.9172,-1.8896,-1.8804,-1.8244,-1.8084,-1.8027,-1.7783,-1.7909,-1.797,-1.7375,-1.7312,-1.7266,-1.675,-1.6474,-1.6267,-1.6049,-1.6183,-1.6432,-1.6667,-1.7376,-1.8223,-1.8964,-2.0009,-2.0711,-2.0619,-2.1293,-2.1622,-2.1102,-2.0667,-2.04,-2.04,-2.0161,-1.9993,-1.9993,-1.9779,-1.9553,-1.939,-1.9246,-1.8936,-1.8545,-1.9116,-1.9315,-1.8912,-1.9213,-1.9472,-1.9639,-1.9732,-1.9909,-2.01,-2.022,-2.0304,-2.0304,-2.0304,-2.0304,-1.4577,0.0,0.0,-1.5974,-1.6867,-1.7862,-1.8971,-1.9522,-1.9743,-1.9652,-1.8869,-1.8081,-1.7766,-1.6621,-1.5905,-1.6796,-1.676,-1.678,-1.7001,-1.6961,-1.6687,-1.6099,-1.5698,-1.6299,-1.8612,-1.9162,-2.0326,-2.2491,-2.3341,-2.3611,-2.3547,-2.3076,-2.2811,-2.2786,-2.2483,-2.2706,-2.371,-2.3699,-2.3653,-2.3635,-2.367,-2.3719,-2.3684,-2.4149,-2.4891,-2.5899,-2.5509,-2.5486,-2.5635,-2.4613,-2.3821,-2.3133,-2.2111,-2.1491,-2.1175,-2.0745,-2.0618,-2.0481,-1.947,-1.9114,-1.9011,-1.829,-1.8084,-1.8015,-1.7702,-1.7852,-1.7935,-1.7203,-1.7197,-1.7266,-1.675,-1.6623,-1.6589,-1.65,-1.6718,-1.7055,-1.7246,-1.8203,-1.9217,-1.9908,-2.0775,-2.1418,-2.1549,-2.1935,-2.224,-2.2409,-2.1552,-2.0948,-2.1117,-2.0908,-2.0696,-2.0696,-2.0287,-2.0057,-2.0006,-1.9948,-1.9705,-1.9251,-1.9915,-2.0069,-1.9438,-1.9738,-1.9942,-1.9945,-1.9945,-2.0065,-2.0304,-2.0304,-2.0304,-2.0304,-2.0304,-2.0304,-1.6572,-1.5841,-1.5615,-1.8014,-1.8193,-1.8276,-2.0017,-2.0769,-2.0902,-2.0407,-1.9216,-1.7995,-1.71,-1.6127,-1.5598,-1.6192,-1.652,-1.6707,-1.6714,-1.6473,-1.6086,-1.5491,-1.491,-1.5101,0.0,-1.7285,-1.897,-2.1879,-2.2232,-2.2722,-2.3501,-2.3076,-2.2767,-2.2355,-2.2327,-2.32,-2.5119,-2.4216,-2.4337,-2.5641,-2.5201,-2.4657,-2.4241,-2.5205,-2.5968,-2.6439,-2.6427,-2.6152,-2.5635,-2.4613,-2.3603,-2.2604,-2.1583,-2.1244,-2.1221,-2.121,-2.121,-2.0997,-2.001,-1.9677,-1.9505,-1.8416,-1.8084,-1.8084,-1.8061,-1.8073,-1.8084,-1.805,-1.7748,-1.7266,-1.675,-1.6623,-1.6497,-1.6207,-1.6571,-1.7199,-1.7847,-1.851,-1.9331,-2.038,-2.1006,-2.1554,-2.2063,-2.217,-2.2381,-2.2971,-2.2536,-2.2339,-2.2943,-2.2094,-2.1478,-2.1478,-2.0983,-2.0912,-2.1482,-2.1012,-2.0781,-2.1027,-2.127,-2.1252,-2.0768,-2.1042,-2.0947,-2.0285,-2.027,-2.0304,-2.0304,-2.0304,-2.0304,-2.0304,-2.0304,-2.0304,-1.7493,-1.8131,-1.8854,-1.9533,-2.0142,-2.0863,-2.1608,-2.1545,-2.0837,-1.967,-1.8483,-1.7306,-1.6286,-1.5848,-1.6049,-1.7224,-1.7138,-1.7042,-1.7357,-1.6821,-1.6052,-1.5464,-1.5224,0.0,0.0,0.0,0.0,-2.0451,-2.1615,-2.2566,-2.3021,-2.3272,-2.3281,-2.3134,-2.2878,-2.3629,-2.5585,-2.4915,-2.5321,-2.6745,-2.6255,-2.5775,-2.5383,-2.5961,-2.6314,-2.6481,-2.5486,-2.5351,-2.5633,-2.4378,-2.3572,-2.3121,-2.2432,-2.182,-2.1221,-2.1221,-2.0951,-2.0572,-1.9918,-1.9459,-1.9046,-1.8313,-1.8084,-1.8027,-1.7737,-1.7875,-1.7878,-1.6945,-1.7255,-1.7622,-1.6451,-1.6837,-1.7507,-1.7155,-1.7576,-1.8142,-1.8477,-1.9331,-2.0176,-2.0521,-2.1299,-2.1996,-2.2184,-2.2184,-2.2381,-2.2999,-2.3378,-2.3356,-2.272,-2.2837,-2.2772,-2.2267,-2.183,-2.1585,-2.1612,-2.1484,-2.1354,-2.1114,-2.1713,-2.1704,-2.0828,-2.1109,-2.0998,-2.032,-2.0304,-2.0304,-2.0304,-2.0304,-2.0304,-2.0304,-2.0304,-2.0304,-1.892,-2.0046,-2.1242,-2.1617,-2.2226,-2.2565,-2.2419,-2.1898,-2.0889,-1.8829,-1.7543,-1.6456,-1.5375,-1.5107,-1.5506,-1.6794,-1.6921,-1.6904,-1.729,-1.6711,-1.5973,-1.5424,-1.5304,-1.5284,0.0,0.0,0.0,-1.9376,-2.1201,-2.2447,-2.2712,-2.3116,-2.3336,-2.3336,-2.3121,-2.4068,-2.6061,-2.5371,-2.5701,-2.6998,-2.6851,-2.6628,-2.6404,-2.6657,-2.6748,-2.6637,-2.5431,-2.5284,-2.5622,-2.4217,-2.3417,-2.3121,-2.2604,-2.1904,-2.1221,-2.1221,-2.0848,-2.0343,-1.9861,-1.9344,-1.8804,-1.8244,-1.8084,-1.8027,-1.7748,-1.7875,-1.789,-1.6979,-1.7088,-1.7363,-1.6635,-1.7002,-1.7658,-1.7687,-1.8195,-1.8732,-1.8839,-1.9798,-2.061,-2.061,-2.1444,-2.2184,-2.2184,-2.2367,-2.2611,-2.2842,-2.3716,-2.4085,-2.3212,-2.3645,-2.3789,-2.3062,-2.2814,-2.2496,-2.2057,-2.2117,-2.2106,-2.1911,-2.2433,-2.2431,-2.1705,-2.1918,-2.1615,-2.069,-2.0674,-2.0551,-2.0304,-2.0304,-2.0304,-2.0304,-2.0304,-2.0304,-2.0715,-2.171,-2.2768,-2.4135,-2.4088,-2.3422,-2.2447,-2.1957,-2.0969,-1.8215,-1.6613,-1.5451,0.0,0.0,-1.4176,-1.5218,-1.5899,-1.6431,-1.6628,-1.6332,-1.5991,0.0,0.0,0.0,0.0,0.0,0.0,-1.8788,0.0,-2.2346,-2.2382,-2.2786,-2.3015,-2.3015,-2.3336,-2.4545,-2.6527,-2.5595,-2.5633,-2.6528,-2.6974,-2.7149,-2.7149,-2.7149,-2.7126,-2.708,-2.6232,-2.5735,-2.5512,-2.4145,-2.3236,-2.2639,-2.2157,-2.164,-2.1221,-2.1221,-2.0848,-2.0343,-1.9861,-1.9344,-1.8804,-1.8244,-1.8084,-1.8084,-1.8084,-1.8084,-1.8084,-1.805,-1.7375,-1.6795,-1.722,-1.7116,-1.7047,-1.7678,-1.8301,-1.8851,-1.8999,-1.985,-2.061,-2.066,-2.1492,-2.2184,-2.2184,-2.2662,-2.2907,-2.247,-2.3578,-2.4412,-2.4234,-2.449,-2.4422,-2.3717,-2.3815,-2.3644,-2.2898,-2.2841,-2.3037,-2.3421,-2.345,-2.3381,-2.3277,-2.3302,-2.2671,-2.1337,-2.1322,-2.0983,-2.0304,-2.0304,-2.0304,-2.0304,-2.0304,-2.0304,-2.2105,-2.3704,-2.4822,-2.4433,-2.4431,-2.4053,-2.278,-2.0968,-1.9173,-1.79,-1.6096,-1.4709,0.0,0.0,0.0,-1.7371,-1.7878,0.0,-1.8177,-1.749,0.0,-1.5799,0.0,-1.5965,-1.6046,-1.8058,0.0,0.0,-2.1299,-2.2593,-2.3198,-2.362,-2.3849,-2.3849,-2.4003,-2.4893,-2.6424,-2.6986,-2.7155,-2.7056,-2.6798,-2.6704,-2.6704,-2.6704,-2.6337,-2.5632,-2.5065,-2.4748,-2.4565,-2.3552,-2.3127,-2.3061,-2.2638,-2.195,-2.1221,-2.1221,-2.0848,-2.0343,-1.9861,-1.9344,-1.8804,-1.8244,-1.8084,-1.8084,-1.8084,-1.8084,-1.8015,-1.7679,-1.7668,-1.7611,-1.7069,-1.7484,-1.8008,-1.7946,-1.8394,-1.8958,-1.95,-2.0105,-2.0709,-2.1118,-2.1746,-2.2184,-2.2184,-2.2405,-2.2555,-2.2399,-2.324,-2.3741,-2.3234,-2.4154,-2.4409,-2.3204,-2.3877,-2.4119,-2.3451,-2.3523,-2.3739,-2.4036,-2.3925,-2.3663,-2.3332,-2.3302,-2.2671,-2.1337,-2.1322,-2.0983,-2.0304,-2.0304,-2.0304,-2.0304,-2.0304,-2.0304,-2.3104,-2.4866,-2.6393,-2.5722,-2.543,-2.4776,-2.3086,-2.0914,-1.8732,-1.6817,-1.5172,0.0,-1.3475,-1.4269,0.0,0.0,0.0,0.0,-1.8488,-1.7881,-1.718,0.0,-1.6259,0.0,-1.6259,-1.7734,-1.9016,0.0,-2.1717,-2.2988,-2.3176,-2.3666,-2.3804,-2.3629,-2.4269,-2.5338,-2.6763,-2.7573,-2.7725,-2.7231,-2.6962,-2.6787,-2.6787,-2.6397,-2.5976,-2.5352,0.0,-2.3973,-2.3995,-2.3273,-2.29,-2.2697,-2.2708,-2.2065,-2.1158,-2.0828,-2.052,-2.012,-1.9171,-1.8632,-1.8328,-1.7846,-1.7733,-1.7733,-1.7733,-1.7909,-1.8027,-1.7794,-1.776,-1.7832,-1.7577,-1.7804,-1.8166,-1.8242,-1.8519,-1.8946,-1.9552,-2.0399,-2.1242,-2.1999,-2.2178,-2.2184,-2.2184,-2.2324,-2.2417,-2.2463,-2.2962,-2.3169,-2.2869,-2.4206,-2.479,-2.373,-2.4687,-2.4911,-2.3771,-2.4066,-2.424,-2.4109,-2.3967,-2.3842,-2.3748,-2.3456,-2.2809,-2.1747,-2.146,-2.0983,-2.0304,-2.0304,-2.0304,-2.0304,-2.0235,-2.022,-2.3868,-2.5506,-2.7231,-2.7201,-2.6341,-2.5057,-2.321,-2.1075,-1.8649,-1.5578,0.0,-1.3347,-1.2398,-1.305,-1.413,-1.5238,0.0,-1.7476,-1.8179,-1.7973,-1.7702,-1.7345,-1.6616,-1.6081,-1.6246,-1.7085,-1.8195,-1.9668,-2.2022,-2.3253,-2.2875,-2.3185,-2.3376,-2.3243,-2.4388,-2.5747,-2.7184,-2.7657,-2.7667,-2.7231,-2.7067,-2.7033,-2.6953,-2.6094,-2.5663,-2.5485,0.0,0.0,-2.3656,-2.3099,-2.2606,-2.2297,-2.248,-2.1918,-2.0944,-2.0291,-1.9987,-1.9684,-1.8228,-1.7626,-1.7543,-1.7241,-1.719,-1.7213,-1.7278,-1.7667,-1.8096,-1.8176,-1.794,-1.7769,-1.8333,-1.8195,-1.8007,-1.8507,-1.8732,-1.8999,-1.9604,-2.0682,-2.1854,-2.2825,-2.255,-2.2184,-2.2184,-2.2324,-2.2463,-2.2555,-2.2766,-2.2917,-2.2978,-2.4414,-2.5135,-2.4507,-2.5499,-2.5597,-2.4058,-2.4425,-2.4544,-2.3955,-2.3882,-2.4009,-2.4302,-2.3748,-2.3071,-2.2301,-2.1716,-2.1075,-2.0304,-2.027,-2.027,-2.0304,-2.015,-2.008,-2.392,-2.5499,-2.6896,-2.6381,-2.4964,-2.3421,-2.23,-1.9663,0.0,0.0,-1.4538,-1.3699,-1.3339,-1.4013,-1.5048,-1.6269,-1.7125,-1.8047,-1.8953,-1.9037,-1.8604,0.0,-1.7377,-1.7173,-1.6363,0.0,0.0,0.0,0.0,0.0,-2.2848,-2.2921,-2.3504,-2.4674,-2.5002,-2.5794,-2.7152,-2.7321,-2.7323,-2.7149,-2.649,-2.6102,-2.6026,-2.5104,-2.4475,-2.4051,0.0,0.0,-2.3088,-2.223,-2.2314,-2.2914,-2.2014,-2.0963,-1.9944,-2.0074,-1.9512,-1.8574,-1.7926,-1.7388,-1.6934,-1.6977,-1.7062,-1.7278,-1.7579,-1.789,-1.8176,-1.8644,-1.8403,-1.8182,-1.8811,-1.8623,-1.8359,-1.8536,-1.8869,-1.9331,-2.008,-2.1207,-2.2136,-2.2339,-2.2255,-2.2184,-2.2184,-2.2417,-2.2555,-2.2615,-2.3083,-2.348,-2.348,-2.4209,-2.4477,-2.3849,-2.4943,-2.5361,-2.4539,-2.456,-2.4591,-2.4467,-2.4302,-2.4219,-2.4302,-2.4194,-2.3548,-2.2317,-2.2178,-2.1501,-2.0304,-2.0185,-2.0185,-2.0304,-2.0096,-2.0061,-2.4832,-2.61,-2.7096,-2.6932,-2.5175,-2.3283,-2.2446,0.0,0.0,0.0,-1.4607,-1.3838,-1.3537,-1.4036,0.0,-1.5739,-1.642,-1.7269,-1.8754,-1.8735,0.0,-1.8528,-1.8373,-1.8112,0.0,0.0,0.0,0.0,0.0,0.0,-2.251,-2.2428,-2.3038,-2.4829,-2.4594,-2.5251,-2.6847,-2.6839,-2.6715,-2.6561,-2.6304,-2.6057,-2.573,-2.4639,-2.3991,-2.3689,-2.2583,0.0,-2.2219,-2.1592,-2.168,-2.2151,-2.1576,-2.1039,-2.0406,-1.9533,-1.8849,-1.8173,-1.6822,-1.6191,-1.5913,-1.593,-1.6247,-1.6736,-1.7511,-1.7872,-1.8238,-1.9103,-1.8988,-1.8686,-1.902,-1.8751,-1.8422,-1.8464,-1.9121,-2.0091,-2.1355,-2.1929,-2.2269,-2.2592,-2.2395,-2.2184,-2.2184,-2.2417,-2.2615,-2.2615,-2.3172,-2.3595,-2.3595,-2.4295,-2.4625,-2.4328,-2.529,-2.5652,-2.4878,-2.5039,-2.4979,-2.4482,-2.4343,-2.4302,-2.4302,-2.3625,-2.2963,-2.2301,-2.1593,-2.1085,-2.0707,-2.0319,-2.0299,-2.065,-2.0157,-1.9904,-2.5303,-2.6335,-2.7087,-2.7527,-2.5455,-2.3154,-2.2584,-1.9748,0.0,-1.5326,-1.4387,-1.3779,-1.3382,-1.3587,-1.4127,0.0,-1.5434,-1.6413,-1.8353,-1.8353,-1.8602,0.0,0.0,0.0,0.0,0.0,0.0,0.0,0.0,0.0,-2.209,-2.1816,-2.2494,-2.4333,-2.3894,-2.4654,-2.659,-2.6479,-2.629,-2.6146,-2.6219,-2.6086,-2.5723,-2.4271,-2.3602,-2.3362,-2.1797,0.0,0.0,-2.0899,-2.0902,-2.1107,-2.1063,-2.0917,-2.0655,-1.9008,-1.8294,-1.7907,-1.5902,-1.523,-1.5212,-1.5129,-1.5638,-1.6427,-1.7421,-1.7984,-1.8581,-1.9581,-1.9495,-1.9101,-1.9344,-1.895,-1.8553,-1.8889,-1.9781,-2.0992,-2.2565,-2.261,-2.2521,-2.2999,-2.2592,-2.2184,-2.2184,-2.2417,-2.2555,-2.2555,-2.3201,-2.3724,-2.3724,-2.4461,-2.4997,-2.4997,-2.5624,-2.5735,-2.4973,-2.5211,-2.502,-2.4133,-2.4225,-2.4179,-2.3887,-2.2994,-2.234,-2.2033,-2.0988,-2.0599,-2.0859,-2.0304,-2.0284,-2.0764,-2.0089,-1.9797,-2.3928,-2.5022,-2.6238,-2.7201,-2.4634,-2.1803,-2.2017,0.0,-1.6104,-1.4066,-1.3597,-1.3377,-1.2789,-1.2881,-1.3442,-1.4555,0.0,-1.6193,-1.8015,-1.8914,-1.9498,0.0,0.0,0.0,0.0,0.0,0.0,0.0,0.0,0.0,0.0,-2.1419,-2.2097,-2.3503,-2.3454,-2.4402,-2.6512,-2.6157,-2.6313,-2.7056,-2.5791,-2.5405,-2.5684,-2.3962,-2.2864,-2.24,0.0,0.0,0.0,-2.0076,-2.0075,-2.0343,-1.9905,-1.9779,-1.966,-1.8793,-1.8055,-1.7331,-1.6103,-1.5634,-1.5579,-1.5221,-1.5943,-1.7108,-1.7554,-1.8533,-1.9664,-2.0205,-1.9643,-1.9103,-2.0033,-1.9551,-1.9169,-2.0491,-2.1237,-2.2003,-2.295,-2.3091,-2.3027,-2.3083,-2.2592,-2.2184,-2.2184,-2.2324,-2.2417,-2.2417,-2.3334,-2.4036,-2.4036,-2.4751,-2.524,-2.524,-2.5187,-2.4989,-2.467,-2.4488,-2.4143,-2.344,-2.3963,-2.3748,-2.2517,-2.2885,-2.2524,-2.1231,-2.1036,-2.0679,-2.0096,-1.9914,-1.9914,-2.0096,-1.9827,-1.9726,-2.3367,-2.4653,-2.5788,-2.6186,-2.3798,-2.126,-2.1176,0.0,-1.5458,-1.4092,-1.3327,-1.2814,-1.2589,-1.2689,-1.3143,-1.425,0.0,0.0,-1.6888,0.0,0.0,0.0,0.0,0.0,0.0,0.0,0.0,0.0,0.0,0.0,0.0,-2.1346,-2.2185,-2.3038,-2.3474,-2.4327,-2.5695,-2.5496,-2.5612,-2.5917,-2.5284,-2.5023,-2.5123,-2.3731,-2.2914,-2.2617,0.0,0.0,0.0,-1.9667,-1.967,-2.0115,-1.9745,-1.9726,-1.9814,-1.907,-1.8212,-1.7193,-1.6321,-1.5652,-1.5252,-1.5254,-1.6198,-1.7396,-1.7615,-1.8362,-1.9201,-1.9787,-1.9688,-1.947,-1.9872,-1.9436,-1.9194,-2.0339,-2.0777,-2.116,-2.2113,-2.272,-2.2985,-2.262,-2.2648,-2.262,-2.224,-2.2324,-2.2417,-2.2417,-2.326,-2.3909,-2.3909,-2.463,-2.4886,-2.4342,-2.4217,-2.41,-2.4021,-2.3807,-2.3409,-2.2732,-2.3308,-2.3222,-2.2271,-2.2026,-2.1614,-2.1066,-2.0634,-2.0425,-2.0473,-2.0029,-2.0023,-2.0414,-1.9921,-1.9726,-2.2207,-2.364,-2.4968,-2.512,-2.2877,-2.0565,0.0,0.0,-1.4706,-1.3529,-1.2753,-1.2322,-1.2397,-1.268,-1.3208,-1.4067,0.0,-1.468,-1.6373,-1.6524,0.0,0.0,0.0,0.0,0.0,0.0,0.0,0.0,0.0,0.0,0.0,-2.0965,-2.1898,-2.2495,-2.3011,-2.3937,-2.5107,-2.4946,-2.5015,-2.5245,-2.502,-2.482,-2.4733,-2.3717,-2.2938,-2.2394,0.0,0.0,0.0,-1.9343,-1.9396,-1.9781,-1.9528,-1.964,-1.9813,-1.9233,-1.8449,-1.7564,-1.689,-1.6138,-1.5586,-1.5624,-1.6481,-1.7445,-1.7539,-1.8257,-1.9097,-1.9559,-1.9688,-1.9688,-1.9688,-1.9413,-1.9425,-2.0462,-2.0594,-2.0757,-2.1812,-2.2478,-2.2832,-2.2788,-2.2929,-2.2957,-2.2521,-2.2546,-2.2536,-2.2352,-2.3038,-2.361,-2.3739,-2.4328,-2.4444,-2.3678,-2.339,-2.3227,-2.3227,-2.3072,-2.2701,-2.1987,-2.2562,-2.2485,-2.1613,-2.1196,-2.0879,-2.0667,-2.0161,-2.011,-2.0452,-1.9987,-1.9981,-2.0393,-1.9914,-1.969,-2.0165,-2.1783,-2.3365,-2.4064,-2.1832,-1.9328,0.0,-1.6297,-1.3717,-1.2008,-1.1709,-1.1885,-1.2075,-1.2954,-1.378,-1.4127,-1.506,0.0,-1.6684,0.0,0.0,0.0,0.0,0.0,0.0,0.0,0.0,0.0,0.0,0.0,0.0,-2.0023,-2.0941,-2.1744,-2.1991,-2.3041,-2.4982,-2.4612,-2.4859,-2.5716,-2.5077,-2.4784,-2.4671,-2.4132,-2.2982,0.0,0.0,0.0,0.0,-1.9075,-1.9075,-1.9131,-1.9142,-1.9253,-1.9358,-1.9162,-1.886,-1.8473,-1.7863,-1.7307,-1.6832,-1.6446,-1.6698,-1.7213,-1.7213,-1.8384,-1.9688,-1.9688,-1.9688,-1.9688,-1.9688,-1.9688,-1.9981,-2.1117,-2.1226,-2.1387,-2.255,-2.2519,-2.2633,-2.3862,-2.3533,-2.3097,-2.3083,-2.3083,-2.2887,-2.2269,-2.2723,-2.3216,-2.3551,-2.3894,-2.3984,-2.3639,-2.2817,-2.2301,-2.2301,-2.2301,-2.1971,-2.1155,-2.1782,-2.153,-2.0081,-2.06,-2.0557,-1.9827,-1.9726,-1.9726,-1.969,-1.969,-1.969,-1.969,-1.969,-1.969,-1.6652,-1.8043,-1.9397,-1.9388,-1.774,-1.6175,-1.5839,-1.3571,-1.1543,-1.1471,-1.0642,-1.0148,-1.1107,-1.1792,-1.2615,-1.3737,-1.4648,0.0,0.0,0.0,0.0,0.0,0.0,0.0,0.0,0.0,0.0,0.0,0.0,0.0,0.0,-1.9612,-2.0641,-2.1724,-2.2462,-2.3514,-2.4971,-2.4225,-2.422,-2.5153,-2.3743,-2.3547,-2.4551,-2.326,0.0,0.0,0.0,0.0,0.0,-1.9781,-1.9327,-1.8599,-1.8599,-1.8458,-1.827,-1.8396,-1.7936,-1.7222,-1.7293,-1.6922,-1.6498,-1.6591,-1.7056,-1.7579,-1.7733,-1.843,-1.9149,-1.9149,-1.9149,-1.9149,-1.9149,-1.9149,-1.9241,-1.9622,-1.9809,-2.0154,-2.0888,-2.1674,-2.2387,-2.272,-2.2943,-2.2957,-2.255,-2.256,-2.255,-2.2259,-2.2632,-2.3068,-2.3348,-2.3696,-2.3793,-2.3443,-2.3141,-2.257,-2.1581,-2.1467,-2.1155,-2.039,-2.0962,-2.1069,-2.0578,-2.0678,-2.0655,-2.043,-2.0378,-2.0154,-1.969,-1.969,-1.969,-1.969,-1.969,-1.969,-1.3413,-1.4865,-1.5942,-1.561,-1.4579,0.0,-1.2957,-1.1338,-1.008,-1.0431,-0.9896,-0.9797,-1.1083,-1.1859,-1.2627,-1.3806,-1.4745,-1.5622,0.0,0.0,0.0,0.0,0.0,0.0,0.0,0.0,0.0,0.0,0.0,0.0,0.0,0.0,-1.996,-2.1144,-2.2019,-2.3035,-2.4089,-2.3469,-2.3466,-2.4062,-2.319,-2.3138,-2.385,-2.3117,0.0,0.0,0.0,0.0,0.0,-1.9951,-1.9296,-1.8428,-1.8186,-1.7926,-1.7674,-1.8076,-1.7596,-1.6905,-1.7317,-1.7064,-1.6719,-1.7011,-1.7468,-1.7865,-1.803,-1.8302,-1.8609,-1.8609,-1.8721,-1.8879,-1.9064,-1.9183,-1.9297,-1.9567,-1.9711,-1.9927,-2.0547,-2.1349,-2.2142,-2.2776,-2.3196,-2.347,-2.3364,-2.3186,-2.3045,-2.2997,-2.2808,-2.29,-2.3555,-2.3643,-2.3541,-2.3323,-2.3247,-2.2631,-2.121,-2.1301,-2.1249,-2.0691,-2.0805,-2.0926,-2.1128,-2.088,-2.0842,-2.1081,-2.1081,-2.0752,-2.0079,-1.9809,-1.969,-1.969,-1.969,-1.969,0.0,-1.2011,-1.2956,-1.2644,0.0,-1.1146,-1.0207,-0.9596,0.0,-0.9013,-0.9453,-1.0305,-1.182,-1.2687,-1.3455,-1.4184,-1.5285,0.0,0.0,0.0,0.0,0.0,0.0,0.0,0.0,0.0,0.0,0.0,0.0,0.0,0.0,0.0,-1.9127,-1.9961,-2.1009,-2.1953,-2.2685,-2.2639,-2.2639,-2.2741,-2.3254,-2.3311,-2.2943,-2.3516,0.0,0.0,0.0,0.0,0.0,-1.9694,-1.9098,-1.849,-1.7913,-1.758,-1.7461,-1.7935,-1.7659,-1.7199,-1.7759,-1.7617,-1.7301,-1.7645,-1.792,-1.8139,-1.8193,-1.8139,-1.8139,-1.8139,-1.8499,-1.9018,-1.9471,-1.9743,-2.0089,-2.0699,-2.0668,-2.0688,-2.1331,-2.1518,-2.2032,-2.3792,-2.4075,-2.4244,-2.502,-2.4507,-2.4098,-2.4198,-2.3096,-2.2719,-2.3948,-2.3644,-2.3299,-2.332,-2.3243,-2.2644,-2.1311,-2.1751,-2.1957,-2.1672,-2.1151,-2.1113,-2.1665,-2.1156,-2.1141,-2.1754,-2.168,-2.1306,-2.0632,-1.9989,-1.969,-1.969,-1.969,-1.969,-0.5914,0.0,-0.9726,-0.8974,-0.8747,-0.8622,0.0,-0.7522,-0.7247,-0.8296,-0.8645,-0.9344,-1.1416,-1.225,-1.2976,-1.4172,-1.5059,-1.5743,0.0,0.0,0.0,0.0,0.0,0.0,0.0,0.0,0.0,0.0,0.0,0.0,0.0,0.0,-1.9424,-1.8847,-2.0439,-2.1777,-2.2673,-2.2294,-2.2428,-2.3068,-2.212,-2.2273,-2.3225,-2.2335,0.0,0.0,0.0,0.0,-2.0463,-2.0276,-1.9376,-1.8039,-1.7932,-1.7371,-1.6665,-1.6769,-1.6723,-1.6658,-1.7186,-1.7479,-1.7722,-1.8441,-1.8614,-1.856,-1.8869,-1.8774,-1.8637,-1.8637,-1.9287,-2.0005,-2.032,-2.0786,-2.1129,-2.1051,-2.1404,-2.1812,-2.1904,-2.2441,-2.3118,-2.3946,-2.3659,-2.3568,-2.4216,-2.3844,-2.3469,-2.3532,-2.3263,-2.3093,-2.3211,-2.326,-2.3391,-2.367,-2.3891,-2.381,-2.3355,-2.2425,-2.137,-2.025,-2.1015,-2.1569,-2.168,-2.2024,-2.2278,-2.2443,-2.1455,-2.0617,-1.9929,-1.9765,-1.969,-1.969,-1.969,-1.969,-0.3959,-0.5296,-0.6492,-0.6262,-0.6182,-0.6164,-0.6463,-0.6197,-0.6317,-0.7711,-0.8072,-0.883,-1.1216,-1.1858,-1.2523,-1.4082,-1.4945,0.0,0.0,0.0,0.0,0.0,0.0,0.0,0.0,0.0,0.0,0.0,0.0,0.0,0.0,0.0,-1.9002,-1.85,-1.9698,-2.0741,-2.1629,-2.1399,-2.1697,-2.2486,-2.1474,-2.1552,-2.2629,-2.1771,0.0,0.0,0.0,0.0,-2.055,-2.027,-1.9317,-1.7935,-1.7709,-1.7123,-1.6384,-1.6384,-1.6534,-1.6786,-1.7101,-1.7644,-1.8244,-1.8685,-1.8922,-1.9088,-1.9531,-1.9552,-1.9291,-1.9105,-1.9682,-2.0418,-2.0883,-2.1329,-2.1785,-2.2218,-2.2253,-2.2268,-2.2528,-2.2669,-2.2956,-2.3511,-2.3336,-2.3343,-2.4055,-2.3618,-2.3342,-2.3688,-2.3201,-2.2899,-2.3216,-2.3273,-2.3451,-2.3739,-2.3736,-2.3514,-2.3143,-2.2284,-2.1579,-2.112,-2.1171,-2.1515,-2.2113,-2.2203,-2.2368,-2.2667,-2.138,-2.0528,-2.0154,-1.9839,-1.969,-1.969,-1.969,-1.969,-0.3411,-0.3621,-0.4007,-0.449,-0.4432,-0.4497,-0.5297,-0.5574,-0.605,-0.7278,-0.7865,-0.881,-1.1276,-1.176,0.0,0.0,0.0,0.0,0.0,0.0,0.0,0.0,0.0,0.0,0.0,0.0,0.0,0.0,0.0,0.0,0.0,0.0,0.0,-1.8447,-1.8922,-1.9467,-2.011,-2.0239,-2.0728,-2.1466,-2.0946,-2.1093,-2.1765,-2.1506,-2.1368,0.0,0.0,0.0,-2.0526,-1.9988,-1.9155,-1.8038,-1.7534,-1.6955,-1.6384,-1.6384,-1.6694,-1.7101,-1.7313,-1.7958,-1.8766,-1.8915,-1.9174,-1.9547,-2.0176,-2.0175,-1.994,-1.9668,-2.0092,-2.0783,-2.1459,-2.1928,-2.2484,-2.3636,-2.33,-2.2831,-2.3168,-2.2915,-2.2732,-2.3168,-2.3216,-2.3455,-2.4191,-2.3716,-2.3441,-2.4127,-2.3158,-2.2621,-2.3392,-2.3389,-2.3363,-2.3566,-2.3341,-2.292,-2.2224,-2.1879,-2.1959,-2.2488,-2.1485,-2.141,-2.2664,-2.2209,-2.2134,-2.2559,-2.1398,-2.0685,-2.0557,-1.9974,-1.969,-1.969,-1.969,-1.969,-0.3132,-0.3735,-0.415,-0.427,-0.4695,-0.5216,-0.5652,-0.5914,-0.6421,-0.7605,-0.8429,0.0,0.0,-1.2419,-1.3086,0.0,0.0,0.0,0.0,0.0,0.0,0.0,0.0,0.0,0.0,0.0,0.0,0.0,0.0,0.0,0.0,0.0,0.0,-1.7846,-1.8742,-1.9081,-1.8791,-1.8988,-1.9512,-2.0358,-2.0229,-2.0658,-2.1537,-2.1041,-2.0844,0.0,0.0,-2.0012,-1.9936,-1.9833,-1.9129,-1.8093,-1.7984,-1.7346,-1.6384,-1.6384,-1.6431,-1.6694,-1.7754,-1.8546,-1.9208,-1.9813,-1.9862,-1.9823,-2.0297,-2.0246,-2.0042,-2.0385,-2.104,-2.186,-2.2773,-2.3548,-2.4235,-2.4693,-2.5078,-2.5064,-2.4174,-2.4301,-2.4418,-2.4047,-2.3772,-2.3794,-2.4425,-2.4009,-2.3669,-2.3836,-2.3359,-2.285,-2.2615,-2.3022,-2.3127,-2.2603,-2.3434,-2.3701,-2.2966,-2.2211,-2.1789,-2.1844,-2.1665,-2.1874,-2.2679,-2.2874,-2.2616,-2.1859,-2.1356,-2.0695,-1.9839,-1.9735,-1.969,-1.969,-1.969,-1.969,-0.3302,-0.3877,-0.4376,-0.4511,-0.5133,-0.5735,-0.6253,-0.6723,-0.7272,-0.829,0.0,0.0,0.0,0.0,-1.3518,-1.5774,0.0,0.0,0.0,0.0,0.0,0.0,0.0,0.0,0.0,0.0,0.0,0.0,0.0,0.0,0.0,0.0,0.0,0.0,-1.7233,-1.7192,-1.6809,-1.7027,-1.8149,-2.0122,-1.9966,-2.0297,-2.1016,-2.0162,-1.9936,-2.0162,0.0,-1.9547,-1.9798,-1.9798,-1.9109,-1.8093,-1.8093,-1.7401,-1.6431,-1.6751,-1.7067,-1.7457,-1.8417,-1.9224,-1.9748,-1.986,-2.0039,-2.0334,-2.0549,-2.0498,-2.0487,-2.1167,-2.1472,-2.183,-2.2603,-2.3004,-2.3482,-2.432,-2.4179,-2.3828,-2.3589,-2.3505,-2.3477,-2.3373,-2.3216,-2.3302,-2.3824,-2.3681,-2.3491,-2.3522,-2.3141,-2.2808,-2.2569,-2.2663,-2.2649,-2.2314,-2.2439,-2.2396,-2.2044,-2.1193,-2.064,-2.0602,-2.1291,-2.1829,-2.2143,-2.229,-2.2258,-2.1994,-2.0946,-2.0538,-2.0833,-2.0056,-2.018,-2.1081,-2.0128,-1.9884,-0.3413,-0.4119,-0.4758,-0.4938,-0.5555,-0.6325,-0.7048,-0.7654,-0.8397,-0.9432,0.0,0.0,0.0,-1.277,0.0,0.0,0.0,0.0,0.0,0.0,0.0,0.0,0.0,0.0,0.0,0.0,0.0,0.0,0.0,0.0,0.0,0.0,0.0,0.0,-1.5895,-1.5588,-1.5392,-1.5742,-1.7111,-1.9467,-1.9369,-1.9738,-2.0439,-1.9472,-1.9309,-1.9773,-1.9246,-1.9321,-1.9798,-1.9798,-1.9214,-1.8321,-1.8147,-1.7501,-1.6637,-1.7045,-1.7577,-1.8189,-1.8835,-1.9382,-1.9784,-1.9494,-1.9885,-2.0502,-2.0502,-2.0607,-2.0841,-2.1427,-2.1529,-2.1559,-2.2283,-2.2422,-2.2676,-2.385,-2.3371,-2.2704,-2.3027,-2.2732,-2.248,-2.2723,-2.283,-2.3024,-2.3436,-2.3494,-2.348,-2.3407,-2.3024,-2.2694,-2.2694,-2.2338,-2.207,-2.1931,-2.1427,-2.1094,-2.1002,-2.0362,-1.9854,-1.969,-2.0797,-2.147,-2.147,-2.1684,-2.1955,-2.2232,-2.1057,-2.0967,-2.2046,-2.0813,-2.0849,-2.2015,-2.0506,-2.0032,-0.3413,-0.4568,-0.5555,-0.5321,-0.603,-0.6971,-0.7981,-0.8694,-0.9639,-1.1193,0.0,0.0,0.0,-1.3972,0.0,0.0,0.0,0.0,0.0,0.0,0.0,0.0,0.0,0.0,0.0,0.0,0.0,0.0,0.0,0.0,0.0,0.0,0.0,0.0,0.0,-1.5392,-1.5392,-1.6137,-1.6887,-1.7601,-1.8045,-1.88,-1.9849,-1.9284,-1.9309,-1.9773,-1.9246,-1.9321,-1.9798,-1.9798,-1.9448,-1.8881,-1.8321,-1.771,-1.7157,-1.7202,-1.7568,-1.8115,-1.8432,-1.8621,-1.8755,-1.8897,-1.9381,-1.9865,-1.9865,-2.0244,-2.0712,-2.0751,-2.1073,-2.1607,-2.2454,-2.2874,-2.321,-2.3949,-2.4047,-2.3822,-2.321,-2.3069,-2.3036,-2.2976,-2.3275,-2.3638,-2.3979,-2.4021,-2.3994,-2.3797,-2.3157,-2.2694,-2.2694,-2.2026,-2.1327,-2.0781,-2.0984,-2.1064,-2.075,-2.0654,-2.0363,-1.9735,-2.0378,-2.0782,-2.0782,-2.166,-2.2194,-2.2278,-2.2467,-2.2639,-2.283,-2.2043,-2.1549,-2.1358,-2.0547,-2.001,-0.3302,-0.4386,-0.5302,-0.5179,-0.6406,-0.7757,-0.8435,-0.9329,-1.0297,-1.1339,-1.2027,0.0,0.0,0.0,0.0,0.0,0.0,0.0,0.0,0.0,0.0,0.0,0.0,0.0,0.0,0.0,0.0,0.0,0.0,0.0,0.0,0.0,0.0,0.0,0.0,-1.4433,-1.4275,-1.5185,-1.5959,-1.6492,-1.763,-1.8411,-1.8794,-1.8254,-1.8493,-1.9284,-1.8756,-1.9007,-1.9798,-1.9798,-1.9267,-1.8375,-1.7765,-1.7203,-1.6721,-1.7142,-1.7456,-1.7738,-1.7934,-1.8282,-1.8642,-1.8474,-1.9041,-1.9734,-1.9355,-1.9904,-2.0749,-2.0848,-2.1131,-2.1477,-2.1792,-2.2187,-2.2592,-2.2831,-2.2935,-2.2831,-2.2578,-2.2616,-2.2826,-2.3275,-2.3551,-2.3867,-2.4328,-2.441,-2.4328,-2.4135,-2.3696,-2.3334,-2.329,-2.2417,-2.1541,-2.0864,-2.033,-2.0038,-2.0087,-2.0079,-2.0154,-2.0318,-2.0961,-2.1321,-2.1321,-2.2109,-2.2641,-2.2862,-2.2607,-2.2965,-2.3867,-2.2933,-2.2864,-2.3497,-2.1693,-2.1133,-0.3236,-0.42,-0.5093,-0.5311,-0.6689,-0.8244,-0.9256,-1.0156,-1.113,-1.2066,-1.3041,-1.3859,-1.4459,0.0,0.0,0.0,0.0,0.0,0.0,0.0,0.0,0.0,0.0,0.0,0.0,0.0,0.0,0.0,0.0,0.0,0.0,0.0,0.0,0.0,0.0,-1.3868,-1.3847,-1.4686,-1.544,-1.6077,-1.7327,-1.8004,-1.8191,-1.7639,-1.789,-1.8744,-1.8367,-1.8719,-1.9572,-1.953,-1.8963,-1.8015,-1.7476,-1.7111,-1.6991,-1.7439,-1.7683,-1.7798,-1.7964,-1.8194,-1.8429,-1.8369,-1.8767,-1.9224,-1.8976,-1.9698,-2.0571,-2.0718,-2.1129,-2.152,-2.152,-2.1841,-2.2184,-2.2184,-2.2184,-2.2231,-2.2231,-2.2324,-2.2678,-2.3595,-2.3824,-2.4078,-2.463,-2.471,-2.4567,-2.4066,-2.369,-2.3438,-2.3295,-2.2322,-2.1296,-2.0534,-1.988,-1.9534,-1.9516,-1.9617,-1.9989,-2.0677,-2.1335,-2.1695,-2.1655,-2.2282,-2.2776,-2.3096,-2.2931,-2.349,-2.477,-2.3863,-2.3786,-2.4414,-2.2603,-2.1947,-0.3159,-0.4183,-0.5153,-0.582,-0.6853,-0.8286,-1.0411,-1.138,-1.2206,-1.3684,-1.4533,-1.4997,-1.4973,0.0,0.0,0.0,0.0,0.0,0.0,0.0,0.0,0.0,0.0,0.0,0.0,0.0,0.0,0.0,0.0,0.0,0.0,0.0,0.0,0.0,0.0,0.0,-1.4373,-1.4869,-1.5567,-1.6502,-1.6964,-1.754,-1.8166,-1.7626,-1.7677,-1.8204,-1.8204,-1.8518,-1.9021,-1.8979,-1.8643,-1.8035,-1.7583,-1.7686,-1.8094,-1.8234,-1.8314,-1.8414,-1.8634,-1.8351,-1.8007,-1.8656,-1.8532,-1.8192,-1.8728,-1.9489,-2.0201,-2.0201,-2.0948,-2.1779,-2.1793,-2.1983,-2.2217,-2.2184,-2.2184,-2.2231,-2.237,-2.2417,-2.2768,-2.3894,-2.412,-2.4287,-2.4886,-2.5005,-2.4611,-2.3489,-2.3021,-2.2761,-2.2622,-2.1547,-2.0454,-1.95,-1.9832,-1.9822,-1.9159,-1.9472,-1.9989,-2.0677,-2.1335,-2.1655,-2.1535,-2.2144,-2.2637,-2.293,-2.3712,-2.4542,-2.5406,-2.4802,-2.4178,-2.3515,-2.3064,-2.2238,-0.2837,-0.4033,-0.5155,-0.6176,-0.7187,0.0,0.0,-1.084,0.0,0.0,-1.452,-1.4624,-1.4954,0.0,0.0,0.0,0.0,0.0,0.0,0.0,0.0,0.0,0.0,0.0,0.0,0.0,0.0,0.0,0.0,0.0,0.0,0.0,0.0,0.0,0.0,0.0,-1.4373,-1.4829,-1.5266,-1.5786,-1.637,-1.7113,-1.7895,-1.7453,-1.7557,-1.8068,-1.8168,-1.8518,-1.8933,-1.8195,-1.7722,-1.7507,-1.7002,-1.6936,-1.717,-1.757,-1.7612,-1.7462,-1.7866,-1.7761,-1.7486,-1.7969,-1.8123,-1.8127,-1.8283,-1.8922,-1.9567,-1.9567,-2.0039,-2.0633,-2.1061,-2.1524,-2.1983,-2.2165,-2.2402,-2.2526,-2.2417,-2.2904,-2.3523,-2.4036,-2.4313,-2.4558,-2.4926,-2.4846,-2.4567,-2.4081,-2.3902,-2.3595,-2.3009,-2.184,-2.0874,-2.0481,-1.9835,-1.9418,-1.9523,-1.9654,-2.0183,-2.1335,-2.159,-2.1904,-2.2327,-2.2884,-2.3426,-2.3897,-2.4312,-2.4831,-2.5465,-2.5615,-2.5439,-2.4871,-2.4329,-2.3978,-0.2941,-0.4319,-0.5624,-0.6684,-0.7715,-0.8875,-1.0363,0.0,0.0,0.0,0.0,-1.4437,0.0,0.0,0.0,0.0,0.0,0.0,0.0,0.0,0.0,0.0,0.0,0.0,0.0,0.0,0.0,0.0,0.0,0.0,0.0,0.0,0.0,0.0,0.0,0.0,-1.4072,-1.4317,-1.4874,-1.5724,-1.6349,-1.7097,-1.7932,-1.741,-1.7395,-1.7661,-1.7601,-1.7629,-1.7718,-1.707,-1.6903,-1.6991,-1.6781,-1.6823,-1.7066,-1.7505,-1.751,-1.735,-1.7907,-1.795,-1.7787,-1.8356,-1.8283,-1.7988,-1.8066,-1.8557,-1.9087,-1.9087,-1.9615,-2.0269,-2.075,-2.131,-2.1917,-2.2292,-2.2754,-2.3024,-2.2994,-2.3465,-2.3994,-2.423,-2.4338,-2.4477,-2.4791,-2.4533,-2.4194,-2.3851,-2.3483,-2.3111,-2.2621,-2.1857,-2.116,-2.0654,-2.006,-1.9641,-1.9487,-1.9856,-2.0557,-2.162,-2.1934,-2.2383,-2.3011,-2.3344,-2.3711,-2.412,-2.4338,-2.4808,-2.5465,-2.5775,-2.5717,-2.5334,-2.5078,-2.4874,-0.3324,-0.4861,-0.6334,-0.7291,-0.8355,0.0,-1.0854,-1.248,-1.3893,-1.4443,0.0,0.0,0.0,0.0,0.0,0.0,0.0,0.0,0.0,0.0,0.0,0.0,0.0,0.0,0.0,0.0,0.0,0.0,0.0,0.0,0.0,0.0,0.0,0.0,0.0,0.0,-1.3593,-1.3628,-1.4403,0.0,-1.6603,-1.733,-1.8021,-1.7517,-1.7225,-1.7135,-1.6831,-1.6419,-1.5974,-1.599,-1.624,-1.661,-1.6679,-1.7024,-1.7517,-1.7795,-1.7856,-1.7869,-1.8535,-1.8617,-1.8618,-1.9289,-1.8737,-1.7828,-1.7968,-1.8312,-1.8682,-1.8725,-1.9432,-2.0302,-2.0653,-2.1253,-2.1961,-2.2553,-2.3157,-2.3608,-2.3588,-2.3861,-2.4214,-2.4424,-2.4307,-2.4245,-2.4451,-2.4147,-2.3682,-2.3173,-2.2405,-2.1909,-2.1949,-2.1839,-2.1396,-2.0377,-2.0507,-2.0287,-1.9234,-2.0093,-2.0991,-2.1665,-2.2308,-2.2951,-2.358,-2.3581,-2.3696,-2.4006,-2.4147,-2.4623,-2.546,-2.5519,-2.5432,-2.5226,-2.5464,-2.5253,-0.3384,-0.4931,-0.6502,-0.7599,-0.9256,-1.0629,-1.0561,-1.1869,-1.3261,-1.3921,-1.4165,0.0,0.0,0.0,0.0,0.0,0.0,0.0,0.0,0.0,0.0,0.0,0.0,0.0,0.0,0.0,0.0,0.0,0.0,0.0,0.0,0.0,0.0,0.0,0.0,-1.3429,-1.3593,-1.3855,-1.4432,0.0,-1.6041,-1.6581,-1.6959,-1.7431,-1.7323,-1.6732,-1.7074,-1.6954,-1.6443,-1.6575,-1.6561,-1.6515,-1.6329,-1.6777,-1.7536,-1.7703,-1.7977,-1.8397,-1.8849,-1.8782,-1.8517,-1.8705,-1.8328,-1.7733,-1.7481,-1.7591,-1.784,-1.8018,-1.8519,-1.9154,-1.9907,-2.0984,-2.2024,-2.264,-2.3278,-2.3411,-2.2196,-2.3275,-2.4296,-2.369,-2.4055,-2.4369,-2.3964,-2.3666,-2.3405,-2.3156,-2.2936,-2.2934,-2.3176,-2.2798,-2.2203,-2.1426,-2.0983,-2.04,-1.9641,-2.0281,-2.0991,-2.1665,-2.2308,-2.2951,-2.358,-2.3867,-2.4188,-2.4664,-2.4981,-2.5422,-2.6043,-2.6043,-2.5997,-2.5971,-2.6013,-2.5961,-0.3692,-0.5119,-0.6632,-0.8114,0.0,-1.0407,-1.0391,-1.1345,-1.2452,-1.3055,0.0,0.0,0.0,0.0,0.0,0.0,0.0,0.0,0.0,0.0,0.0,0.0,0.0,0.0,0.0,0.0,0.0,0.0,0.0,0.0,0.0,0.0,0.0,0.0,-1.2193,-1.2703,-1.2869,-1.3228,-1.3846,-1.4742,-1.5449,-1.6129,-1.6821,-1.7302,-1.7076,-1.63,-1.6536,-1.6411,-1.6068,-1.6329,-1.639,-1.6341,-1.6701,-1.716,-1.7639,-1.7948,-1.8383,-1.8822,-1.9026,-1.9087,-1.8997,-1.8616,-1.8344,-1.8028,-1.7393,-1.7365,-1.757,-1.7828,-1.8149,-1.8599,-1.9445,-2.0425,-2.1338,-2.1933,-2.3172,-2.3886,-2.2686,-2.3668,-2.4507,-2.356,-2.3881,-2.4105,-2.3565,-2.3128,-2.2815,-2.2649,-2.2584,-2.2571,-2.2745,-2.2468,-2.2149,-2.2009,-2.166,-2.1333,-2.0968,-2.1576,-2.2007,-2.2184,-2.2745,-2.3238,-2.3595,-2.3937,-2.4354,-2.4902,-2.5059,-2.5497,-2.622,-2.622,-2.622,-2.622,-2.622,-2.622,-0.4025,-0.5381,-0.6859,-0.8547,-0.9221,0.0,-1.0138,-1.0931,-1.1715,0.0,0.0,0.0,0.0,0.0,0.0,0.0,0.0,0.0,0.0,0.0,0.0,0.0,0.0,0.0,0.0,0.0,0.0,0.0,0.0,0.0,0.0,0.0,-1.1163,-1.0428,-1.1169,-1.1774,-1.2113,-1.2496,-1.3263,-1.4332,-1.5023,-1.5958,-1.6961,-1.705,-1.6663,-1.5988,-1.5976,-1.5832,-1.5555,-1.5976,-1.6194,-1.6343,-1.7325,-1.776,-1.7868,-1.8422,-1.886,-1.9213,-1.9213,-1.942,-1.9566,-1.8846,-1.8553,-1.8383,-1.7639,-1.7475,-1.7639,-1.7975,-1.8175,-1.8489,-1.9288,-1.9983,-2.0609,-2.1161,-2.2809,-2.4035,-2.3476,-2.4053,-2.439,-2.3483,-2.332,-2.3268,-2.3084,-2.2412,-2.1923,-2.2067,-2.2024,-2.2019,-2.2192,-2.2174,-2.2243,-2.2463,-2.2523,-2.2514,-2.2428,-2.2933,-2.3151,-2.2776,-2.3238,-2.3494,-2.3566,-2.3809,-2.425,-2.4876,-2.5076,-2.5474,-2.6043,-2.63,-2.6336,-2.622,-2.622,-2.622,-0.4278,0.0,-0.75,0.0,-0.8854,-0.9211,0.0,0.0,-1.1466,0.0,0.0,0.0,0.0,0.0,0.0,0.0,0.0,0.0,0.0,0.0,0.0,0.0,0.0,0.0,0.0,0.0,0.0,0.0,0.0,0.0,0.0,-1.084,-1.0817,-1.0418,-1.1431,-1.2041,-1.2113,-1.2791,-1.3547,-1.4388,-1.5319,-1.6098,-1.6803,-1.668,-1.6363,-1.6044,-1.6522,-1.6454,-1.6071,-1.6637,-1.682,-1.6863,-1.7516,-1.7948,-1.8266,-1.8822,-1.9273,-1.9617,-1.9617,-1.9654,-1.9617,-1.9176,-1.8784,-1.8461,-1.8344,-1.8068,-1.7908,-1.8588,-1.8793,-1.893,-1.9573,-2.0249,-2.082,-2.1197,-2.1969,-2.257,-2.2478,-2.2948,-2.3145,-2.2501,-2.1602,-2.1269,-2.2267,-2.115,-2.0576,-2.1918,-2.2058,-2.2369,-2.3244,-2.3697,-2.3754,-2.3218,-2.3467,-2.3443,-2.2885,-2.311,-2.324,-2.3081,-2.3335,-2.3451,-2.3348,-2.3407,-2.3864,-2.4902,-2.5869,-2.6096,-2.5497,-2.6615,-2.6816,-2.622,-2.622,-2.622,-0.4246,-0.5488,-0.6839,0.0,-0.8545,-0.9038,-0.9974,0.0,0.0,0.0,0.0,0.0,0.0,0.0,0.0,0.0,0.0,0.0,0.0,0.0,0.0,0.0,0.0,0.0,0.0,0.0,0.0,0.0,0.0,0.0,-1.0583,-1.0567,-1.0477,-1.0205,-1.1442,-1.2113,-1.2113,-1.2896,-1.3702,-1.4547,-1.5656,-1.6145,-1.6081,-1.6377,-1.6451,-1.6404,-1.6401,-1.6526,-1.6714,-1.66,-1.687,-1.7475,-1.7988,-1.8422,-1.8822,-1.9273,-1.9545,-1.969,-1.969,-1.969,-1.9603,-1.8974,-1.8784,-1.8745,-1.8266,-1.8147,-1.8305,-1.8779,-1.8893,-1.9043,-1.963,-1.9999,-2.044,-2.1142,-2.1388,-2.178,-2.2898,-2.311,-2.3102,-2.3087,-2.1927,-2.1221,-2.202,-2.086,-2.0223,-2.1506,-2.1955,-2.236,-2.3113,-2.3867,-2.4261,-2.4201,-2.456,-2.4681,-2.4397,-2.4423,-2.4225,-2.3687,-2.3673,-2.3702,-2.3791,-2.379,-2.413,-2.4951,-2.5715,-2.6222,-2.6519,-2.7388,-2.7474,-2.6816,-2.6816,-2.6584,-0.4161,0.0,-0.6237,-0.7473,-0.815,-0.8889,0.0,0.0,0.0,0.0,0.0,0.0,0.0,0.0,0.0,0.0,0.0,0.0,0.0,0.0,0.0,0.0,0.0,0.0,0.0,0.0,0.0,0.0,0.0,0.0,-1.0504,-1.0489,-1.0361,-1.0019,-1.1367,-1.2113,-1.2113,-1.316,-1.4019,-1.4721,-1.5794,-1.601,-1.5464,-1.6013,-1.628,-1.6273,-1.5997,-1.6216,-1.6741,-1.6387,-1.6798,-1.7664,-1.8249,-1.8745,-1.9139,-1.953,-1.969,-1.969,-1.969,-1.9654,-1.9472,-1.886,-1.8707,-1.8707,-1.8266,-1.8305,-1.8577,-1.9058,-1.9132,-1.9207,-1.9752,-1.9874,-1.9995,-2.0865,-2.0917,-2.1201,-2.286,-2.3095,-2.3004,-2.3236,-2.1843,-2.0809,-2.1524,-2.0489,-1.9998,-2.1179,-2.181,-2.2257,-2.2761,-2.3788,-2.4496,-2.4626,-2.5255,-2.5668,-2.5631,-2.5476,-2.5091,-2.4395,-2.3994,-2.3953,-2.431,-2.4124,-2.4411,-2.5165,-2.5833,-2.6471,-2.7127,-2.7908,-2.8024,-2.7507,-2.7363,-2.6998,0.0,-0.5014,0.0,-0.6936,-0.7797,0.0,0.0,0.0,0.0,0.0,0.0,0.0,0.0,0.0,0.0,0.0,0.0,0.0,0.0,0.0,0.0,0.0,0.0,0.0,0.0,0.0,0.0,0.0,0.0,0.0,-1.0077,-1.0584,-1.0613,-1.0019,-1.1367,-1.2113,-1.2113,-1.3663,-1.4658,-1.5074,-1.5581,-1.5669,-1.5327,-1.5538,-1.5468,-1.5194,-1.5425,-1.5552,-1.563,-1.6166,-1.6664,-1.7131,-1.8121,-1.8745,-1.9139,-1.953,-1.969,-1.969,-1.969,-1.9472,-1.9139,-1.9064,-1.85,-1.7988,-1.8784,-1.8784,-1.8693,-1.9654,-1.9726,-1.9588,-2.0115,-2.003,-1.9874,-2.0266,-2.054,-2.0863,-2.1494,-2.2092,-2.2385,-2.1904,-2.0103,-1.9035,-2.0189,-1.9584,-1.9501,-2.1083,-2.1763,-2.2252,-2.2661,-2.3968,-2.4611,-2.404,-2.5273,-2.6115,-2.5974,-2.5605,-2.5301,-2.5052,-2.4271,-2.4055,-2.4552,-2.417,-2.4471,-2.5705,-2.6771,-2.704,-2.6463,-2.781,-2.8362,-2.8135,-2.7557,-2.7284,0.0,0.0,0.0,-0.6947,-0.735,-0.7948,0.0,0.0,0.0,0.0,0.0,0.0,0.0,0.0,0.0,0.0,0.0,0.0,0.0,0.0,0.0,0.0,0.0,0.0,0.0,0.0,0.0,0.0,0.0,0.0,-1.0039,-1.0215,-1.0215,-1.0029,-1.1367,-1.2484,-1.3306,-1.436,-1.5013,-1.5225,-1.561,-1.5522,-1.498,-1.5051,-1.4684,-1.4028,-1.4297,-1.4807,-1.5511,-1.5561,-1.601,-1.68,-1.7398,-1.7853,-1.8273,-1.8862,-1.9061,-1.9086,-1.9251,-1.9213,-1.9026,-1.8461,-1.8266,-1.8305,-1.863,-1.8784,-1.9049,-1.9777,-1.9919,-1.9869,-2.0235,-2.022,-2.0239,-2.0745,-2.1093,-2.1258,-2.1156,-2.1645,-2.2025,-2.1762,-2.0306,-1.9318,-2.0161,-1.9453,-1.9195,-2.0454,-2.1424,-2.2076,-2.2339,-2.3857,-2.475,-2.4328,-2.553,-2.6295,-2.6243,-2.6208,-2.5941,-2.5406,-2.4989,-2.4885,-2.5181,-2.504,-2.5423,-2.6402,-2.6828,-2.7327,-2.7891,-2.903,-2.9377,-2.894,-2.8307,-2.7765,-0.427,0.0,0.0,0.0,0.0,-0.7688,0.0,0.0,0.0,0.0,0.0,0.0,0.0,0.0,0.0,0.0,0.0,0.0,0.0,0.0,0.0,0.0,0.0,0.0,0.0,0.0,0.0,0.0,0.0,0.0,-1.0388,-1.0332,-1.0448,-1.0697,-1.1752,-1.2916,-1.4149,-1.4783,-1.5225,-1.5477,-1.5697,-1.5448,-1.4808,-1.4808,-1.4351,-1.3527,-1.3708,-1.4185,-1.4813,-1.5015,-1.5579,-1.6408,-1.7145,-1.7661,-1.8134,-1.8792,-1.9031,-1.9021,-1.9104,-1.9026,-1.8784,-1.8028,-1.7908,-1.8108,-1.8422,-1.8707,-1.9049,-1.9777,-2.0005,-2.0041,-2.0235,-2.027,-2.0357,-2.0844,-2.1093,-2.1092,-2.0758,-2.1198,-2.1553,-2.1114,-2.0094,-1.9407,-1.9833,-1.935,-1.9294,-2.0387,-2.114,-2.1718,-2.214,-2.3576,-2.4515,-2.4368,-2.5576,-2.6453,-2.6521,-2.6556,-2.6332,-2.5705,-2.5449,-2.5431,-2.5727,-2.5601,-2.5908,-2.6765,-2.6974,-2.7494,-2.8432,-2.9287,-2.968,-2.9724,-2.882,-2.786,0.0,0.0,0.0,0.0,0.0,0.0,0.0,0.0,0.0,0.0,0.0,0.0,0.0,0.0,0.0,0.0,0.0,0.0,0.0,0.0,0.0,0.0,0.0,0.0,0.0,0.0,0.0,0.0,0.0,-1.0931,-1.1104,-1.0972,-1.126,-1.2077,-1.2531,-1.3302,-1.4501,-1.4907,-1.5359,-1.5799,-1.5799,-1.5433,-1.4808,-1.4777,-1.4415,-1.3788,-1.3788,-1.3641,-1.3497,-1.4646,-1.5365,-1.5919,-1.7467,-1.8297,-1.8732,-1.939,-1.963,-1.9594,-1.9155,-1.8765,-1.838,-1.7907,-1.7476,-1.7338,-1.8198,-1.8486,-1.8693,-1.969,-2.0005,-2.0041,-2.0235,-2.0185,-2.0185,-2.041,-2.0444,-2.0342,-2.0208,-2.0767,-2.0937,-1.9918,-1.9398,-1.9101,-1.9101,-1.9205,-1.968,-2.0843,-2.0959,-2.1204,-2.2087,-2.3208,-2.3959,-2.4017,-2.5464,-2.6521,-2.6774,-2.6691,-2.6469,-2.6046,-2.5615,-2.5592,-2.6166,-2.5772,-2.5942,-2.6788,-2.7225,-2.7615,-2.7898,-2.8401,-2.9255,-3.0342,-2.9013,-2.7611,-0.4899,0.0,0.0,0.0,0.0,0.0,0.0,0.0,0.0,0.0,0.0,0.0,0.0,0.0,0.0,0.0,0.0,0.0,0.0,0.0,0.0,0.0,0.0,0.0,0.0,0.0,0.0,0.0,-1.0726,-1.0618,-1.0641,-1.0791,-1.1238,-1.215,-1.2936,-1.373,-1.4564,-1.5255,-1.5668,-1.5799,-1.5551,-1.5209,-1.4763,-1.431,-1.3855,-1.3506,-1.3506,-1.3581,-1.3756,-1.4533,-1.4952,-1.5195,-1.6574,-1.7169,-1.7339,-1.8029,-1.8268,-1.8153,-1.7504,-1.722,-1.7004,-1.6364,-1.6376,-1.6731,-1.7242,-1.7957,-1.8693,-1.9384,-1.9818,-2.008,-2.015,-2.015,-2.015,-2.0376,-2.0204,-1.9995,-2.0174,-2.0167,-2.0029,-1.9756,-1.9398,-1.9101,-1.9101,-1.9132,-1.9267,-1.9595,-2.0489,-2.1301,-2.1827,-2.3315,-2.4509,-2.4963,-2.5967,-2.6708,-2.6925,-2.704,-2.7023,-2.6791,-2.6453,-2.6336,-2.6543,-2.6243,-2.6273,-2.6664,-2.6865,-2.7494,-2.8496,-2.8934,-2.9451,-2.9951,-2.8876,-2.7914,0.0,0.0,0.0,0.0,0.0,0.0,-0.9106,-1.0108,0.0,0.0,0.0,0.0,0.0,0.0,0.0,0.0,0.0,0.0,0.0,0.0,0.0,0.0,0.0,0.0,0.0,0.0,0.0,0.0,-1.1096,-1.1012,-1.1012,-1.1381,-1.1892,-1.2473,-1.3283,-1.3993,-1.4596,-1.5255,-1.558,-1.558,-1.5389,-1.4982,-1.4374,-1.3797,-1.3467,-1.3378,-1.317,-1.3415,-1.4052,-1.456,-1.4887,-1.5129,-1.6275,-1.6712,-1.6786,-1.7443,-1.7697,-1.7584,-1.687,-1.6578,-1.6487,-1.5734,-1.5905,-1.6507,-1.6998,-1.7755,-1.8606,-1.931,-1.9818,-2.01,-2.01,-2.0045,-2.001,-2.01,-1.996,-1.9797,-1.9945,-1.9854,-1.969,-1.969,-1.9508,-1.9362,-1.9362,-1.9362,-1.9472,-1.9923,-2.0446,-2.1171,-2.2343,-2.3423,-2.4508,-2.559,-2.635,-2.7006,-2.7373,-2.7434,-2.7404,-2.7195,-2.6875,-2.6701,-2.6722,-2.6209,-2.609,-2.6487,-2.6634,-2.7527,-2.9088,-2.9088,-2.9307,-2.9623,-2.8784,-2.7976,0.0,0.0,0.0,0.0,0.0,0.0,-0.9184,-0.9647,-1.0159,0.0,0.0,0.0,0.0,0.0,0.0,0.0,0.0,0.0,0.0,0.0,0.0,0.0,0.0,0.0,0.0,0.0,-1.1921,-1.1683,-1.1675,-1.165,-1.1704,-1.2308,-1.2742,-1.2896,-1.3582,-1.4167,-1.461,-1.5043,-1.5255,-1.5299,-1.5225,-1.4707,-1.3848,-1.3359,-1.3265,-1.3433,-1.2922,-1.3342,-1.4397,-1.4763,-1.5058,-1.5387,-1.6321,-1.6712,-1.6786,-1.7369,-1.7578,-1.7466,-1.6698,-1.6382,-1.6292,-1.5535,-1.5786,-1.6441,-1.7002,-1.7713,-1.8503,-1.9457,-1.994,-2.01,-2.0065,-1.994,-1.9797,-1.9797,-1.9726,-1.969,-1.969,-1.969,-1.9711,-1.9747,-1.9747,-1.9747,-1.9747,-1.9782,-2.0122,-2.1024,-2.0663,-2.1049,-2.3149,-2.3515,-2.4216,-2.6,-2.6691,-2.7244,-2.7911,-2.7806,-2.7595,-2.7396,-2.7068,-2.6842,-2.6759,-2.5989,-2.5796,-2.639,-2.6734,-2.7721,-2.95,-2.9057,-2.901,-2.94,-2.8787,-2.8031,0.0,0.0,0.0,0.0,0.0,0.0,-1.1863,-1.2518,-1.3136,0.0,0.0,0.0,0.0,0.0,0.0,0.0,0.0,0.0,0.0,0.0,0.0,0.0,0.0,0.0,0.0,-1.1358,-1.1103,-1.1499,-1.1397,-1.1445,-1.1778,-1.222,-1.2635,-1.2962,-1.3729,-1.4353,-1.4763,-1.4856,-1.5027,-1.5285,-1.4749,-1.4369,-1.4176,-1.3598,-1.3491,-1.3708,-1.3605,-1.4009,-1.4746,-1.5285,-1.5433,-1.5387,-1.6321,-1.6712,-1.6726,-1.6861,-1.6906,-1.6738,-1.557,-1.5145,-1.5031,-1.4339,-1.4928,-1.5995,-1.6386,-1.7627,-1.9101,-1.9818,-2.0065,-2.0065,-1.9904,-1.9833,-1.9797,-1.9726,-1.9726,-1.969,-1.969,-1.969,-1.9782,-2.005,-2.0104,-2.0104,-2.0104,-2.0361,-2.066,-2.0868,-2.1005,-2.1649,-2.3286,-2.3719,-2.4646,-2.6597,-2.6952,-2.7213,-2.7701,-2.773,-2.776,-2.7882,-2.7539,-2.7282,-2.7094,-2.6669,-2.6623,-2.701,-2.7664,-2.8252,-2.8785,-2.9311,-2.9507,-2.9417,-2.922,-2.8711,0.0,0.0,0.0,-1.3541,0.0,0.0,0.0,-1.281,-1.2675,0.0,0.0,0.0,0.0,0.0,0.0,0.0,0.0,0.0,0.0,0.0,0.0,0.0,0.0,0.0,0.0,-1.1019,-1.1032,-1.1659,-1.1414,-1.1531,-1.211,-1.2295,-1.2834,-1.3784,-1.3886,-1.4265,-1.4938,-1.4695,-1.456,-1.4537,-1.42,-1.3822,-1.3387,-1.2663,-1.2824,-1.3576,-1.3172,-1.386,-1.5255,-1.5565,-1.5796,-1.6011,-1.6475,-1.6484,-1.6263,-1.6381,-1.6367,-1.6144,-1.5325,-1.5058,-1.498,-1.4447,-1.5203,-1.6352,-1.6635,-1.7964,-1.9472,-1.9818,-1.994,-1.9904,-1.9797,-1.9741,-1.9669,-1.956,-1.9545,-1.956,-1.9632,-1.9632,-1.9762,-2.0139,-2.0361,-2.0496,-2.0496,-2.0679,-2.086,-2.1023,-2.1183,-2.1761,-2.3031,-2.3671,-2.466,-2.6367,-2.6862,-2.7338,-2.7893,-2.795,-2.8025,-2.8136,-2.7806,-2.7666,-2.7779,-2.7097,-2.6942,-2.7294,-2.7872,-2.8273,-2.8518,-2.9255,-2.956,-2.9473,-2.8966,-2.8721,0.0,0.0,0.0,0.0,0.0,-1.5676,0.0,0.0,0.0,-1.1269,0.0,0.0,0.0,0.0,0.0,0.0,0.0,0.0,0.0,0.0,0.0,0.0,0.0,0.0,0.0,-1.0547,-1.0782,-1.1254,-1.1156,-1.139,-1.2166,-1.2443,-1.3062,-1.4209,-1.3903,-1.411,-1.485,-1.4306,-1.3967,-1.3782,-1.3696,-1.3272,-1.2614,-1.1956,-1.2341,-1.3491,-1.2991,-1.3869,-1.5681,-1.5881,-1.6215,-1.6596,-1.6528,-1.6274,-1.5898,-1.6052,-1.5983,-1.5741,-1.5418,-1.5299,-1.5239,-1.4918,-1.5768,-1.7024,-1.749,-1.8628,-1.9747,-1.9726,-1.9762,-1.9732,-1.9525,-1.9439,-1.9345,-1.9236,-1.9133,-1.9089,-1.933,-1.9381,-1.9546,-2.0023,-2.0485,-2.0827,-2.0893,-2.0958,-2.1071,-2.1371,-2.1433,-2.1802,-2.2777,-2.3499,-2.45,-2.5941,-2.6688,-2.7365,-2.8136,-2.8209,-2.8264,-2.8327,-2.8017,-2.7964,-2.8331,-2.7446,-2.7218,-2.7759,-2.7956,-2.8184,-2.845,-2.8936,-2.9218,-2.933,-2.8817,-2.8779,0.0,0.0,0.0,0.0,-1.7596,0.0,0.0,0.0,-1.5261,-1.4173,0.0,0.0,0.0,0.0,0.0,0.0,0.0,0.0,0.0,0.0,0.0,0.0,0.0,0.0,0.0,0.0,-0.9306,-0.9175,-0.9774,-1.0442,-1.1157,-1.2415,-1.3042,-1.2944,-1.3616,-1.3963,-1.3967,-1.3357,-1.3319,-1.3782,-1.3251,-1.3057,-1.3113,-1.3023,-1.3339,-1.3954,-1.4539,-1.5081,-1.5681,-1.6523,-1.6763,-1.657,-1.634,-1.6203,-1.612,-1.5926,-1.5827,-1.5741,-1.5418,-1.5299,-1.5239,-1.4918,-1.5998,-1.7648,-1.8986,-1.9713,-2.001,-1.9833,-1.9762,-1.9555,-1.8902,-1.8698,-1.8608,-1.8608,-1.8165,-1.7865,-1.8475,-1.8663,-1.891,-1.9624,-2.0335,-2.0893,-2.1183,-2.1495,-2.1691,-2.1738,-2.194,-2.2279,-2.2822,-2.3393,-2.4351,-2.5932,-2.6382,-2.7021,-2.8101,-2.8246,-2.8353,-2.8466,-2.8309,-2.8182,-2.805,-2.7707,-2.8027,-2.9066,-2.8537,-2.84,-2.8678,-2.8483,-2.8417,-2.8366,-2.9486,-2.9606,0.0,0.0,0.0,0.0,0.0,0.0,-1.6949,0.0,-1.5455,0.0,0.0,0.0,0.0,0.0,0.0,0.0,0.0,0.0,0.0,0.0,0.0,0.0,0.0,0.0,0.0,0.0,0.0,0.0,0.0,-0.973,-1.0651,-1.1502,-1.2413,-1.3372,-1.3229,-1.3423,-1.4024,-1.3288,-1.2883,-1.2881,-1.2626,-1.2532,-1.2555,-1.2629,-1.3207,-1.4141,-1.4674,-1.5458,-1.6407,-1.6986,-1.7344,-1.7412,-1.706,-1.6617,-1.6203,-1.6246,-1.6067,-1.577,-1.5639,-1.558,-1.5699,-1.6375,-1.7107,-1.7987,-1.9441,-1.9597,-1.9245,-1.9191,-1.9101,-1.8832,-1.811,-1.8126,-1.8282,-1.7846,-1.7539,-1.7422,-1.7768,-1.8175,-1.8599,-1.924,-2.0061,-2.0811,-2.1214,-2.1587,-2.1797,-2.1797,-2.1899,-2.2116,-2.2446,-2.3067,-2.4036,-2.554,-2.6177,-2.6972,-2.811,-2.8237,-2.8327,-2.8536,-2.8721,-2.8639,-2.8233,-2.8237,-2.8406,-2.8731,-2.7998,-2.7926,-2.8586,-2.834,-2.8415,-2.8722,-2.923,-2.9489,-1.411,0.0,0.0,0.0,0.0,0.0,0.0,0.0,0.0,0.0,0.0,0.0,0.0,0.0,0.0,0.0,0.0,0.0,0.0,0.0,0.0,0.0,0.0,0.0,0.0,0.0,0.0,0.0,-0.8213,-0.8874,-1.0041,-1.088,-1.1963,-1.3328,-1.289,-1.2987,-1.3761,-1.2985,-1.2425,-1.2138,-1.2102,-1.2162,-1.2366,-1.2509,-1.3278,-1.4561,-1.5,-1.5869,-1.7003,-1.7429,-1.7788,-1.8069,-1.7647,-1.7101,-1.6538,-1.6501,-1.6246,-1.5898,-1.5827,-1.5918,-1.6278,-1.7708,-1.8145,-1.8326,-1.9429,-1.9455,-1.9,-1.859,-1.8534,-1.8401,-1.7489,-1.7556,-1.7758,-1.7272,-1.7055,-1.6998,-1.7255,-1.787,-1.8459,-1.8701,-1.986,-2.0878,-2.1111,-2.15,-2.1797,-2.1797,-2.1869,-2.194,-2.2068,-2.2768,-2.3708,-2.4828,-2.578,-2.6737,-2.7772,-2.8084,-2.8327,-2.8587,-2.8918,-2.887,-2.8404,-2.8323,-2.8286,-2.829,-2.7536,-2.759,-2.8472,-2.8477,-2.8697,-2.9066,-2.9137,-2.9469,0.0,0.0,0.0,-1.7945,0.0,0.0,0.0,0.0,-1.6607,0.0,0.0,0.0,0.0,0.0,0.0,-1.6408,0.0,0.0,0.0,0.0,0.0,0.0,0.0,0.0,0.0,0.0,0.0,-0.5879,-0.6816,-0.7882,-0.9074,-1.089,-1.1922,-1.2059,-1.2591,-1.2831,-1.2662,-1.2113,-1.1847,-1.1909,-1.1847,-1.2223,-1.2985,-1.3191,-1.4036,-1.5389,-1.5991,-1.6614,-1.7238,-1.782,-1.809,-1.8069,-1.7883,-1.7612,-1.7264,-1.6512,-1.6203,-1.6148,-1.5898,-1.6189,-1.6906,-1.8401,-1.8789,-1.874,-1.9089,-1.9614,-1.976,-1.8318,-1.8374,-1.8585,-1.718,-1.6772,-1.6818,-1.7045,-1.6714,-1.6478,-1.701,-1.7896,-1.846,-1.8023,-1.975,-2.1144,-2.078,-2.1317,-2.1797,-2.1797,-2.201,-2.2096,-2.184,-2.2588,-2.3292,-2.3784,-2.505,-2.6132,-2.696,-2.7826,-2.838,-2.8587,-2.8737,-2.8702,-2.8418,-2.7673,-2.7589,-2.829,-2.7686,-2.7686,-2.8307,-2.8949,-2.9149,-2.89,-2.9615,-2.9913,0.0,0.0,-1.8697,-1.8234,0.0,0.0,0.0,0.0,0.0,0.0,0.0,0.0,0.0,0.0,-1.8393,-1.7227,-1.5778,0.0,0.0,0.0,0.0,0.0,0.0,0.0,0.0,0.0,0.0,-0.5504,-0.6223,-0.7272,0.0,-1.0104,-1.1221,-1.2121,-1.202,-1.2139,-1.2532,-1.192,-1.1689,-1.1909,-1.2103,-1.2578,-1.3302,-1.4073,-1.4916,-1.5773,-1.6652,-1.7285,-1.7747,-1.8173,-1.8368,-1.8348,-1.8086,-1.8172,-1.8274,-1.7129,-1.6799,-1.6872,-1.6999,-1.7174,-1.7503,-1.8414,-1.8663,-1.8772,-1.952,-1.9186,-1.8515,-1.8252,-1.793,-1.7517,-1.663,-1.6722,-1.6965,-1.665,-1.6483,-1.6538,-1.7223,-1.7954,-1.8465,-1.8377,-1.9887,-2.1003,-2.0456,-2.1154,-2.1797,-2.1797,-2.1869,-2.2056,-2.2364,-2.2651,-2.3231,-2.4275,-2.4811,-2.5372,-2.6139,-2.7204,-2.8088,-2.8682,-2.8639,-2.8317,-2.7701,-2.7299,-2.7233,-2.7486,-2.6825,-2.7288,-2.8973,-2.8575,-2.8804,-2.9615,-2.9832,-2.9902,-1.6491,-1.7809,0.0,-1.8234,-1.7812,0.0,-1.7061,0.0,0.0,0.0,0.0,0.0,0.0,0.0,0.0,-1.7761,-1.6135,0.0,0.0,-0.9382,0.0,0.0,0.0,0.0,0.0,0.0,-0.4601,-0.5338,-0.6084,-0.7107,0.0,0.0,-1.0874,-1.2207,-1.1901,-1.2011,-1.2636,-1.2121,-1.1982,-1.2175,-1.2624,-1.3259,-1.4101,-1.4948,-1.5796,-1.6572,-1.7309,-1.7837,-1.8197,-1.8487,-1.8778,-1.9006,-1.8631,-1.8876,-1.9263,-1.7896,-1.7484,-1.7624,-1.793,-1.8022,-1.8127,-1.8867,-1.9076,-1.9126,-1.9771,-1.9454,-1.8806,-1.8547,-1.811,-1.7568,-1.6924,-1.6877,-1.6964,-1.6718,-1.6701,-1.6929,-1.7629,-1.8123,-1.8534,-1.8863,-2.0003,-2.0817,-2.0453,-2.1154,-2.1797,-2.1797,-2.1797,-2.1969,-2.2473,-2.2634,-2.3076,-2.4045,-2.4516,-2.5225,-2.6339,-2.7191,-2.7967,-2.8652,-2.8572,-2.8112,-2.7243,-2.7034,-2.6961,-2.7027,-2.6352,-2.7022,-2.9149,-2.8323,-2.8549,-2.9842,-2.977,-2.9814]}]]